<?xml version="1.0" encoding="UTF-8" standalone="no" ?>
<gpx xmlns="http://www.topografix.com/GPX/1/1" xmlns:xsi="http://www.w3.org/2001/XMLSchema-instance" xsi:schemaLocation="http://www.topografix.com/GPX/1/1 http://www.topografix.com/GPX/1/1/gpx.xsd" version="1.1" creator="VisuGPX - https://www.visugpx.com">
  <metadata>
    <name>2022-06-25 08:30 Carantec - Roscoff</name>
    <desc><![CDATA[File with points/tracks from LocusWorld/]]></desc>
  </metadata>
  <trk>
    <name><![CDATA[2022-06-25 08:30 Carantec - Roscoff]]></name>
    <extensions>
      <line xmlns="http://www.topografix.com/GPX/gpx_style/0/2">
        <color>FF0000</color>
        <opacity>0.78</opacity>
        <width>3.0</width>
      </line>
    </extensions>
    <trkseg>
      <trkpt lat="48.64965" lon="-3.92121">
        <ele>37.1</ele>
        <time>2022-06-25T06:30:16.000Z</time>
      </trkpt>
      <trkpt lat="48.64967" lon="-3.92126">
        <ele>39.38</ele>
        <time>2022-06-25T06:30:26.000Z</time>
      </trkpt>
      <trkpt lat="48.64967" lon="-3.9212">
        <ele>37.1</ele>
        <time>2022-06-25T06:30:36.000Z</time>
      </trkpt>
      <trkpt lat="48.64966" lon="-3.9212">
        <ele>37.1</ele>
        <time>2022-06-25T06:30:47.000Z</time>
      </trkpt>
      <trkpt lat="48.64965" lon="-3.92118">
        <ele>38.03</ele>
        <time>2022-06-25T06:31:52.000Z</time>
      </trkpt>
      <trkpt lat="48.64966" lon="-3.92119">
        <ele>37.11</ele>
        <time>2022-06-25T06:32:19.000Z</time>
      </trkpt>
      <trkpt lat="48.64968" lon="-3.92121">
        <ele>39.85</ele>
        <time>2022-06-25T06:32:29.000Z</time>
      </trkpt>
      <trkpt lat="48.64967" lon="-3.92123">
        <ele>41.1</ele>
        <time>2022-06-25T06:33:18.000Z</time>
      </trkpt>
      <trkpt lat="48.64958" lon="-3.92133">
        <ele>40.86</ele>
        <time>2022-06-25T06:33:29.000Z</time>
      </trkpt>
      <trkpt lat="48.64956" lon="-3.92119">
        <ele>41.1</ele>
        <time>2022-06-25T06:33:38.041Z</time>
      </trkpt>
      <trkpt lat="48.6495" lon="-3.92112">
        <ele>40.1</ele>
        <time>2022-06-25T06:33:47.340Z</time>
      </trkpt>
      <trkpt lat="48.6495" lon="-3.92103">
        <ele>41.1</ele>
        <time>2022-06-25T06:33:57.000Z</time>
      </trkpt>
      <trkpt lat="48.64955" lon="-3.92092">
        <ele>40.35</ele>
        <time>2022-06-25T06:34:07.000Z</time>
      </trkpt>
      <trkpt lat="48.64957" lon="-3.92088">
        <ele>40.1</ele>
        <time>2022-06-25T06:34:17.000Z</time>
      </trkpt>
      <trkpt lat="48.64957" lon="-3.92086">
        <ele>40.1</ele>
        <time>2022-06-25T06:34:31.038Z</time>
      </trkpt>
      <trkpt lat="48.64949" lon="-3.92075">
        <ele>40.1</ele>
        <time>2022-06-25T06:34:40.077Z</time>
      </trkpt>
      <trkpt lat="48.6494" lon="-3.9207">
        <ele>41.1</ele>
        <time>2022-06-25T06:34:49.118Z</time>
      </trkpt>
      <trkpt lat="48.64933" lon="-3.92077">
        <ele>40.1</ele>
        <time>2022-06-25T06:34:58.638Z</time>
      </trkpt>
      <trkpt lat="48.64928" lon="-3.92092">
        <ele>42.1</ele>
        <time>2022-06-25T06:35:08.581Z</time>
      </trkpt>
      <trkpt lat="48.64921" lon="-3.92102">
        <ele>41.1</ele>
        <time>2022-06-25T06:35:18.000Z</time>
      </trkpt>
      <trkpt lat="48.64916" lon="-3.92109">
        <ele>42.1</ele>
        <time>2022-06-25T06:35:27.276Z</time>
      </trkpt>
      <trkpt lat="48.64911" lon="-3.92122">
        <ele>42.1</ele>
        <time>2022-06-25T06:35:36.676Z</time>
      </trkpt>
      <trkpt lat="48.64906" lon="-3.92133">
        <ele>42.1</ele>
        <time>2022-06-25T06:35:46.180Z</time>
      </trkpt>
      <trkpt lat="48.64902" lon="-3.92147">
        <ele>42.1</ele>
        <time>2022-06-25T06:35:55.460Z</time>
      </trkpt>
      <trkpt lat="48.64898" lon="-3.9216">
        <ele>43.1</ele>
        <time>2022-06-25T06:36:04.716Z</time>
      </trkpt>
      <trkpt lat="48.64895" lon="-3.92172">
        <ele>43.1</ele>
        <time>2022-06-25T06:36:14.000Z</time>
      </trkpt>
      <trkpt lat="48.64891" lon="-3.92185">
        <ele>43.85</ele>
        <time>2022-06-25T06:36:23.021Z</time>
      </trkpt>
      <trkpt lat="48.6489" lon="-3.92199">
        <ele>44.1</ele>
        <time>2022-06-25T06:36:32.516Z</time>
      </trkpt>
      <trkpt lat="48.64888" lon="-3.92215">
        <ele>44.1</ele>
        <time>2022-06-25T06:36:42.058Z</time>
      </trkpt>
      <trkpt lat="48.64885" lon="-3.9223">
        <ele>44.1</ele>
        <time>2022-06-25T06:36:51.539Z</time>
      </trkpt>
      <trkpt lat="48.64883" lon="-3.92246">
        <ele>43.1</ele>
        <time>2022-06-25T06:37:00.838Z</time>
      </trkpt>
      <trkpt lat="48.64882" lon="-3.9226">
        <ele>42.1</ele>
        <time>2022-06-25T06:37:10.000Z</time>
      </trkpt>
      <trkpt lat="48.64879" lon="-3.92277">
        <ele>42.1</ele>
        <time>2022-06-25T06:37:20.362Z</time>
      </trkpt>
      <trkpt lat="48.64878" lon="-3.92292">
        <ele>40.86</ele>
        <time>2022-06-25T06:37:29.935Z</time>
      </trkpt>
      <trkpt lat="48.64873" lon="-3.92303">
        <ele>40.04</ele>
        <time>2022-06-25T06:37:39.279Z</time>
      </trkpt>
      <trkpt lat="48.64874" lon="-3.92318">
        <ele>39.1</ele>
        <time>2022-06-25T06:37:49.000Z</time>
      </trkpt>
      <trkpt lat="48.6487" lon="-3.92331">
        <ele>39.08</ele>
        <time>2022-06-25T06:37:58.259Z</time>
      </trkpt>
      <trkpt lat="48.64867" lon="-3.92345">
        <ele>38.1</ele>
        <time>2022-06-25T06:38:07.620Z</time>
      </trkpt>
      <trkpt lat="48.64863" lon="-3.92359">
        <ele>37.1</ele>
        <time>2022-06-25T06:38:16.654Z</time>
      </trkpt>
      <trkpt lat="48.6486" lon="-3.92375">
        <ele>37.16</ele>
        <time>2022-06-25T06:38:26.239Z</time>
      </trkpt>
      <trkpt lat="48.64854" lon="-3.92389">
        <ele>37.86</ele>
        <time>2022-06-25T06:38:36.000Z</time>
      </trkpt>
      <trkpt lat="48.64848" lon="-3.92404">
        <ele>37.1</ele>
        <time>2022-06-25T06:38:45.458Z</time>
      </trkpt>
      <trkpt lat="48.64845" lon="-3.9242">
        <ele>37.1</ele>
        <time>2022-06-25T06:38:54.996Z</time>
      </trkpt>
      <trkpt lat="48.64837" lon="-3.92433">
        <ele>11.18</ele>
        <time>2022-06-25T06:39:04.418Z</time>
      </trkpt>
      <trkpt lat="48.6484" lon="-3.92451">
        <ele>13.84</ele>
        <time>2022-06-25T06:39:14.399Z</time>
      </trkpt>
      <trkpt lat="48.64847" lon="-3.92464">
        <ele>18.84</ele>
        <time>2022-06-25T06:39:24.000Z</time>
      </trkpt>
      <trkpt lat="48.64851" lon="-3.92481">
        <ele>22.09</ele>
        <time>2022-06-25T06:39:33.402Z</time>
      </trkpt>
      <trkpt lat="48.64851" lon="-3.92497">
        <ele>24.09</ele>
        <time>2022-06-25T06:39:43.022Z</time>
      </trkpt>
      <trkpt lat="48.64849" lon="-3.92514">
        <ele>24.09</ele>
        <time>2022-06-25T06:39:52.460Z</time>
      </trkpt>
      <trkpt lat="48.6485" lon="-3.92531">
        <ele>25.09</ele>
        <time>2022-06-25T06:40:02.000Z</time>
      </trkpt>
      <trkpt lat="48.6485" lon="-3.92549">
        <ele>26.09</ele>
        <time>2022-06-25T06:40:11.222Z</time>
      </trkpt>
      <trkpt lat="48.64851" lon="-3.92564">
        <ele>25.91</ele>
        <time>2022-06-25T06:40:21.000Z</time>
      </trkpt>
      <trkpt lat="48.64853" lon="-3.9258">
        <ele>27.09</ele>
        <time>2022-06-25T06:40:30.319Z</time>
      </trkpt>
      <trkpt lat="48.64855" lon="-3.92598">
        <ele>29.03</ele>
        <time>2022-06-25T06:40:40.341Z</time>
      </trkpt>
      <trkpt lat="48.64857" lon="-3.92616">
        <ele>28.3</ele>
        <time>2022-06-25T06:40:50.379Z</time>
      </trkpt>
      <trkpt lat="48.64859" lon="-3.92633">
        <ele>28.84</ele>
        <time>2022-06-25T06:40:59.415Z</time>
      </trkpt>
      <trkpt lat="48.64863" lon="-3.92646">
        <ele>30.09</ele>
        <time>2022-06-25T06:41:08.502Z</time>
      </trkpt>
      <trkpt lat="48.64872" lon="-3.92656">
        <ele>31.08</ele>
        <time>2022-06-25T06:41:18.000Z</time>
      </trkpt>
      <trkpt lat="48.64879" lon="-3.92664">
        <ele>30.09</ele>
        <time>2022-06-25T06:41:27.418Z</time>
      </trkpt>
      <trkpt lat="48.6489" lon="-3.92671">
        <ele>29.85</ele>
        <time>2022-06-25T06:41:37.356Z</time>
      </trkpt>
      <trkpt lat="48.64897" lon="-3.92683">
        <ele>29.1</ele>
        <time>2022-06-25T06:41:46.396Z</time>
      </trkpt>
      <trkpt lat="48.64905" lon="-3.92691">
        <ele>28.09</ele>
        <time>2022-06-25T06:41:55.843Z</time>
      </trkpt>
      <trkpt lat="48.64914" lon="-3.92702">
        <ele>27.09</ele>
        <time>2022-06-25T06:42:05.482Z</time>
      </trkpt>
      <trkpt lat="48.64924" lon="-3.92715">
        <ele>25.34</ele>
        <time>2022-06-25T06:42:15.415Z</time>
      </trkpt>
      <trkpt lat="48.64933" lon="-3.92726">
        <ele>25.09</ele>
        <time>2022-06-25T06:42:24.463Z</time>
      </trkpt>
      <trkpt lat="48.64943" lon="-3.92736">
        <ele>25.09</ele>
        <time>2022-06-25T06:42:33.939Z</time>
      </trkpt>
      <trkpt lat="48.64952" lon="-3.92749">
        <ele>25.09</ele>
        <time>2022-06-25T06:42:43.000Z</time>
      </trkpt>
      <trkpt lat="48.64959" lon="-3.92763">
        <ele>25.34</ele>
        <time>2022-06-25T06:42:52.363Z</time>
      </trkpt>
      <trkpt lat="48.64962" lon="-3.92774">
        <ele>25.09</ele>
        <time>2022-06-25T06:43:01.983Z</time>
      </trkpt>
      <trkpt lat="48.64967" lon="-3.92788">
        <ele>25.09</ele>
        <time>2022-06-25T06:43:11.521Z</time>
      </trkpt>
      <trkpt lat="48.64973" lon="-3.92801">
        <ele>25.09</ele>
        <time>2022-06-25T06:43:20.561Z</time>
      </trkpt>
      <trkpt lat="48.64982" lon="-3.9281">
        <ele>24.11</ele>
        <time>2022-06-25T06:43:30.241Z</time>
      </trkpt>
      <trkpt lat="48.64993" lon="-3.92818">
        <ele>24.11</ele>
        <time>2022-06-25T06:43:40.000Z</time>
      </trkpt>
      <trkpt lat="48.65005" lon="-3.92826">
        <ele>22.35</ele>
        <time>2022-06-25T06:43:50.000Z</time>
      </trkpt>
      <trkpt lat="48.65015" lon="-3.92831">
        <ele>21.33</ele>
        <time>2022-06-25T06:43:59.641Z</time>
      </trkpt>
      <trkpt lat="48.65026" lon="-3.92831">
        <ele>21.1</ele>
        <time>2022-06-25T06:44:09.522Z</time>
      </trkpt>
      <trkpt lat="48.65037" lon="-3.92831">
        <ele>21.1</ele>
        <time>2022-06-25T06:44:18.970Z</time>
      </trkpt>
      <trkpt lat="48.65047" lon="-3.92831">
        <ele>19.35</ele>
        <time>2022-06-25T06:44:29.000Z</time>
      </trkpt>
      <trkpt lat="48.6506" lon="-3.92828">
        <ele>15.13</ele>
        <time>2022-06-25T06:44:39.000Z</time>
      </trkpt>
      <trkpt lat="48.6507" lon="-3.92831">
        <ele>15.08</ele>
        <time>2022-06-25T06:44:48.119Z</time>
      </trkpt>
      <trkpt lat="48.65081" lon="-3.92835">
        <ele>15.08</ele>
        <time>2022-06-25T06:44:58.000Z</time>
      </trkpt>
      <trkpt lat="48.65089" lon="-3.92838">
        <ele>14.11</ele>
        <time>2022-06-25T06:45:07.382Z</time>
      </trkpt>
      <trkpt lat="48.65098" lon="-3.92843">
        <ele>15.09</ele>
        <time>2022-06-25T06:45:16.435Z</time>
      </trkpt>
      <trkpt lat="48.65108" lon="-3.92848">
        <ele>15.1</ele>
        <time>2022-06-25T06:45:25.455Z</time>
      </trkpt>
      <trkpt lat="48.65117" lon="-3.92859">
        <ele>16.85</ele>
        <time>2022-06-25T06:45:35.620Z</time>
      </trkpt>
      <trkpt lat="48.65128" lon="-3.92871">
        <ele>16.35</ele>
        <time>2022-06-25T06:45:45.097Z</time>
      </trkpt>
      <trkpt lat="48.65136" lon="-3.92878">
        <ele>16.1</ele>
        <time>2022-06-25T06:45:54.624Z</time>
      </trkpt>
      <trkpt lat="48.65147" lon="-3.92884">
        <ele>16.1</ele>
        <time>2022-06-25T06:46:04.101Z</time>
      </trkpt>
      <trkpt lat="48.65158" lon="-3.92891">
        <ele>15.85</ele>
        <time>2022-06-25T06:46:13.379Z</time>
      </trkpt>
      <trkpt lat="48.65172" lon="-3.929">
        <ele>16.1</ele>
        <time>2022-06-25T06:46:23.000Z</time>
      </trkpt>
      <trkpt lat="48.65183" lon="-3.92905">
        <ele>16.08</ele>
        <time>2022-06-25T06:46:32.279Z</time>
      </trkpt>
      <trkpt lat="48.65192" lon="-3.92907">
        <ele>15.16</ele>
        <time>2022-06-25T06:46:41.557Z</time>
      </trkpt>
      <trkpt lat="48.65203" lon="-3.92914">
        <ele>16.03</ele>
        <time>2022-06-25T06:46:51.460Z</time>
      </trkpt>
      <trkpt lat="48.65215" lon="-3.92923">
        <ele>10.7</ele>
        <time>2022-06-25T06:47:02.000Z</time>
      </trkpt>
      <trkpt lat="48.65227" lon="-3.92926">
        <ele>10.7</ele>
        <time>2022-06-25T06:47:11.359Z</time>
      </trkpt>
      <trkpt lat="48.65239" lon="-3.92933">
        <ele>7.5</ele>
        <time>2022-06-25T06:47:21.341Z</time>
      </trkpt>
      <trkpt lat="48.6525" lon="-3.92938">
        <ele>7.7</ele>
        <time>2022-06-25T06:47:31.000Z</time>
      </trkpt>
      <trkpt lat="48.65261" lon="-3.92943">
        <ele>7.7</ele>
        <time>2022-06-25T06:47:40.600Z</time>
      </trkpt>
      <trkpt lat="48.65271" lon="-3.92947">
        <ele>10.7</ele>
        <time>2022-06-25T06:47:49.642Z</time>
      </trkpt>
      <trkpt lat="48.6528" lon="-3.92951">
        <ele>7.55</ele>
        <time>2022-06-25T06:47:59.000Z</time>
      </trkpt>
      <trkpt lat="48.6529" lon="-3.92952">
        <ele>10.65</ele>
        <time>2022-06-25T06:48:09.000Z</time>
      </trkpt>
      <trkpt lat="48.65303" lon="-3.92953">
        <ele>7.7</ele>
        <time>2022-06-25T06:48:18.299Z</time>
      </trkpt>
      <trkpt lat="48.65314" lon="-3.92955">
        <ele>7.7</ele>
        <time>2022-06-25T06:48:28.000Z</time>
      </trkpt>
      <trkpt lat="48.65323" lon="-3.92964">
        <ele>10.65</ele>
        <time>2022-06-25T06:48:37.179Z</time>
      </trkpt>
      <trkpt lat="48.65329" lon="-3.92978">
        <ele>12.24</ele>
        <time>2022-06-25T06:48:46.623Z</time>
      </trkpt>
      <trkpt lat="48.65334" lon="-3.92994">
        <ele>12.24</ele>
        <time>2022-06-25T06:48:56.035Z</time>
      </trkpt>
      <trkpt lat="48.65338" lon="-3.93009">
        <ele>9.95</ele>
        <time>2022-06-25T06:49:05.327Z</time>
      </trkpt>
      <trkpt lat="48.65344" lon="-3.93023">
        <ele>7.7</ele>
        <time>2022-06-25T06:49:14.819Z</time>
      </trkpt>
      <trkpt lat="48.65351" lon="-3.93038">
        <ele>10.7</ele>
        <time>2022-06-25T06:49:25.000Z</time>
      </trkpt>
      <trkpt lat="48.65357" lon="-3.93052">
        <ele>7.7</ele>
        <time>2022-06-25T06:49:35.000Z</time>
      </trkpt>
      <trkpt lat="48.65365" lon="-3.93065">
        <ele>7.7</ele>
        <time>2022-06-25T06:49:45.000Z</time>
      </trkpt>
      <trkpt lat="48.65372" lon="-3.93077">
        <ele>10.7</ele>
        <time>2022-06-25T06:49:54.437Z</time>
      </trkpt>
      <trkpt lat="48.65377" lon="-3.93094">
        <ele>7.7</ele>
        <time>2022-06-25T06:50:05.000Z</time>
      </trkpt>
      <trkpt lat="48.65381" lon="-3.93111">
        <ele>7.7</ele>
        <time>2022-06-25T06:50:14.457Z</time>
      </trkpt>
      <trkpt lat="48.65386" lon="-3.93127">
        <ele>7.7</ele>
        <time>2022-06-25T06:50:24.000Z</time>
      </trkpt>
      <trkpt lat="48.65388" lon="-3.93142">
        <ele>11.04</ele>
        <time>2022-06-25T06:50:33.223Z</time>
      </trkpt>
      <trkpt lat="48.65392" lon="-3.93157">
        <ele>12.1</ele>
        <time>2022-06-25T06:50:42.636Z</time>
      </trkpt>
      <trkpt lat="48.65396" lon="-3.93174">
        <ele>11.81</ele>
        <time>2022-06-25T06:50:51.996Z</time>
      </trkpt>
      <trkpt lat="48.65399" lon="-3.93189">
        <ele>7.5</ele>
        <time>2022-06-25T06:51:01.523Z</time>
      </trkpt>
      <trkpt lat="48.65401" lon="-3.93204">
        <ele>7.5</ele>
        <time>2022-06-25T06:51:11.000Z</time>
      </trkpt>
      <trkpt lat="48.65401" lon="-3.93224">
        <ele>7.5</ele>
        <time>2022-06-25T06:51:20.514Z</time>
      </trkpt>
      <trkpt lat="48.65402" lon="-3.93241">
        <ele>7.6</ele>
        <time>2022-06-25T06:51:30.302Z</time>
      </trkpt>
      <trkpt lat="48.654" lon="-3.93258">
        <ele>10.68</ele>
        <time>2022-06-25T06:51:40.000Z</time>
      </trkpt>
      <trkpt lat="48.65401" lon="-3.93275">
        <ele>7.5</ele>
        <time>2022-06-25T06:51:50.000Z</time>
      </trkpt>
      <trkpt lat="48.65401" lon="-3.93284">
        <ele>7.5</ele>
        <time>2022-06-25T06:51:59.757Z</time>
      </trkpt>
      <trkpt lat="48.65398" lon="-3.93302">
        <ele>7.5</ele>
        <time>2022-06-25T06:52:09.417Z</time>
      </trkpt>
      <trkpt lat="48.65401" lon="-3.93318">
        <ele>7.5</ele>
        <time>2022-06-25T06:52:18.560Z</time>
      </trkpt>
      <trkpt lat="48.65403" lon="-3.93336">
        <ele>7.5</ele>
        <time>2022-06-25T06:52:29.000Z</time>
      </trkpt>
      <trkpt lat="48.65402" lon="-3.93354">
        <ele>7.5</ele>
        <time>2022-06-25T06:52:38.537Z</time>
      </trkpt>
      <trkpt lat="48.65404" lon="-3.93368">
        <ele>7.5</ele>
        <time>2022-06-25T06:52:48.000Z</time>
      </trkpt>
      <trkpt lat="48.65405" lon="-3.93383">
        <ele>7.5</ele>
        <time>2022-06-25T06:52:58.000Z</time>
      </trkpt>
      <trkpt lat="48.65407" lon="-3.93401">
        <ele>7.5</ele>
        <time>2022-06-25T06:53:08.000Z</time>
      </trkpt>
      <trkpt lat="48.65406" lon="-3.93418">
        <ele>7.5</ele>
        <time>2022-06-25T06:53:18.000Z</time>
      </trkpt>
      <trkpt lat="48.65404" lon="-3.93435">
        <ele>7.5</ele>
        <time>2022-06-25T06:53:27.380Z</time>
      </trkpt>
      <trkpt lat="48.65404" lon="-3.9345">
        <ele>7.5</ele>
        <time>2022-06-25T06:53:37.000Z</time>
      </trkpt>
      <trkpt lat="48.65403" lon="-3.93468">
        <ele>7.5</ele>
        <time>2022-06-25T06:53:46.481Z</time>
      </trkpt>
      <trkpt lat="48.65403" lon="-3.93485">
        <ele>7.5</ele>
        <time>2022-06-25T06:53:56.000Z</time>
      </trkpt>
      <trkpt lat="48.654" lon="-3.93502">
        <ele>7.5</ele>
        <time>2022-06-25T06:54:05.483Z</time>
      </trkpt>
      <trkpt lat="48.65397" lon="-3.93519">
        <ele>7.5</ele>
        <time>2022-06-25T06:54:14.619Z</time>
      </trkpt>
      <trkpt lat="48.65397" lon="-3.93537">
        <ele>7.5</ele>
        <time>2022-06-25T06:54:24.397Z</time>
      </trkpt>
      <trkpt lat="48.65399" lon="-3.93553">
        <ele>7.5</ele>
        <time>2022-06-25T06:54:33.501Z</time>
      </trkpt>
      <trkpt lat="48.65401" lon="-3.93568">
        <ele>7.5</ele>
        <time>2022-06-25T06:54:43.000Z</time>
      </trkpt>
      <trkpt lat="48.65405" lon="-3.93582">
        <ele>8.35</ele>
        <time>2022-06-25T06:54:52.398Z</time>
      </trkpt>
      <trkpt lat="48.65417" lon="-3.93583">
        <ele>6.1</ele>
        <time>2022-06-25T06:55:02.000Z</time>
      </trkpt>
      <trkpt lat="48.65421" lon="-3.93601">
        <ele>8.03</ele>
        <time>2022-06-25T06:55:11.458Z</time>
      </trkpt>
      <trkpt lat="48.65424" lon="-3.93614">
        <ele>9.09</ele>
        <time>2022-06-25T06:55:20.638Z</time>
      </trkpt>
      <trkpt lat="48.65431" lon="-3.93624">
        <ele>10.1</ele>
        <time>2022-06-25T06:55:29.785Z</time>
      </trkpt>
      <trkpt lat="48.65441" lon="-3.93633">
        <ele>11.1</ele>
        <time>2022-06-25T06:55:38.838Z</time>
      </trkpt>
      <trkpt lat="48.6545" lon="-3.93638">
        <ele>11.85</ele>
        <time>2022-06-25T06:55:48.998Z</time>
      </trkpt>
      <trkpt lat="48.65457" lon="-3.93642">
        <ele>11.35</ele>
        <time>2022-06-25T06:55:58.000Z</time>
      </trkpt>
      <trkpt lat="48.65466" lon="-3.93649">
        <ele>12.1</ele>
        <time>2022-06-25T06:56:07.236Z</time>
      </trkpt>
      <trkpt lat="48.65475" lon="-3.93652">
        <ele>13.1</ele>
        <time>2022-06-25T06:56:16.283Z</time>
      </trkpt>
      <trkpt lat="48.65488" lon="-3.93656">
        <ele>13.1</ele>
        <time>2022-06-25T06:56:25.498Z</time>
      </trkpt>
      <trkpt lat="48.655" lon="-3.93664">
        <ele>13.09</ele>
        <time>2022-06-25T06:56:34.602Z</time>
      </trkpt>
      <trkpt lat="48.6551" lon="-3.93669">
        <ele>12.1</ele>
        <time>2022-06-25T06:56:44.000Z</time>
      </trkpt>
      <trkpt lat="48.65522" lon="-3.93676">
        <ele>11.16</ele>
        <time>2022-06-25T06:56:53.423Z</time>
      </trkpt>
      <trkpt lat="48.65534" lon="-3.93681">
        <ele>10.11</ele>
        <time>2022-06-25T06:57:02.918Z</time>
      </trkpt>
      <trkpt lat="48.65545" lon="-3.93684">
        <ele>10.35</ele>
        <time>2022-06-25T06:57:11.985Z</time>
      </trkpt>
      <trkpt lat="48.65556" lon="-3.93687">
        <ele>10.09</ele>
        <time>2022-06-25T06:57:21.519Z</time>
      </trkpt>
      <trkpt lat="48.65568" lon="-3.93687">
        <ele>9.1</ele>
        <time>2022-06-25T06:57:31.118Z</time>
      </trkpt>
      <trkpt lat="48.65578" lon="-3.93684">
        <ele>9.1</ele>
        <time>2022-06-25T06:57:40.157Z</time>
      </trkpt>
      <trkpt lat="48.6559" lon="-3.9368">
        <ele>7.1</ele>
        <time>2022-06-25T06:57:50.000Z</time>
      </trkpt>
      <trkpt lat="48.65601" lon="-3.93675">
        <ele>7.1</ele>
        <time>2022-06-25T06:58:00.000Z</time>
      </trkpt>
      <trkpt lat="48.65611" lon="-3.93671">
        <ele>6.1</ele>
        <time>2022-06-25T06:58:09.002Z</time>
      </trkpt>
      <trkpt lat="48.65622" lon="-3.93668">
        <ele>6.1</ele>
        <time>2022-06-25T06:58:18.082Z</time>
      </trkpt>
      <trkpt lat="48.65634" lon="-3.93663">
        <ele>6.85</ele>
        <time>2022-06-25T06:58:28.000Z</time>
      </trkpt>
      <trkpt lat="48.65645" lon="-3.93661">
        <ele>5.11</ele>
        <time>2022-06-25T06:58:37.402Z</time>
      </trkpt>
      <trkpt lat="48.65654" lon="-3.9367">
        <ele>6.09</ele>
        <time>2022-06-25T06:58:47.000Z</time>
      </trkpt>
      <trkpt lat="48.65653" lon="-3.93669">
        <ele>6.1</ele>
        <time>2022-06-25T06:58:57.000Z</time>
      </trkpt>
      <trkpt lat="48.65652" lon="-3.9367">
        <ele>6.1</ele>
        <time>2022-06-25T06:59:39.000Z</time>
      </trkpt>
      <trkpt lat="48.65646" lon="-3.93685">
        <ele>6.85</ele>
        <time>2022-06-25T06:59:48.181Z</time>
      </trkpt>
      <trkpt lat="48.65641" lon="-3.93698">
        <ele>6.85</ele>
        <time>2022-06-25T06:59:58.000Z</time>
      </trkpt>
      <trkpt lat="48.65636" lon="-3.93712">
        <ele>6.11</ele>
        <time>2022-06-25T07:00:08.000Z</time>
      </trkpt>
      <trkpt lat="48.6563" lon="-3.93726">
        <ele>6.1</ele>
        <time>2022-06-25T07:00:17.527Z</time>
      </trkpt>
      <trkpt lat="48.65624" lon="-3.93739">
        <ele>6.1</ele>
        <time>2022-06-25T07:00:26.979Z</time>
      </trkpt>
      <trkpt lat="48.65621" lon="-3.93753">
        <ele>6.1</ele>
        <time>2022-06-25T07:00:36.081Z</time>
      </trkpt>
      <trkpt lat="48.65615" lon="-3.93766">
        <ele>6.1</ele>
        <time>2022-06-25T07:00:45.440Z</time>
      </trkpt>
      <trkpt lat="48.65609" lon="-3.93777">
        <ele>6.1</ele>
        <time>2022-06-25T07:00:55.000Z</time>
      </trkpt>
      <trkpt lat="48.65602" lon="-3.93787">
        <ele>5.85</ele>
        <time>2022-06-25T07:01:04.096Z</time>
      </trkpt>
      <trkpt lat="48.656" lon="-3.93788">
        <ele>6.1</ele>
        <time>2022-06-25T07:01:13.639Z</time>
      </trkpt>
      <trkpt lat="48.65597" lon="-3.93787">
        <ele>6.1</ele>
        <time>2022-06-25T07:01:23.123Z</time>
      </trkpt>
      <trkpt lat="48.65589" lon="-3.93795">
        <ele>6.1</ele>
        <time>2022-06-25T07:01:32.262Z</time>
      </trkpt>
      <trkpt lat="48.65583" lon="-3.93802">
        <ele>6.1</ele>
        <time>2022-06-25T07:01:41.378Z</time>
      </trkpt>
      <trkpt lat="48.65576" lon="-3.93808">
        <ele>6.1</ele>
        <time>2022-06-25T07:01:51.019Z</time>
      </trkpt>
      <trkpt lat="48.65569" lon="-3.93817">
        <ele>6.1</ele>
        <time>2022-06-25T07:02:01.000Z</time>
      </trkpt>
      <trkpt lat="48.65563" lon="-3.93824">
        <ele>6.1</ele>
        <time>2022-06-25T07:02:11.000Z</time>
      </trkpt>
      <trkpt lat="48.65558" lon="-3.93833">
        <ele>6.1</ele>
        <time>2022-06-25T07:02:20.642Z</time>
      </trkpt>
      <trkpt lat="48.65552" lon="-3.93838">
        <ele>7.1</ele>
        <time>2022-06-25T07:02:30.043Z</time>
      </trkpt>
      <trkpt lat="48.65545" lon="-3.93845">
        <ele>8.09</ele>
        <time>2022-06-25T07:02:39.258Z</time>
      </trkpt>
      <trkpt lat="48.65537" lon="-3.93853">
        <ele>7.1</ele>
        <time>2022-06-25T07:02:49.000Z</time>
      </trkpt>
      <trkpt lat="48.65532" lon="-3.9386">
        <ele>7.1</ele>
        <time>2022-06-25T07:02:58.062Z</time>
      </trkpt>
      <trkpt lat="48.65529" lon="-3.93863">
        <ele>7.1</ele>
        <time>2022-06-25T07:03:07.081Z</time>
      </trkpt>
      <trkpt lat="48.65519" lon="-3.9387">
        <ele>8.03</ele>
        <time>2022-06-25T07:03:16.498Z</time>
      </trkpt>
      <trkpt lat="48.65512" lon="-3.93874">
        <ele>8.1</ele>
        <time>2022-06-25T07:03:26.000Z</time>
      </trkpt>
      <trkpt lat="48.65505" lon="-3.93879">
        <ele>7.34</ele>
        <time>2022-06-25T07:03:35.340Z</time>
      </trkpt>
      <trkpt lat="48.65497" lon="-3.93884">
        <ele>8.28</ele>
        <time>2022-06-25T07:03:46.000Z</time>
      </trkpt>
      <trkpt lat="48.65493" lon="-3.93887">
        <ele>8.1</ele>
        <time>2022-06-25T07:03:55.483Z</time>
      </trkpt>
      <trkpt lat="48.65486" lon="-3.9389">
        <ele>8.1</ele>
        <time>2022-06-25T07:04:05.000Z</time>
      </trkpt>
      <trkpt lat="48.6548" lon="-3.93895">
        <ele>9.1</ele>
        <time>2022-06-25T07:04:14.060Z</time>
      </trkpt>
      <trkpt lat="48.65472" lon="-3.93901">
        <ele>9.1</ele>
        <time>2022-06-25T07:04:24.000Z</time>
      </trkpt>
      <trkpt lat="48.65465" lon="-3.93905">
        <ele>9.1</ele>
        <time>2022-06-25T07:04:33.517Z</time>
      </trkpt>
      <trkpt lat="48.65458" lon="-3.93911">
        <ele>10.85</ele>
        <time>2022-06-25T07:04:43.235Z</time>
      </trkpt>
      <trkpt lat="48.6545" lon="-3.93913">
        <ele>10.1</ele>
        <time>2022-06-25T07:04:53.000Z</time>
      </trkpt>
      <trkpt lat="48.65442" lon="-3.93914">
        <ele>10.33</ele>
        <time>2022-06-25T07:05:02.601Z</time>
      </trkpt>
      <trkpt lat="48.65433" lon="-3.93911">
        <ele>11.09</ele>
        <time>2022-06-25T07:05:12.000Z</time>
      </trkpt>
      <trkpt lat="48.65425" lon="-3.93909">
        <ele>11.09</ele>
        <time>2022-06-25T07:05:21.518Z</time>
      </trkpt>
      <trkpt lat="48.65419" lon="-3.93909">
        <ele>11.09</ele>
        <time>2022-06-25T07:05:31.000Z</time>
      </trkpt>
      <trkpt lat="48.65415" lon="-3.93922">
        <ele>12.09</ele>
        <time>2022-06-25T07:05:41.000Z</time>
      </trkpt>
      <trkpt lat="48.65411" lon="-3.93935">
        <ele>11.09</ele>
        <time>2022-06-25T07:05:50.221Z</time>
      </trkpt>
      <trkpt lat="48.65408" lon="-3.93947">
        <ele>11.09</ele>
        <time>2022-06-25T07:05:59.494Z</time>
      </trkpt>
      <trkpt lat="48.65403" lon="-3.93957">
        <ele>11.09</ele>
        <time>2022-06-25T07:06:09.000Z</time>
      </trkpt>
      <trkpt lat="48.654" lon="-3.9397">
        <ele>11.09</ele>
        <time>2022-06-25T07:06:18.179Z</time>
      </trkpt>
      <trkpt lat="48.65397" lon="-3.93984">
        <ele>10.1</ele>
        <time>2022-06-25T07:06:27.315Z</time>
      </trkpt>
      <trkpt lat="48.65396" lon="-3.93997">
        <ele>10.09</ele>
        <time>2022-06-25T07:06:36.540Z</time>
      </trkpt>
      <trkpt lat="48.65395" lon="-3.94012">
        <ele>10.84</ele>
        <time>2022-06-25T07:06:46.000Z</time>
      </trkpt>
      <trkpt lat="48.65394" lon="-3.94027">
        <ele>11.09</ele>
        <time>2022-06-25T07:06:55.275Z</time>
      </trkpt>
      <trkpt lat="48.65392" lon="-3.94043">
        <ele>11.33</ele>
        <time>2022-06-25T07:07:05.000Z</time>
      </trkpt>
      <trkpt lat="48.65389" lon="-3.94059">
        <ele>11.09</ele>
        <time>2022-06-25T07:07:14.316Z</time>
      </trkpt>
      <trkpt lat="48.65387" lon="-3.94072">
        <ele>12.09</ele>
        <time>2022-06-25T07:07:23.379Z</time>
      </trkpt>
      <trkpt lat="48.65387" lon="-3.94078">
        <ele>12.09</ele>
        <time>2022-06-25T07:07:32.819Z</time>
      </trkpt>
      <trkpt lat="48.65386" lon="-3.94095">
        <ele>11.09</ele>
        <time>2022-06-25T07:07:42.300Z</time>
      </trkpt>
      <trkpt lat="48.65385" lon="-3.9411">
        <ele>11.14</ele>
        <time>2022-06-25T07:07:51.381Z</time>
      </trkpt>
      <trkpt lat="48.65384" lon="-3.94125">
        <ele>11.09</ele>
        <time>2022-06-25T07:08:01.000Z</time>
      </trkpt>
      <trkpt lat="48.65385" lon="-3.94123">
        <ele>12.09</ele>
        <time>2022-06-25T07:08:11.000Z</time>
      </trkpt>
      <trkpt lat="48.65384" lon="-3.94134">
        <ele>11.16</ele>
        <time>2022-06-25T07:08:20.417Z</time>
      </trkpt>
      <trkpt lat="48.65386" lon="-3.9415">
        <ele>13.09</ele>
        <time>2022-06-25T07:08:29.856Z</time>
      </trkpt>
      <trkpt lat="48.65385" lon="-3.94167">
        <ele>12.09</ele>
        <time>2022-06-25T07:08:39.642Z</time>
      </trkpt>
      <trkpt lat="48.65386" lon="-3.9418">
        <ele>12.09</ele>
        <time>2022-06-25T07:08:49.000Z</time>
      </trkpt>
      <trkpt lat="48.65387" lon="-3.94197">
        <ele>13.08</ele>
        <time>2022-06-25T07:08:58.554Z</time>
      </trkpt>
      <trkpt lat="48.65387" lon="-3.94212">
        <ele>13.08</ele>
        <time>2022-06-25T07:09:08.140Z</time>
      </trkpt>
      <trkpt lat="48.65387" lon="-3.94224">
        <ele>14.08</ele>
        <time>2022-06-25T07:09:17.398Z</time>
      </trkpt>
      <trkpt lat="48.65385" lon="-3.94236">
        <ele>9.14</ele>
        <time>2022-06-25T07:09:26.774Z</time>
      </trkpt>
      <trkpt lat="48.65379" lon="-3.94249">
        <ele>16.08</ele>
        <time>2022-06-25T07:09:37.144Z</time>
      </trkpt>
      <trkpt lat="48.65374" lon="-3.94254">
        <ele>17.09</ele>
        <time>2022-06-25T07:09:46.359Z</time>
      </trkpt>
      <trkpt lat="48.65369" lon="-3.94258">
        <ele>18.84</ele>
        <time>2022-06-25T07:09:56.000Z</time>
      </trkpt>
      <trkpt lat="48.6536" lon="-3.94264">
        <ele>19.09</ele>
        <time>2022-06-25T07:10:05.240Z</time>
      </trkpt>
      <trkpt lat="48.65352" lon="-3.9427">
        <ele>20.09</ele>
        <time>2022-06-25T07:10:14.242Z</time>
      </trkpt>
      <trkpt lat="48.65345" lon="-3.94272">
        <ele>20.84</ele>
        <time>2022-06-25T07:10:23.562Z</time>
      </trkpt>
      <trkpt lat="48.65338" lon="-3.94273">
        <ele>21.09</ele>
        <time>2022-06-25T07:10:33.000Z</time>
      </trkpt>
      <trkpt lat="48.6533" lon="-3.9427">
        <ele>22.03</ele>
        <time>2022-06-25T07:10:42.540Z</time>
      </trkpt>
      <trkpt lat="48.6532" lon="-3.9427">
        <ele>22.09</ele>
        <time>2022-06-25T07:10:53.000Z</time>
      </trkpt>
      <trkpt lat="48.65311" lon="-3.94271">
        <ele>23.09</ele>
        <time>2022-06-25T07:11:03.000Z</time>
      </trkpt>
      <trkpt lat="48.65304" lon="-3.9427">
        <ele>23.09</ele>
        <time>2022-06-25T07:11:12.200Z</time>
      </trkpt>
      <trkpt lat="48.65296" lon="-3.94274">
        <ele>23.09</ele>
        <time>2022-06-25T07:11:21.476Z</time>
      </trkpt>
      <trkpt lat="48.65296" lon="-3.94279">
        <ele>24.08</ele>
        <time>2022-06-25T07:11:30.986Z</time>
      </trkpt>
      <trkpt lat="48.653" lon="-3.94293">
        <ele>23.84</ele>
        <time>2022-06-25T07:11:40.220Z</time>
      </trkpt>
      <trkpt lat="48.65306" lon="-3.94305">
        <ele>22.16</ele>
        <time>2022-06-25T07:11:50.000Z</time>
      </trkpt>
      <trkpt lat="48.65311" lon="-3.94312">
        <ele>22.09</ele>
        <time>2022-06-25T07:11:59.396Z</time>
      </trkpt>
      <trkpt lat="48.65317" lon="-3.94321">
        <ele>20.34</ele>
        <time>2022-06-25T07:12:08.599Z</time>
      </trkpt>
      <trkpt lat="48.65317" lon="-3.94333">
        <ele>19.11</ele>
        <time>2022-06-25T07:12:17.967Z</time>
      </trkpt>
      <trkpt lat="48.65316" lon="-3.94346">
        <ele>20.09</ele>
        <time>2022-06-25T07:12:27.000Z</time>
      </trkpt>
      <trkpt lat="48.65316" lon="-3.9436">
        <ele>20.09</ele>
        <time>2022-06-25T07:12:36.040Z</time>
      </trkpt>
      <trkpt lat="48.6532" lon="-3.94371">
        <ele>21.09</ele>
        <time>2022-06-25T07:12:46.000Z</time>
      </trkpt>
      <trkpt lat="48.65329" lon="-3.94376">
        <ele>21.09</ele>
        <time>2022-06-25T07:12:55.182Z</time>
      </trkpt>
      <trkpt lat="48.65331" lon="-3.94381">
        <ele>22.09</ele>
        <time>2022-06-25T07:13:05.000Z</time>
      </trkpt>
      <trkpt lat="48.65331" lon="-3.94391">
        <ele>23.03</ele>
        <time>2022-06-25T07:13:14.319Z</time>
      </trkpt>
      <trkpt lat="48.65328" lon="-3.94406">
        <ele>23.09</ele>
        <time>2022-06-25T07:13:23.600Z</time>
      </trkpt>
      <trkpt lat="48.65324" lon="-3.94418">
        <ele>22.09</ele>
        <time>2022-06-25T07:13:33.000Z</time>
      </trkpt>
      <trkpt lat="48.6532" lon="-3.94428">
        <ele>21.11</ele>
        <time>2022-06-25T07:13:42.158Z</time>
      </trkpt>
      <trkpt lat="48.65316" lon="-3.94439">
        <ele>21.09</ele>
        <time>2022-06-25T07:13:51.381Z</time>
      </trkpt>
      <trkpt lat="48.65311" lon="-3.94448">
        <ele>21.84</ele>
        <time>2022-06-25T07:14:02.000Z</time>
      </trkpt>
      <trkpt lat="48.65305" lon="-3.94457">
        <ele>22.03</ele>
        <time>2022-06-25T07:14:12.000Z</time>
      </trkpt>
      <trkpt lat="48.65295" lon="-3.94463">
        <ele>21.09</ele>
        <time>2022-06-25T07:14:21.601Z</time>
      </trkpt>
      <trkpt lat="48.65287" lon="-3.94466">
        <ele>22.09</ele>
        <time>2022-06-25T07:14:31.000Z</time>
      </trkpt>
      <trkpt lat="48.65282" lon="-3.94473">
        <ele>22.09</ele>
        <time>2022-06-25T07:14:40.741Z</time>
      </trkpt>
      <trkpt lat="48.65284" lon="-3.94489">
        <ele>20.1</ele>
        <time>2022-06-25T07:14:50.439Z</time>
      </trkpt>
      <trkpt lat="48.65285" lon="-3.94503">
        <ele>19.1</ele>
        <time>2022-06-25T07:15:00.083Z</time>
      </trkpt>
      <trkpt lat="48.65287" lon="-3.94517">
        <ele>18.09</ele>
        <time>2022-06-25T07:15:09.437Z</time>
      </trkpt>
      <trkpt lat="48.65288" lon="-3.9453">
        <ele>18.09</ele>
        <time>2022-06-25T07:15:19.000Z</time>
      </trkpt>
      <trkpt lat="48.65287" lon="-3.94536">
        <ele>17.09</ele>
        <time>2022-06-25T07:15:28.579Z</time>
      </trkpt>
      <trkpt lat="48.65283" lon="-3.94549">
        <ele>16.09</ele>
        <time>2022-06-25T07:15:38.000Z</time>
      </trkpt>
      <trkpt lat="48.65277" lon="-3.94557">
        <ele>16.09</ele>
        <time>2022-06-25T07:15:47.123Z</time>
      </trkpt>
      <trkpt lat="48.65271" lon="-3.94568">
        <ele>15.09</ele>
        <time>2022-06-25T07:15:56.319Z</time>
      </trkpt>
      <trkpt lat="48.65265" lon="-3.94577">
        <ele>15.09</ele>
        <time>2022-06-25T07:16:05.658Z</time>
      </trkpt>
      <trkpt lat="48.65259" lon="-3.94587">
        <ele>14.08</ele>
        <time>2022-06-25T07:16:15.543Z</time>
      </trkpt>
      <trkpt lat="48.65254" lon="-3.946">
        <ele>13.09</ele>
        <time>2022-06-25T07:16:25.180Z</time>
      </trkpt>
      <trkpt lat="48.65249" lon="-3.94611">
        <ele>12.09</ele>
        <time>2022-06-25T07:16:34.480Z</time>
      </trkpt>
      <trkpt lat="48.65244" lon="-3.94623">
        <ele>11.15</ele>
        <time>2022-06-25T07:16:44.000Z</time>
      </trkpt>
      <trkpt lat="48.6524" lon="-3.9464">
        <ele>10.09</ele>
        <time>2022-06-25T07:16:53.542Z</time>
      </trkpt>
      <trkpt lat="48.65236" lon="-3.94652">
        <ele>10.09</ele>
        <time>2022-06-25T07:17:03.159Z</time>
      </trkpt>
      <trkpt lat="48.65231" lon="-3.94663">
        <ele>9.09</ele>
        <time>2022-06-25T07:17:13.000Z</time>
      </trkpt>
      <trkpt lat="48.65226" lon="-3.94676">
        <ele>8.09</ele>
        <time>2022-06-25T07:17:22.099Z</time>
      </trkpt>
      <trkpt lat="48.65216" lon="-3.94683">
        <ele>7.09</ele>
        <time>2022-06-25T07:17:31.517Z</time>
      </trkpt>
      <trkpt lat="48.65206" lon="-3.94681">
        <ele>7.09</ele>
        <time>2022-06-25T07:17:41.000Z</time>
      </trkpt>
      <trkpt lat="48.65197" lon="-3.94683">
        <ele>8.03</ele>
        <time>2022-06-25T07:17:50.596Z</time>
      </trkpt>
      <trkpt lat="48.6519" lon="-3.94682">
        <ele>9.09</ele>
        <time>2022-06-25T07:18:00.499Z</time>
      </trkpt>
      <trkpt lat="48.65182" lon="-3.94684">
        <ele>8.15</ele>
        <time>2022-06-25T07:18:10.000Z</time>
      </trkpt>
      <trkpt lat="48.65174" lon="-3.94681">
        <ele>7.09</ele>
        <time>2022-06-25T07:18:19.520Z</time>
      </trkpt>
      <trkpt lat="48.65167" lon="-3.94683">
        <ele>8.09</ele>
        <time>2022-06-25T07:18:29.000Z</time>
      </trkpt>
      <trkpt lat="48.65159" lon="-3.94685">
        <ele>8.03</ele>
        <time>2022-06-25T07:18:38.320Z</time>
      </trkpt>
      <trkpt lat="48.65154" lon="-3.94688">
        <ele>9.03</ele>
        <time>2022-06-25T07:18:47.640Z</time>
      </trkpt>
      <trkpt lat="48.65148" lon="-3.94688">
        <ele>10.09</ele>
        <time>2022-06-25T07:18:58.000Z</time>
      </trkpt>
      <trkpt lat="48.65141" lon="-3.94691">
        <ele>10.09</ele>
        <time>2022-06-25T07:19:08.000Z</time>
      </trkpt>
      <trkpt lat="48.65132" lon="-3.94696">
        <ele>11.09</ele>
        <time>2022-06-25T07:19:17.623Z</time>
      </trkpt>
      <trkpt lat="48.65119" lon="-3.947">
        <ele>12.09</ele>
        <time>2022-06-25T07:19:27.621Z</time>
      </trkpt>
      <trkpt lat="48.6511" lon="-3.94701">
        <ele>13.09</ele>
        <time>2022-06-25T07:19:37.077Z</time>
      </trkpt>
      <trkpt lat="48.65101" lon="-3.94703">
        <ele>14.09</ele>
        <time>2022-06-25T07:19:46.559Z</time>
      </trkpt>
      <trkpt lat="48.65093" lon="-3.94703">
        <ele>15.09</ele>
        <time>2022-06-25T07:19:55.578Z</time>
      </trkpt>
      <trkpt lat="48.65085" lon="-3.94705">
        <ele>15.28</ele>
        <time>2022-06-25T07:20:05.000Z</time>
      </trkpt>
      <trkpt lat="48.65077" lon="-3.94706">
        <ele>16.04</ele>
        <time>2022-06-25T07:20:14.220Z</time>
      </trkpt>
      <trkpt lat="48.65071" lon="-3.94705">
        <ele>17.04</ele>
        <time>2022-06-25T07:20:23.660Z</time>
      </trkpt>
      <trkpt lat="48.65063" lon="-3.94705">
        <ele>18.07</ele>
        <time>2022-06-25T07:20:32.998Z</time>
      </trkpt>
      <trkpt lat="48.65055" lon="-3.94708">
        <ele>18.09</ele>
        <time>2022-06-25T07:20:42.078Z</time>
      </trkpt>
      <trkpt lat="48.65046" lon="-3.94707">
        <ele>19.09</ele>
        <time>2022-06-25T07:20:51.623Z</time>
      </trkpt>
      <trkpt lat="48.65039" lon="-3.94706">
        <ele>20.09</ele>
        <time>2022-06-25T07:21:01.057Z</time>
      </trkpt>
      <trkpt lat="48.65031" lon="-3.94703">
        <ele>19.09</ele>
        <time>2022-06-25T07:21:10.637Z</time>
      </trkpt>
      <trkpt lat="48.65023" lon="-3.94697">
        <ele>20.09</ele>
        <time>2022-06-25T07:21:20.079Z</time>
      </trkpt>
      <trkpt lat="48.65013" lon="-3.94695">
        <ele>31.89</ele>
        <time>2022-06-25T07:21:29.497Z</time>
      </trkpt>
      <trkpt lat="48.65004" lon="-3.94692">
        <ele>31.89</ele>
        <time>2022-06-25T07:21:39.000Z</time>
      </trkpt>
      <trkpt lat="48.64996" lon="-3.94688">
        <ele>31.89</ele>
        <time>2022-06-25T07:21:48.641Z</time>
      </trkpt>
      <trkpt lat="48.64989" lon="-3.94686">
        <ele>31.89</ele>
        <time>2022-06-25T07:21:58.000Z</time>
      </trkpt>
      <trkpt lat="48.64979" lon="-3.94681">
        <ele>26.04</ele>
        <time>2022-06-25T07:22:07.160Z</time>
      </trkpt>
      <trkpt lat="48.6497" lon="-3.94677">
        <ele>24.09</ele>
        <time>2022-06-25T07:22:16.484Z</time>
      </trkpt>
      <trkpt lat="48.64962" lon="-3.94674">
        <ele>24.09</ele>
        <time>2022-06-25T07:22:25.810Z</time>
      </trkpt>
      <trkpt lat="48.64953" lon="-3.94668">
        <ele>25.09</ele>
        <time>2022-06-25T07:22:35.238Z</time>
      </trkpt>
      <trkpt lat="48.64946" lon="-3.9466">
        <ele>25.09</ele>
        <time>2022-06-25T07:22:44.400Z</time>
      </trkpt>
      <trkpt lat="48.64938" lon="-3.94653">
        <ele>26.09</ele>
        <time>2022-06-25T07:22:53.521Z</time>
      </trkpt>
      <trkpt lat="48.64931" lon="-3.94648">
        <ele>26.09</ele>
        <time>2022-06-25T07:23:02.917Z</time>
      </trkpt>
      <trkpt lat="48.64922" lon="-3.94639">
        <ele>26.09</ele>
        <time>2022-06-25T07:23:12.116Z</time>
      </trkpt>
      <trkpt lat="48.64915" lon="-3.94632">
        <ele>26.09</ele>
        <time>2022-06-25T07:23:21.338Z</time>
      </trkpt>
      <trkpt lat="48.64907" lon="-3.94622">
        <ele>27.09</ele>
        <time>2022-06-25T07:23:30.421Z</time>
      </trkpt>
      <trkpt lat="48.64901" lon="-3.94616">
        <ele>28.34</ele>
        <time>2022-06-25T07:23:39.596Z</time>
      </trkpt>
      <trkpt lat="48.64891" lon="-3.94604">
        <ele>28.09</ele>
        <time>2022-06-25T07:23:49.556Z</time>
      </trkpt>
      <trkpt lat="48.64884" lon="-3.94593">
        <ele>54.68</ele>
        <time>2022-06-25T07:23:59.000Z</time>
      </trkpt>
      <trkpt lat="48.64876" lon="-3.94583">
        <ele>27.09</ele>
        <time>2022-06-25T07:24:08.016Z</time>
      </trkpt>
      <trkpt lat="48.64869" lon="-3.94573">
        <ele>26.15</ele>
        <time>2022-06-25T07:24:17.441Z</time>
      </trkpt>
      <trkpt lat="48.64862" lon="-3.94573">
        <ele>26.09</ele>
        <time>2022-06-25T07:24:27.000Z</time>
      </trkpt>
      <trkpt lat="48.64857" lon="-3.94579">
        <ele>27.09</ele>
        <time>2022-06-25T07:24:36.179Z</time>
      </trkpt>
      <trkpt lat="48.64848" lon="-3.94594">
        <ele>25.09</ele>
        <time>2022-06-25T07:24:45.917Z</time>
      </trkpt>
      <trkpt lat="48.64841" lon="-3.94604">
        <ele>24.09</ele>
        <time>2022-06-25T07:24:55.381Z</time>
      </trkpt>
      <trkpt lat="48.64833" lon="-3.94612">
        <ele>24.09</ele>
        <time>2022-06-25T07:25:04.536Z</time>
      </trkpt>
      <trkpt lat="48.64824" lon="-3.94621">
        <ele>23.09</ele>
        <time>2022-06-25T07:25:13.653Z</time>
      </trkpt>
      <trkpt lat="48.64817" lon="-3.9463">
        <ele>23.09</ele>
        <time>2022-06-25T07:25:23.358Z</time>
      </trkpt>
      <trkpt lat="48.64815" lon="-3.94634">
        <ele>22.15</ele>
        <time>2022-06-25T07:25:32.643Z</time>
      </trkpt>
      <trkpt lat="48.64814" lon="-3.94646">
        <ele>22.32</ele>
        <time>2022-06-25T07:25:42.000Z</time>
      </trkpt>
      <trkpt lat="48.6481" lon="-3.94661">
        <ele>20.15</ele>
        <time>2022-06-25T07:25:51.540Z</time>
      </trkpt>
      <trkpt lat="48.64805" lon="-3.94673">
        <ele>20.09</ele>
        <time>2022-06-25T07:26:00.596Z</time>
      </trkpt>
      <trkpt lat="48.64801" lon="-3.94686">
        <ele>18.9</ele>
        <time>2022-06-25T07:26:11.000Z</time>
      </trkpt>
      <trkpt lat="48.64795" lon="-3.94701">
        <ele>19.09</ele>
        <time>2022-06-25T07:26:20.499Z</time>
      </trkpt>
      <trkpt lat="48.64789" lon="-3.94713">
        <ele>17.34</ele>
        <time>2022-06-25T07:26:30.081Z</time>
      </trkpt>
      <trkpt lat="48.64784" lon="-3.94725">
        <ele>16.34</ele>
        <time>2022-06-25T07:26:39.581Z</time>
      </trkpt>
      <trkpt lat="48.64779" lon="-3.94739">
        <ele>17.09</ele>
        <time>2022-06-25T07:26:49.497Z</time>
      </trkpt>
      <trkpt lat="48.64772" lon="-3.94752">
        <ele>16.84</ele>
        <time>2022-06-25T07:27:00.000Z</time>
      </trkpt>
      <trkpt lat="48.64767" lon="-3.94765">
        <ele>15.09</ele>
        <time>2022-06-25T07:27:09.518Z</time>
      </trkpt>
      <trkpt lat="48.64762" lon="-3.94779">
        <ele>14.09</ele>
        <time>2022-06-25T07:27:19.000Z</time>
      </trkpt>
      <trkpt lat="48.64745" lon="-3.94786">
        <ele>14.19</ele>
        <time>2022-06-25T07:27:28.453Z</time>
      </trkpt>
      <trkpt lat="48.64747" lon="-3.94801">
        <ele>8.11</ele>
        <time>2022-06-25T07:27:37.530Z</time>
      </trkpt>
      <trkpt lat="48.64744" lon="-3.94817">
        <ele>6.09</ele>
        <time>2022-06-25T07:27:47.611Z</time>
      </trkpt>
      <trkpt lat="48.6474" lon="-3.94828">
        <ele>7.09</ele>
        <time>2022-06-25T07:27:56.613Z</time>
      </trkpt>
      <trkpt lat="48.64736" lon="-3.94838">
        <ele>14.18</ele>
        <time>2022-06-25T07:28:06.111Z</time>
      </trkpt>
      <trkpt lat="48.64733" lon="-3.94844">
        <ele>13.09</ele>
        <time>2022-06-25T07:28:16.000Z</time>
      </trkpt>
      <trkpt lat="48.64727" lon="-3.94861">
        <ele>13.09</ele>
        <time>2022-06-25T07:28:25.267Z</time>
      </trkpt>
      <trkpt lat="48.64723" lon="-3.94874">
        <ele>13.19</ele>
        <time>2022-06-25T07:28:34.350Z</time>
      </trkpt>
      <trkpt lat="48.64716" lon="-3.94894">
        <ele>13.09</ele>
        <time>2022-06-25T07:28:44.407Z</time>
      </trkpt>
      <trkpt lat="48.6471" lon="-3.94911">
        <ele>13.09</ele>
        <time>2022-06-25T07:28:53.491Z</time>
      </trkpt>
      <trkpt lat="48.64709" lon="-3.94927">
        <ele>13.09</ele>
        <time>2022-06-25T07:29:02.873Z</time>
      </trkpt>
      <trkpt lat="48.64709" lon="-3.94941">
        <ele>13.49</ele>
        <time>2022-06-25T07:29:12.451Z</time>
      </trkpt>
      <trkpt lat="48.64707" lon="-3.94955">
        <ele>14.19</ele>
        <time>2022-06-25T07:29:21.528Z</time>
      </trkpt>
      <trkpt lat="48.64706" lon="-3.94969">
        <ele>13.47</ele>
        <time>2022-06-25T07:29:31.472Z</time>
      </trkpt>
      <trkpt lat="48.64706" lon="-3.94989">
        <ele>14.19</ele>
        <time>2022-06-25T07:29:41.307Z</time>
      </trkpt>
      <trkpt lat="48.64705" lon="-3.95002">
        <ele>14.19</ele>
        <time>2022-06-25T07:29:50.852Z</time>
      </trkpt>
      <trkpt lat="48.64704" lon="-3.95014">
        <ele>14.19</ele>
        <time>2022-06-25T07:29:59.891Z</time>
      </trkpt>
      <trkpt lat="48.64704" lon="-3.95029">
        <ele>-1.9</ele>
        <time>2022-06-25T07:30:09.473Z</time>
      </trkpt>
      <trkpt lat="48.64703" lon="-3.95043">
        <ele>-1.91</ele>
        <time>2022-06-25T07:30:19.000Z</time>
      </trkpt>
      <trkpt lat="48.64699" lon="-3.95061">
        <ele>-1.91</ele>
        <time>2022-06-25T07:30:29.000Z</time>
      </trkpt>
      <trkpt lat="48.64688" lon="-3.95059">
        <ele>5.09</ele>
        <time>2022-06-25T07:30:38.499Z</time>
      </trkpt>
      <trkpt lat="48.64682" lon="-3.95048">
        <ele>7.09</ele>
        <time>2022-06-25T07:30:47.523Z</time>
      </trkpt>
      <trkpt lat="48.64672" lon="-3.95041">
        <ele>7.09</ele>
        <time>2022-06-25T07:30:57.413Z</time>
      </trkpt>
      <trkpt lat="48.64668" lon="-3.95034">
        <ele>7.09</ele>
        <time>2022-06-25T07:31:06.668Z</time>
      </trkpt>
      <trkpt lat="48.64658" lon="-3.95023">
        <ele>7.09</ele>
        <time>2022-06-25T07:31:16.071Z</time>
      </trkpt>
      <trkpt lat="48.64654" lon="-3.95016">
        <ele>9.25</ele>
        <time>2022-06-25T07:31:25.472Z</time>
      </trkpt>
      <trkpt lat="48.64648" lon="-3.95006">
        <ele>7.64</ele>
        <time>2022-06-25T07:31:35.000Z</time>
      </trkpt>
      <trkpt lat="48.64641" lon="-3.94996">
        <ele>9.28</ele>
        <time>2022-06-25T07:31:44.110Z</time>
      </trkpt>
      <trkpt lat="48.64635" lon="-3.94984">
        <ele>9.29</ele>
        <time>2022-06-25T07:31:53.585Z</time>
      </trkpt>
      <trkpt lat="48.64629" lon="-3.94975">
        <ele>9.29</ele>
        <time>2022-06-25T07:32:03.066Z</time>
      </trkpt>
      <trkpt lat="48.64625" lon="-3.94969">
        <ele>13.09</ele>
        <time>2022-06-25T07:32:12.130Z</time>
      </trkpt>
      <trkpt lat="48.6462" lon="-3.94955">
        <ele>13.09</ele>
        <time>2022-06-25T07:32:22.000Z</time>
      </trkpt>
      <trkpt lat="48.64615" lon="-3.94944">
        <ele>13.12</ele>
        <time>2022-06-25T07:32:32.000Z</time>
      </trkpt>
      <trkpt lat="48.64608" lon="-3.94927">
        <ele>13.59</ele>
        <time>2022-06-25T07:32:41.589Z</time>
      </trkpt>
      <trkpt lat="48.64602" lon="-3.94912">
        <ele>13.59</ele>
        <time>2022-06-25T07:32:51.232Z</time>
      </trkpt>
      <trkpt lat="48.64602" lon="-3.94904">
        <ele>13.59</ele>
        <time>2022-06-25T07:33:00.273Z</time>
      </trkpt>
      <trkpt lat="48.64596" lon="-3.94894">
        <ele>13.59</ele>
        <time>2022-06-25T07:33:09.288Z</time>
      </trkpt>
      <trkpt lat="48.64589" lon="-3.94879">
        <ele>13.59</ele>
        <time>2022-06-25T07:33:19.000Z</time>
      </trkpt>
      <trkpt lat="48.64584" lon="-3.94867">
        <ele>10.09</ele>
        <time>2022-06-25T07:33:29.000Z</time>
      </trkpt>
      <trkpt lat="48.6458" lon="-3.94855">
        <ele>13.58</ele>
        <time>2022-06-25T07:33:38.489Z</time>
      </trkpt>
      <trkpt lat="48.64575" lon="-3.9484">
        <ele>19.79</ele>
        <time>2022-06-25T07:33:47.953Z</time>
      </trkpt>
      <trkpt lat="48.64568" lon="-3.94827">
        <ele>19.79</ele>
        <time>2022-06-25T07:33:57.000Z</time>
      </trkpt>
      <trkpt lat="48.64562" lon="-3.94813">
        <ele>19.79</ele>
        <time>2022-06-25T07:34:06.171Z</time>
      </trkpt>
      <trkpt lat="48.64556" lon="-3.94797">
        <ele>19.69</ele>
        <time>2022-06-25T07:34:15.309Z</time>
      </trkpt>
      <trkpt lat="48.64552" lon="-3.94781">
        <ele>19.69</ele>
        <time>2022-06-25T07:34:24.409Z</time>
      </trkpt>
      <trkpt lat="48.64548" lon="-3.9477">
        <ele>19.69</ele>
        <time>2022-06-25T07:34:34.000Z</time>
      </trkpt>
      <trkpt lat="48.64545" lon="-3.94758">
        <ele>19.69</ele>
        <time>2022-06-25T07:34:43.250Z</time>
      </trkpt>
      <trkpt lat="48.64542" lon="-3.94749">
        <ele>19.69</ele>
        <time>2022-06-25T07:34:52.653Z</time>
      </trkpt>
      <trkpt lat="48.64533" lon="-3.94741">
        <ele>19.69</ele>
        <time>2022-06-25T07:35:01.669Z</time>
      </trkpt>
      <trkpt lat="48.64523" lon="-3.94746">
        <ele>19.69</ele>
        <time>2022-06-25T07:35:11.000Z</time>
      </trkpt>
      <trkpt lat="48.6452" lon="-3.94758">
        <ele>19.68</ele>
        <time>2022-06-25T07:35:21.033Z</time>
      </trkpt>
      <trkpt lat="48.64515" lon="-3.94771">
        <ele>19.68</ele>
        <time>2022-06-25T07:35:30.487Z</time>
      </trkpt>
      <trkpt lat="48.64515" lon="-3.94787">
        <ele>19.68</ele>
        <time>2022-06-25T07:35:41.168Z</time>
      </trkpt>
      <trkpt lat="48.64515" lon="-3.94799">
        <ele>19.68</ele>
        <time>2022-06-25T07:35:50.349Z</time>
      </trkpt>
      <trkpt lat="48.64514" lon="-3.94807">
        <ele>16.08</ele>
        <time>2022-06-25T07:36:00.000Z</time>
      </trkpt>
      <trkpt lat="48.64514" lon="-3.94809">
        <ele>16.08</ele>
        <time>2022-06-25T07:36:09.430Z</time>
      </trkpt>
      <trkpt lat="48.64509" lon="-3.94823">
        <ele>16.08</ele>
        <time>2022-06-25T07:36:19.000Z</time>
      </trkpt>
      <trkpt lat="48.64505" lon="-3.94841">
        <ele>16.33</ele>
        <time>2022-06-25T07:36:29.000Z</time>
      </trkpt>
      <trkpt lat="48.64504" lon="-3.94857">
        <ele>16.08</ele>
        <time>2022-06-25T07:36:38.166Z</time>
      </trkpt>
      <trkpt lat="48.64503" lon="-3.94875">
        <ele>16.08</ele>
        <time>2022-06-25T07:36:47.630Z</time>
      </trkpt>
      <trkpt lat="48.64502" lon="-3.9489">
        <ele>16.08</ele>
        <time>2022-06-25T07:36:56.648Z</time>
      </trkpt>
      <trkpt lat="48.64501" lon="-3.94906">
        <ele>16.08</ele>
        <time>2022-06-25T07:37:05.773Z</time>
      </trkpt>
      <trkpt lat="48.645" lon="-3.94921">
        <ele>16.08</ele>
        <time>2022-06-25T07:37:15.154Z</time>
      </trkpt>
      <trkpt lat="48.645" lon="-3.94937">
        <ele>16.08</ele>
        <time>2022-06-25T07:37:25.000Z</time>
      </trkpt>
      <trkpt lat="48.64498" lon="-3.94952">
        <ele>16.08</ele>
        <time>2022-06-25T07:37:34.153Z</time>
      </trkpt>
      <trkpt lat="48.64497" lon="-3.94965">
        <ele>16.08</ele>
        <time>2022-06-25T07:37:43.613Z</time>
      </trkpt>
      <trkpt lat="48.64497" lon="-3.9498">
        <ele>16.08</ele>
        <time>2022-06-25T07:37:53.000Z</time>
      </trkpt>
      <trkpt lat="48.64495" lon="-3.94998">
        <ele>13.13</ele>
        <time>2022-06-25T07:38:03.000Z</time>
      </trkpt>
      <trkpt lat="48.64493" lon="-3.95014">
        <ele>13.07</ele>
        <time>2022-06-25T07:38:13.000Z</time>
      </trkpt>
      <trkpt lat="48.64494" lon="-3.95031">
        <ele>13.08</ele>
        <time>2022-06-25T07:38:23.000Z</time>
      </trkpt>
      <trkpt lat="48.64494" lon="-3.95045">
        <ele>13.08</ele>
        <time>2022-06-25T07:38:33.000Z</time>
      </trkpt>
      <trkpt lat="48.64493" lon="-3.95058">
        <ele>13.08</ele>
        <time>2022-06-25T07:38:43.000Z</time>
      </trkpt>
      <trkpt lat="48.64492" lon="-3.95067">
        <ele>13.08</ele>
        <time>2022-06-25T07:38:52.192Z</time>
      </trkpt>
      <trkpt lat="48.64491" lon="-3.9508">
        <ele>13.08</ele>
        <time>2022-06-25T07:39:02.000Z</time>
      </trkpt>
      <trkpt lat="48.64489" lon="-3.95095">
        <ele>13.08</ele>
        <time>2022-06-25T07:39:11.372Z</time>
      </trkpt>
      <trkpt lat="48.64488" lon="-3.95094">
        <ele>13.08</ele>
        <time>2022-06-25T07:39:36.000Z</time>
      </trkpt>
      <trkpt lat="48.64487" lon="-3.95094">
        <ele>12.33</ele>
        <time>2022-06-25T07:40:01.000Z</time>
      </trkpt>
      <trkpt lat="48.64487" lon="-3.95096">
        <ele>14.07</ele>
        <time>2022-06-25T07:40:14.570Z</time>
      </trkpt>
      <trkpt lat="48.64486" lon="-3.95113">
        <ele>16.07</ele>
        <time>2022-06-25T07:40:24.472Z</time>
      </trkpt>
      <trkpt lat="48.64488" lon="-3.9513">
        <ele>17.08</ele>
        <time>2022-06-25T07:40:33.509Z</time>
      </trkpt>
      <trkpt lat="48.64487" lon="-3.95145">
        <ele>18.02</ele>
        <time>2022-06-25T07:40:43.000Z</time>
      </trkpt>
      <trkpt lat="48.64487" lon="-3.95157">
        <ele>18.08</ele>
        <time>2022-06-25T07:40:52.126Z</time>
      </trkpt>
      <trkpt lat="48.64487" lon="-3.95173">
        <ele>18.07</ele>
        <time>2022-06-25T07:41:02.185Z</time>
      </trkpt>
      <trkpt lat="48.64485" lon="-3.95188">
        <ele>16.9</ele>
        <time>2022-06-25T07:41:12.324Z</time>
      </trkpt>
      <trkpt lat="48.64485" lon="-3.95204">
        <ele>16.08</ele>
        <time>2022-06-25T07:41:22.000Z</time>
      </trkpt>
      <trkpt lat="48.64484" lon="-3.9522">
        <ele>16.08</ele>
        <time>2022-06-25T07:41:32.000Z</time>
      </trkpt>
      <trkpt lat="48.64483" lon="-3.95235">
        <ele>16.08</ele>
        <time>2022-06-25T07:41:41.148Z</time>
      </trkpt>
      <trkpt lat="48.64482" lon="-3.9525">
        <ele>15.08</ele>
        <time>2022-06-25T07:41:50.392Z</time>
      </trkpt>
      <trkpt lat="48.6448" lon="-3.95266">
        <ele>13.63</ele>
        <time>2022-06-25T07:42:00.000Z</time>
      </trkpt>
      <trkpt lat="48.64477" lon="-3.95284">
        <ele>10.08</ele>
        <time>2022-06-25T07:42:10.000Z</time>
      </trkpt>
      <trkpt lat="48.64478" lon="-3.95299">
        <ele>11.08</ele>
        <time>2022-06-25T07:42:19.430Z</time>
      </trkpt>
      <trkpt lat="48.64478" lon="-3.95313">
        <ele>9.08</ele>
        <time>2022-06-25T07:42:28.888Z</time>
      </trkpt>
      <trkpt lat="48.64477" lon="-3.9533">
        <ele>10.08</ele>
        <time>2022-06-25T07:42:38.386Z</time>
      </trkpt>
      <trkpt lat="48.64482" lon="-3.95348">
        <ele>11.08</ele>
        <time>2022-06-25T07:42:47.406Z</time>
      </trkpt>
      <trkpt lat="48.64487" lon="-3.9536">
        <ele>11.08</ele>
        <time>2022-06-25T07:42:56.455Z</time>
      </trkpt>
      <trkpt lat="48.64491" lon="-3.95372">
        <ele>11.08</ele>
        <time>2022-06-25T07:43:05.486Z</time>
      </trkpt>
      <trkpt lat="48.64498" lon="-3.95383">
        <ele>10.08</ele>
        <time>2022-06-25T07:43:14.591Z</time>
      </trkpt>
      <trkpt lat="48.64502" lon="-3.95392">
        <ele>10.09</ele>
        <time>2022-06-25T07:43:23.609Z</time>
      </trkpt>
      <trkpt lat="48.6451" lon="-3.95403">
        <ele>10.08</ele>
        <time>2022-06-25T07:43:33.173Z</time>
      </trkpt>
      <trkpt lat="48.64516" lon="-3.95416">
        <ele>9.08</ele>
        <time>2022-06-25T07:43:43.000Z</time>
      </trkpt>
      <trkpt lat="48.64521" lon="-3.95429">
        <ele>9.04</ele>
        <time>2022-06-25T07:43:52.290Z</time>
      </trkpt>
      <trkpt lat="48.64527" lon="-3.95437">
        <ele>8.08</ele>
        <time>2022-06-25T07:44:02.000Z</time>
      </trkpt>
      <trkpt lat="48.64533" lon="-3.95448">
        <ele>8.08</ele>
        <time>2022-06-25T07:44:11.071Z</time>
      </trkpt>
      <trkpt lat="48.64539" lon="-3.95458">
        <ele>7.1</ele>
        <time>2022-06-25T07:44:20.511Z</time>
      </trkpt>
      <trkpt lat="48.64546" lon="-3.95472">
        <ele>6.27</ele>
        <time>2022-06-25T07:44:30.053Z</time>
      </trkpt>
      <trkpt lat="48.64551" lon="-3.95483">
        <ele>6.08</ele>
        <time>2022-06-25T07:44:39.353Z</time>
      </trkpt>
      <trkpt lat="48.64559" lon="-3.95497">
        <ele>4.15</ele>
        <time>2022-06-25T07:44:48.639Z</time>
      </trkpt>
      <trkpt lat="48.64565" lon="-3.95505">
        <ele>4.33</ele>
        <time>2022-06-25T07:44:58.000Z</time>
      </trkpt>
      <trkpt lat="48.64569" lon="-3.95518">
        <ele>2.09</ele>
        <time>2022-06-25T07:45:07.328Z</time>
      </trkpt>
      <trkpt lat="48.64572" lon="-3.95527">
        <ele>2.08</ele>
        <time>2022-06-25T07:45:16.348Z</time>
      </trkpt>
      <trkpt lat="48.64576" lon="-3.95535">
        <ele>1.08</ele>
        <time>2022-06-25T07:45:25.354Z</time>
      </trkpt>
      <trkpt lat="48.64588" lon="-3.95545">
        <ele>0.1</ele>
        <time>2022-06-25T07:45:34.525Z</time>
      </trkpt>
      <trkpt lat="48.64596" lon="-3.95558">
        <ele>1.08</ele>
        <time>2022-06-25T07:45:44.000Z</time>
      </trkpt>
      <trkpt lat="48.64603" lon="-3.95569">
        <ele>1.33</ele>
        <time>2022-06-25T07:45:54.000Z</time>
      </trkpt>
      <trkpt lat="48.64614" lon="-3.95579">
        <ele>0.1</ele>
        <time>2022-06-25T07:46:03.112Z</time>
      </trkpt>
      <trkpt lat="48.64622" lon="-3.95592">
        <ele>-0.67</ele>
        <time>2022-06-25T07:46:13.000Z</time>
      </trkpt>
      <trkpt lat="48.64632" lon="-3.95602">
        <ele>-1.86</ele>
        <time>2022-06-25T07:46:22.510Z</time>
      </trkpt>
      <trkpt lat="48.64642" lon="-3.95609">
        <ele>0.07</ele>
        <time>2022-06-25T07:46:31.614Z</time>
      </trkpt>
      <trkpt lat="48.6465" lon="-3.95617">
        <ele>0.08</ele>
        <time>2022-06-25T07:46:41.000Z</time>
      </trkpt>
      <trkpt lat="48.64659" lon="-3.95626">
        <ele>0.08</ele>
        <time>2022-06-25T07:46:50.527Z</time>
      </trkpt>
      <trkpt lat="48.64669" lon="-3.95631">
        <ele>1.02</ele>
        <time>2022-06-25T07:47:00.000Z</time>
      </trkpt>
      <trkpt lat="48.6468" lon="-3.95638">
        <ele>-0.92</ele>
        <time>2022-06-25T07:47:09.126Z</time>
      </trkpt>
      <trkpt lat="48.64689" lon="-3.95637">
        <ele>0.08</ele>
        <time>2022-06-25T07:47:18.466Z</time>
      </trkpt>
      <trkpt lat="48.64693" lon="-3.95636">
        <ele>0.08</ele>
        <time>2022-06-25T07:47:28.090Z</time>
      </trkpt>
      <trkpt lat="48.64705" lon="-3.95636">
        <ele>-0.92</ele>
        <time>2022-06-25T07:47:37.489Z</time>
      </trkpt>
      <trkpt lat="48.64716" lon="-3.95642">
        <ele>0.85</ele>
        <time>2022-06-25T07:47:47.431Z</time>
      </trkpt>
      <trkpt lat="48.64725" lon="-3.95642">
        <ele>1.27</ele>
        <time>2022-06-25T07:47:56.987Z</time>
      </trkpt>
      <trkpt lat="48.64734" lon="-3.95644">
        <ele>-3.86</ele>
        <time>2022-06-25T07:48:06.107Z</time>
      </trkpt>
      <trkpt lat="48.64738" lon="-3.9565">
        <ele>-7.92</ele>
        <time>2022-06-25T07:48:16.000Z</time>
      </trkpt>
      <trkpt lat="48.64743" lon="-3.95654">
        <ele>-4.98</ele>
        <time>2022-06-25T07:48:26.000Z</time>
      </trkpt>
      <trkpt lat="48.64748" lon="-3.95666">
        <ele>-5.92</ele>
        <time>2022-06-25T07:48:35.635Z</time>
      </trkpt>
      <trkpt lat="48.64759" lon="-3.95676">
        <ele>-3.92</ele>
        <time>2022-06-25T07:48:44.948Z</time>
      </trkpt>
      <trkpt lat="48.64765" lon="-3.95687">
        <ele>-4.92</ele>
        <time>2022-06-25T07:48:54.148Z</time>
      </trkpt>
      <trkpt lat="48.6477" lon="-3.95697">
        <ele>-4.17</ele>
        <time>2022-06-25T07:49:03.409Z</time>
      </trkpt>
      <trkpt lat="48.64776" lon="-3.95711">
        <ele>-3.92</ele>
        <time>2022-06-25T07:49:12.610Z</time>
      </trkpt>
      <trkpt lat="48.6478" lon="-3.95727">
        <ele>-2.17</ele>
        <time>2022-06-25T07:49:22.000Z</time>
      </trkpt>
      <trkpt lat="48.64786" lon="-3.95741">
        <ele>-0.92</ele>
        <time>2022-06-25T07:49:32.000Z</time>
      </trkpt>
      <trkpt lat="48.6479" lon="-3.95755">
        <ele>-0.92</ele>
        <time>2022-06-25T07:49:41.253Z</time>
      </trkpt>
      <trkpt lat="48.64796" lon="-3.95766">
        <ele>0.08</ele>
        <time>2022-06-25T07:49:51.000Z</time>
      </trkpt>
      <trkpt lat="48.64803" lon="-3.95775">
        <ele>2.08</ele>
        <time>2022-06-25T07:50:00.131Z</time>
      </trkpt>
      <trkpt lat="48.64812" lon="-3.95782">
        <ele>3.83</ele>
        <time>2022-06-25T07:50:10.000Z</time>
      </trkpt>
      <trkpt lat="48.6482" lon="-3.95775">
        <ele>4.08</ele>
        <time>2022-06-25T07:50:19.388Z</time>
      </trkpt>
      <trkpt lat="48.64822" lon="-3.95769">
        <ele>3.08</ele>
        <time>2022-06-25T07:50:28.786Z</time>
      </trkpt>
      <trkpt lat="48.64824" lon="-3.95759">
        <ele>3.08</ele>
        <time>2022-06-25T07:50:38.234Z</time>
      </trkpt>
      <trkpt lat="48.64829" lon="-3.9575">
        <ele>3.08</ele>
        <time>2022-06-25T07:50:47.549Z</time>
      </trkpt>
      <trkpt lat="48.64834" lon="-3.95739">
        <ele>1.28</ele>
        <time>2022-06-25T07:50:56.729Z</time>
      </trkpt>
      <trkpt lat="48.6485" lon="-3.95738">
        <ele>-11.2</ele>
        <time>2022-06-25T07:51:06.683Z</time>
      </trkpt>
      <trkpt lat="48.64852" lon="-3.95707">
        <ele>-5.18</ele>
        <time>2022-06-25T07:51:16.527Z</time>
      </trkpt>
      <trkpt lat="48.64854" lon="-3.95695">
        <ele>-1.92</ele>
        <time>2022-06-25T07:51:26.000Z</time>
      </trkpt>
      <trkpt lat="48.6486" lon="-3.95679">
        <ele>-0.92</ele>
        <time>2022-06-25T07:51:35.147Z</time>
      </trkpt>
      <trkpt lat="48.64865" lon="-3.95663">
        <ele>0.09</ele>
        <time>2022-06-25T07:51:45.000Z</time>
      </trkpt>
      <trkpt lat="48.64866" lon="-3.95661">
        <ele>0.08</ele>
        <time>2022-06-25T07:51:55.000Z</time>
      </trkpt>
      <trkpt lat="48.64866" lon="-3.95659">
        <ele>-0.67</ele>
        <time>2022-06-25T07:52:05.000Z</time>
      </trkpt>
      <trkpt lat="48.64865" lon="-3.95657">
        <ele>0.08</ele>
        <time>2022-06-25T07:52:15.000Z</time>
      </trkpt>
      <trkpt lat="48.64866" lon="-3.95655">
        <ele>1.08</ele>
        <time>2022-06-25T07:52:26.000Z</time>
      </trkpt>
      <trkpt lat="48.64868" lon="-3.95656">
        <ele>0.33</ele>
        <time>2022-06-25T07:52:39.000Z</time>
      </trkpt>
      <trkpt lat="48.64867" lon="-3.95658">
        <ele>-0.92</ele>
        <time>2022-06-25T07:52:49.000Z</time>
      </trkpt>
      <trkpt lat="48.64867" lon="-3.95657">
        <ele>-0.17</ele>
        <time>2022-06-25T07:53:00.785Z</time>
      </trkpt>
      <trkpt lat="48.64872" lon="-3.95636">
        <ele>0.33</ele>
        <time>2022-06-25T07:53:09.983Z</time>
      </trkpt>
      <trkpt lat="48.64878" lon="-3.95625">
        <ele>1.09</ele>
        <time>2022-06-25T07:53:19.000Z</time>
      </trkpt>
      <trkpt lat="48.6488" lon="-3.95614">
        <ele>2.07</ele>
        <time>2022-06-25T07:53:28.203Z</time>
      </trkpt>
      <trkpt lat="48.64876" lon="-3.9561">
        <ele>4.08</ele>
        <time>2022-06-25T07:53:38.000Z</time>
      </trkpt>
      <trkpt lat="48.64876" lon="-3.95611">
        <ele>4.09</ele>
        <time>2022-06-25T07:53:54.000Z</time>
      </trkpt>
      <trkpt lat="48.64875" lon="-3.9561">
        <ele>4.09</ele>
        <time>2022-06-25T07:54:03.626Z</time>
      </trkpt>
      <trkpt lat="48.64875" lon="-3.95608">
        <ele>4.09</ele>
        <time>2022-06-25T07:54:14.000Z</time>
      </trkpt>
      <trkpt lat="48.64875" lon="-3.9561">
        <ele>4.15</ele>
        <time>2022-06-25T07:59:46.000Z</time>
      </trkpt>
      <trkpt lat="48.64876" lon="-3.9561">
        <ele>2.09</ele>
        <time>2022-06-25T08:06:44.000Z</time>
      </trkpt>
      <trkpt lat="48.64876" lon="-3.95611">
        <ele>3.09</ele>
        <time>2022-06-25T08:07:00.000Z</time>
      </trkpt>
      <trkpt lat="48.64877" lon="-3.95611">
        <ele>4.09</ele>
        <time>2022-06-25T08:08:24.000Z</time>
      </trkpt>
      <trkpt lat="48.64884" lon="-3.95623">
        <ele>4.84</ele>
        <time>2022-06-25T08:08:33.545Z</time>
      </trkpt>
      <trkpt lat="48.64892" lon="-3.95626">
        <ele>5.09</ele>
        <time>2022-06-25T08:08:43.446Z</time>
      </trkpt>
      <trkpt lat="48.64899" lon="-3.95629">
        <ele>4.15</ele>
        <time>2022-06-25T08:08:53.000Z</time>
      </trkpt>
      <trkpt lat="48.64907" lon="-3.95633">
        <ele>1.16</ele>
        <time>2022-06-25T08:09:02.462Z</time>
      </trkpt>
      <trkpt lat="48.64916" lon="-3.95641">
        <ele>2.02</ele>
        <time>2022-06-25T08:09:11.523Z</time>
      </trkpt>
      <trkpt lat="48.64921" lon="-3.95654">
        <ele>3.09</ele>
        <time>2022-06-25T08:09:20.561Z</time>
      </trkpt>
      <trkpt lat="48.64925" lon="-3.95668">
        <ele>3.08</ele>
        <time>2022-06-25T08:09:30.202Z</time>
      </trkpt>
      <trkpt lat="48.64929" lon="-3.95677">
        <ele>5.07</ele>
        <time>2022-06-25T08:09:39.346Z</time>
      </trkpt>
      <trkpt lat="48.64936" lon="-3.95689">
        <ele>7.07</ele>
        <time>2022-06-25T08:09:48.426Z</time>
      </trkpt>
      <trkpt lat="48.64943" lon="-3.95699">
        <ele>8.09</ele>
        <time>2022-06-25T08:09:58.027Z</time>
      </trkpt>
      <trkpt lat="48.64949" lon="-3.9571">
        <ele>8.09</ele>
        <time>2022-06-25T08:10:07.603Z</time>
      </trkpt>
      <trkpt lat="48.64953" lon="-3.95723">
        <ele>9.84</ele>
        <time>2022-06-25T08:10:17.163Z</time>
      </trkpt>
      <trkpt lat="48.64956" lon="-3.95736">
        <ele>10.09</ele>
        <time>2022-06-25T08:10:27.000Z</time>
      </trkpt>
      <trkpt lat="48.64958" lon="-3.95747">
        <ele>11.09</ele>
        <time>2022-06-25T08:10:36.245Z</time>
      </trkpt>
      <trkpt lat="48.64962" lon="-3.95755">
        <ele>10.09</ele>
        <time>2022-06-25T08:10:45.528Z</time>
      </trkpt>
      <trkpt lat="48.64972" lon="-3.95759">
        <ele>10.1</ele>
        <time>2022-06-25T08:10:54.627Z</time>
      </trkpt>
      <trkpt lat="48.64979" lon="-3.95765">
        <ele>10.09</ele>
        <time>2022-06-25T08:11:03.645Z</time>
      </trkpt>
      <trkpt lat="48.64986" lon="-3.95772">
        <ele>11.09</ele>
        <time>2022-06-25T08:11:13.064Z</time>
      </trkpt>
      <trkpt lat="48.64993" lon="-3.95779">
        <ele>10.09</ele>
        <time>2022-06-25T08:11:22.408Z</time>
      </trkpt>
      <trkpt lat="48.65002" lon="-3.95784">
        <ele>10.09</ele>
        <time>2022-06-25T08:11:32.000Z</time>
      </trkpt>
      <trkpt lat="48.65014" lon="-3.95783">
        <ele>10.09</ele>
        <time>2022-06-25T08:11:41.308Z</time>
      </trkpt>
      <trkpt lat="48.65024" lon="-3.95785">
        <ele>10.09</ele>
        <time>2022-06-25T08:11:50.563Z</time>
      </trkpt>
      <trkpt lat="48.65034" lon="-3.95786">
        <ele>10.09</ele>
        <time>2022-06-25T08:11:59.588Z</time>
      </trkpt>
      <trkpt lat="48.65042" lon="-3.95779">
        <ele>9.09</ele>
        <time>2022-06-25T08:12:08.604Z</time>
      </trkpt>
      <trkpt lat="48.65052" lon="-3.95773">
        <ele>9.85</ele>
        <time>2022-06-25T08:12:17.887Z</time>
      </trkpt>
      <trkpt lat="48.65063" lon="-3.95777">
        <ele>8.32</ele>
        <time>2022-06-25T08:12:27.421Z</time>
      </trkpt>
      <trkpt lat="48.65073" lon="-3.9578">
        <ele>9.09</ele>
        <time>2022-06-25T08:12:36.447Z</time>
      </trkpt>
      <trkpt lat="48.65083" lon="-3.95784">
        <ele>12.29</ele>
        <time>2022-06-25T08:12:46.488Z</time>
      </trkpt>
      <trkpt lat="48.65091" lon="-3.95786">
        <ele>12.29</ele>
        <time>2022-06-25T08:12:55.523Z</time>
      </trkpt>
      <trkpt lat="48.65092" lon="-3.95769">
        <ele>12.29</ele>
        <time>2022-06-25T08:13:05.000Z</time>
      </trkpt>
      <trkpt lat="48.65092" lon="-3.95758">
        <ele>12.29</ele>
        <time>2022-06-25T08:13:15.000Z</time>
      </trkpt>
      <trkpt lat="48.65089" lon="-3.95758">
        <ele>12.29</ele>
        <time>2022-06-25T08:13:24.347Z</time>
      </trkpt>
      <trkpt lat="48.65083" lon="-3.95753">
        <ele>12.29</ele>
        <time>2022-06-25T08:13:34.000Z</time>
      </trkpt>
      <trkpt lat="48.65084" lon="-3.95754">
        <ele>12.29</ele>
        <time>2022-06-25T08:13:44.000Z</time>
      </trkpt>
      <trkpt lat="48.65087" lon="-3.95757">
        <ele>10.34</ele>
        <time>2022-06-25T08:13:54.000Z</time>
      </trkpt>
      <trkpt lat="48.65087" lon="-3.95758">
        <ele>5.09</ele>
        <time>2022-06-25T08:14:04.000Z</time>
      </trkpt>
      <trkpt lat="48.65087" lon="-3.95763">
        <ele>4.84</ele>
        <time>2022-06-25T08:14:14.000Z</time>
      </trkpt>
      <trkpt lat="48.65087" lon="-3.95765">
        <ele>4.09</ele>
        <time>2022-06-25T08:14:23.405Z</time>
      </trkpt>
      <trkpt lat="48.65087" lon="-3.9576">
        <ele>6.07</ele>
        <time>2022-06-25T08:14:32.625Z</time>
      </trkpt>
      <trkpt lat="48.65089" lon="-3.95763">
        <ele>6.09</ele>
        <time>2022-06-25T08:14:42.183Z</time>
      </trkpt>
      <trkpt lat="48.65101" lon="-3.95764">
        <ele>7.09</ele>
        <time>2022-06-25T08:14:52.383Z</time>
      </trkpt>
      <trkpt lat="48.65111" lon="-3.95758">
        <ele>8.08</ele>
        <time>2022-06-25T08:15:01.607Z</time>
      </trkpt>
      <trkpt lat="48.65116" lon="-3.95754">
        <ele>9.09</ele>
        <time>2022-06-25T08:15:11.000Z</time>
      </trkpt>
      <trkpt lat="48.65127" lon="-3.95757">
        <ele>9.09</ele>
        <time>2022-06-25T08:15:20.587Z</time>
      </trkpt>
      <trkpt lat="48.65136" lon="-3.95757">
        <ele>10.26</ele>
        <time>2022-06-25T08:15:29.742Z</time>
      </trkpt>
      <trkpt lat="48.65144" lon="-3.95756">
        <ele>11.09</ele>
        <time>2022-06-25T08:15:39.000Z</time>
      </trkpt>
      <trkpt lat="48.65151" lon="-3.95765">
        <ele>12.09</ele>
        <time>2022-06-25T08:15:48.628Z</time>
      </trkpt>
      <trkpt lat="48.65152" lon="-3.95776">
        <ele>13.09</ele>
        <time>2022-06-25T08:15:58.427Z</time>
      </trkpt>
      <trkpt lat="48.65155" lon="-3.95789">
        <ele>12.15</ele>
        <time>2022-06-25T08:16:07.683Z</time>
      </trkpt>
      <trkpt lat="48.6516" lon="-3.95794">
        <ele>11.84</ele>
        <time>2022-06-25T08:16:16.883Z</time>
      </trkpt>
      <trkpt lat="48.6516" lon="-3.95807">
        <ele>12.15</ele>
        <time>2022-06-25T08:16:26.247Z</time>
      </trkpt>
      <trkpt lat="48.65163" lon="-3.95819">
        <ele>13.09</ele>
        <time>2022-06-25T08:16:35.484Z</time>
      </trkpt>
      <trkpt lat="48.65166" lon="-3.95826">
        <ele>9.34</ele>
        <time>2022-06-25T08:16:45.000Z</time>
      </trkpt>
      <trkpt lat="48.65168" lon="-3.95827">
        <ele>10.09</ele>
        <time>2022-06-25T08:16:55.000Z</time>
      </trkpt>
      <trkpt lat="48.65169" lon="-3.95838">
        <ele>12.02</ele>
        <time>2022-06-25T08:17:04.583Z</time>
      </trkpt>
      <trkpt lat="48.65171" lon="-3.95853">
        <ele>13.09</ele>
        <time>2022-06-25T08:17:13.902Z</time>
      </trkpt>
      <trkpt lat="48.65175" lon="-3.95861">
        <ele>14.29</ele>
        <time>2022-06-25T08:17:23.404Z</time>
      </trkpt>
      <trkpt lat="48.65184" lon="-3.95858">
        <ele>15.1</ele>
        <time>2022-06-25T08:17:32.883Z</time>
      </trkpt>
      <trkpt lat="48.65191" lon="-3.95853">
        <ele>16.09</ele>
        <time>2022-06-25T08:17:43.000Z</time>
      </trkpt>
      <trkpt lat="48.65196" lon="-3.95848">
        <ele>16.09</ele>
        <time>2022-06-25T08:17:53.000Z</time>
      </trkpt>
      <trkpt lat="48.65202" lon="-3.95844">
        <ele>16.08</ele>
        <time>2022-06-25T08:18:02.425Z</time>
      </trkpt>
      <trkpt lat="48.65211" lon="-3.95838">
        <ele>15.09</ele>
        <time>2022-06-25T08:18:12.000Z</time>
      </trkpt>
      <trkpt lat="48.65219" lon="-3.95833">
        <ele>15.09</ele>
        <time>2022-06-25T08:18:21.226Z</time>
      </trkpt>
      <trkpt lat="48.65228" lon="-3.95825">
        <ele>15.09</ele>
        <time>2022-06-25T08:18:30.646Z</time>
      </trkpt>
      <trkpt lat="48.65237" lon="-3.9582">
        <ele>17.08</ele>
        <time>2022-06-25T08:18:40.467Z</time>
      </trkpt>
      <trkpt lat="48.65247" lon="-3.95813">
        <ele>17.09</ele>
        <time>2022-06-25T08:18:50.000Z</time>
      </trkpt>
      <trkpt lat="48.65255" lon="-3.95807">
        <ele>17.09</ele>
        <time>2022-06-25T08:18:59.482Z</time>
      </trkpt>
      <trkpt lat="48.65263" lon="-3.958">
        <ele>18.09</ele>
        <time>2022-06-25T08:19:09.000Z</time>
      </trkpt>
      <trkpt lat="48.6527" lon="-3.95796">
        <ele>17.15</ele>
        <time>2022-06-25T08:19:18.364Z</time>
      </trkpt>
      <trkpt lat="48.65276" lon="-3.95789">
        <ele>18.09</ele>
        <time>2022-06-25T08:19:27.606Z</time>
      </trkpt>
      <trkpt lat="48.65285" lon="-3.95782">
        <ele>18.09</ele>
        <time>2022-06-25T08:19:36.845Z</time>
      </trkpt>
      <trkpt lat="48.65294" lon="-3.95775">
        <ele>18.84</ele>
        <time>2022-06-25T08:19:46.000Z</time>
      </trkpt>
      <trkpt lat="48.65302" lon="-3.95769">
        <ele>19.34</ele>
        <time>2022-06-25T08:19:55.047Z</time>
      </trkpt>
      <trkpt lat="48.65309" lon="-3.95764">
        <ele>10.69</ele>
        <time>2022-06-25T08:20:04.286Z</time>
      </trkpt>
      <trkpt lat="48.65317" lon="-3.95759">
        <ele>10.69</ele>
        <time>2022-06-25T08:20:13.645Z</time>
      </trkpt>
      <trkpt lat="48.65326" lon="-3.95749">
        <ele>10.69</ele>
        <time>2022-06-25T08:20:22.886Z</time>
      </trkpt>
      <trkpt lat="48.65335" lon="-3.95741">
        <ele>10.69</ele>
        <time>2022-06-25T08:20:32.101Z</time>
      </trkpt>
      <trkpt lat="48.65344" lon="-3.95737">
        <ele>10.69</ele>
        <time>2022-06-25T08:20:41.446Z</time>
      </trkpt>
      <trkpt lat="48.65353" lon="-3.95732">
        <ele>10.69</ele>
        <time>2022-06-25T08:20:51.000Z</time>
      </trkpt>
      <trkpt lat="48.65361" lon="-3.95724">
        <ele>10.69</ele>
        <time>2022-06-25T08:21:00.387Z</time>
      </trkpt>
      <trkpt lat="48.6537" lon="-3.95719">
        <ele>10.69</ele>
        <time>2022-06-25T08:21:10.000Z</time>
      </trkpt>
      <trkpt lat="48.65379" lon="-3.95715">
        <ele>10.69</ele>
        <time>2022-06-25T08:21:19.441Z</time>
      </trkpt>
      <trkpt lat="48.65387" lon="-3.95709">
        <ele>13.69</ele>
        <time>2022-06-25T08:21:28.945Z</time>
      </trkpt>
      <trkpt lat="48.65388" lon="-3.95705">
        <ele>25.08</ele>
        <time>2022-06-25T08:21:38.000Z</time>
      </trkpt>
      <trkpt lat="48.65389" lon="-3.95704">
        <ele>26.03</ele>
        <time>2022-06-25T08:22:01.000Z</time>
      </trkpt>
      <trkpt lat="48.65399" lon="-3.95699">
        <ele>10.69</ele>
        <time>2022-06-25T08:22:10.264Z</time>
      </trkpt>
      <trkpt lat="48.65408" lon="-3.9569">
        <ele>10.69</ele>
        <time>2022-06-25T08:22:19.267Z</time>
      </trkpt>
      <trkpt lat="48.65415" lon="-3.95682">
        <ele>10.69</ele>
        <time>2022-06-25T08:22:28.688Z</time>
      </trkpt>
      <trkpt lat="48.65425" lon="-3.95676">
        <ele>10.69</ele>
        <time>2022-06-25T08:22:38.307Z</time>
      </trkpt>
      <trkpt lat="48.65434" lon="-3.95668">
        <ele>10.69</ele>
        <time>2022-06-25T08:22:47.364Z</time>
      </trkpt>
      <trkpt lat="48.65443" lon="-3.95663">
        <ele>25.09</ele>
        <time>2022-06-25T08:22:56.423Z</time>
      </trkpt>
      <trkpt lat="48.65453" lon="-3.95657">
        <ele>7.49</ele>
        <time>2022-06-25T08:23:05.905Z</time>
      </trkpt>
      <trkpt lat="48.65463" lon="-3.9565">
        <ele>10.69</ele>
        <time>2022-06-25T08:23:15.345Z</time>
      </trkpt>
      <trkpt lat="48.65471" lon="-3.95647">
        <ele>10.69</ele>
        <time>2022-06-25T08:23:24.565Z</time>
      </trkpt>
      <trkpt lat="48.65478" lon="-3.95643">
        <ele>10.69</ele>
        <time>2022-06-25T08:23:34.000Z</time>
      </trkpt>
      <trkpt lat="48.65486" lon="-3.95634">
        <ele>10.69</ele>
        <time>2022-06-25T08:23:43.241Z</time>
      </trkpt>
      <trkpt lat="48.65491" lon="-3.95631">
        <ele>10.69</ele>
        <time>2022-06-25T08:23:52.666Z</time>
      </trkpt>
      <trkpt lat="48.65502" lon="-3.95624">
        <ele>20.09</ele>
        <time>2022-06-25T08:24:01.928Z</time>
      </trkpt>
      <trkpt lat="48.65511" lon="-3.95616">
        <ele>15</ele>
        <time>2022-06-25T08:24:11.000Z</time>
      </trkpt>
      <trkpt lat="48.65519" lon="-3.95612">
        <ele>7.49</ele>
        <time>2022-06-25T08:24:20.201Z</time>
      </trkpt>
      <trkpt lat="48.65529" lon="-3.95607">
        <ele>18.03</ele>
        <time>2022-06-25T08:24:30.000Z</time>
      </trkpt>
      <trkpt lat="48.6554" lon="-3.95601">
        <ele>18.09</ele>
        <time>2022-06-25T08:24:39.803Z</time>
      </trkpt>
      <trkpt lat="48.65549" lon="-3.95599">
        <ele>17.09</ele>
        <time>2022-06-25T08:24:49.059Z</time>
      </trkpt>
      <trkpt lat="48.65558" lon="-3.95597">
        <ele>17.09</ele>
        <time>2022-06-25T08:24:58.286Z</time>
      </trkpt>
      <trkpt lat="48.65568" lon="-3.956">
        <ele>17.09</ele>
        <time>2022-06-25T08:25:07.624Z</time>
      </trkpt>
      <trkpt lat="48.65577" lon="-3.95599">
        <ele>17.84</ele>
        <time>2022-06-25T08:25:17.487Z</time>
      </trkpt>
      <trkpt lat="48.65587" lon="-3.95595">
        <ele>18.09</ele>
        <time>2022-06-25T08:25:26.602Z</time>
      </trkpt>
      <trkpt lat="48.65596" lon="-3.95595">
        <ele>18.09</ele>
        <time>2022-06-25T08:25:36.000Z</time>
      </trkpt>
      <trkpt lat="48.65606" lon="-3.95595">
        <ele>19.03</ele>
        <time>2022-06-25T08:25:45.366Z</time>
      </trkpt>
      <trkpt lat="48.65614" lon="-3.95592">
        <ele>19.09</ele>
        <time>2022-06-25T08:25:54.424Z</time>
      </trkpt>
      <trkpt lat="48.65623" lon="-3.95589">
        <ele>20.11</ele>
        <time>2022-06-25T08:26:05.000Z</time>
      </trkpt>
      <trkpt lat="48.65622" lon="-3.95589">
        <ele>20.09</ele>
        <time>2022-06-25T08:26:15.000Z</time>
      </trkpt>
      <trkpt lat="48.65622" lon="-3.9559">
        <ele>21.34</ele>
        <time>2022-06-25T08:26:33.000Z</time>
      </trkpt>
      <trkpt lat="48.65632" lon="-3.95588">
        <ele>20.34</ele>
        <time>2022-06-25T08:26:42.245Z</time>
      </trkpt>
      <trkpt lat="48.6564" lon="-3.95582">
        <ele>20.15</ele>
        <time>2022-06-25T08:26:52.000Z</time>
      </trkpt>
      <trkpt lat="48.65649" lon="-3.95577">
        <ele>20.09</ele>
        <time>2022-06-25T08:27:01.186Z</time>
      </trkpt>
      <trkpt lat="48.65658" lon="-3.95572">
        <ele>20.09</ele>
        <time>2022-06-25T08:27:10.204Z</time>
      </trkpt>
      <trkpt lat="48.65667" lon="-3.95568">
        <ele>10.7</ele>
        <time>2022-06-25T08:27:19.262Z</time>
      </trkpt>
      <trkpt lat="48.65677" lon="-3.95561">
        <ele>7.49</ele>
        <time>2022-06-25T08:27:29.000Z</time>
      </trkpt>
      <trkpt lat="48.65688" lon="-3.95555">
        <ele>7.49</ele>
        <time>2022-06-25T08:27:39.000Z</time>
      </trkpt>
      <trkpt lat="48.65698" lon="-3.9555">
        <ele>7.49</ele>
        <time>2022-06-25T08:27:48.025Z</time>
      </trkpt>
      <trkpt lat="48.65707" lon="-3.95546">
        <ele>20.88</ele>
        <time>2022-06-25T08:27:57.582Z</time>
      </trkpt>
      <trkpt lat="48.65718" lon="-3.95541">
        <ele>21.09</ele>
        <time>2022-06-25T08:28:07.165Z</time>
      </trkpt>
      <trkpt lat="48.65727" lon="-3.95536">
        <ele>20.84</ele>
        <time>2022-06-25T08:28:17.000Z</time>
      </trkpt>
      <trkpt lat="48.65736" lon="-3.95529">
        <ele>21.09</ele>
        <time>2022-06-25T08:28:26.283Z</time>
      </trkpt>
      <trkpt lat="48.65744" lon="-3.95523">
        <ele>22.09</ele>
        <time>2022-06-25T08:28:35.324Z</time>
      </trkpt>
      <trkpt lat="48.65752" lon="-3.95519">
        <ele>15</ele>
        <time>2022-06-25T08:28:44.382Z</time>
      </trkpt>
      <trkpt lat="48.65762" lon="-3.95514">
        <ele>14.99</ele>
        <time>2022-06-25T08:28:53.527Z</time>
      </trkpt>
      <trkpt lat="48.65772" lon="-3.95507">
        <ele>7.89</ele>
        <time>2022-06-25T08:29:04.000Z</time>
      </trkpt>
      <trkpt lat="48.65781" lon="-3.95499">
        <ele>10.69</ele>
        <time>2022-06-25T08:29:13.365Z</time>
      </trkpt>
      <trkpt lat="48.65787" lon="-3.95491">
        <ele>13.12</ele>
        <time>2022-06-25T08:29:22.628Z</time>
      </trkpt>
      <trkpt lat="48.65786" lon="-3.9549">
        <ele>20.09</ele>
        <time>2022-06-25T08:29:36.000Z</time>
      </trkpt>
      <trkpt lat="48.65787" lon="-3.95489">
        <ele>21.09</ele>
        <time>2022-06-25T08:29:48.000Z</time>
      </trkpt>
      <trkpt lat="48.65793" lon="-3.95484">
        <ele>20.1</ele>
        <time>2022-06-25T08:29:57.399Z</time>
      </trkpt>
      <trkpt lat="48.65799" lon="-3.95477">
        <ele>7.49</ele>
        <time>2022-06-25T08:30:06.504Z</time>
      </trkpt>
      <trkpt lat="48.65802" lon="-3.95473">
        <ele>7.54</ele>
        <time>2022-06-25T08:30:16.000Z</time>
      </trkpt>
      <trkpt lat="48.65803" lon="-3.95472">
        <ele>15.07</ele>
        <time>2022-06-25T08:30:28.165Z</time>
      </trkpt>
      <trkpt lat="48.65811" lon="-3.95461">
        <ele>7.87</ele>
        <time>2022-06-25T08:30:38.000Z</time>
      </trkpt>
      <trkpt lat="48.65818" lon="-3.95452">
        <ele>8.27</ele>
        <time>2022-06-25T08:30:47.136Z</time>
      </trkpt>
      <trkpt lat="48.65826" lon="-3.95445">
        <ele>7.49</ele>
        <time>2022-06-25T08:30:57.000Z</time>
      </trkpt>
      <trkpt lat="48.65832" lon="-3.95438">
        <ele>17.34</ele>
        <time>2022-06-25T08:31:06.281Z</time>
      </trkpt>
      <trkpt lat="48.6584" lon="-3.95433">
        <ele>17.99</ele>
        <time>2022-06-25T08:31:15.325Z</time>
      </trkpt>
      <trkpt lat="48.6585" lon="-3.95429">
        <ele>17.99</ele>
        <time>2022-06-25T08:31:24.586Z</time>
      </trkpt>
      <trkpt lat="48.65857" lon="-3.95427">
        <ele>17.99</ele>
        <time>2022-06-25T08:31:34.404Z</time>
      </trkpt>
      <trkpt lat="48.65866" lon="-3.95424">
        <ele>17.99</ele>
        <time>2022-06-25T08:31:44.000Z</time>
      </trkpt>
      <trkpt lat="48.65877" lon="-3.95421">
        <ele>17.99</ele>
        <time>2022-06-25T08:31:53.604Z</time>
      </trkpt>
      <trkpt lat="48.65887" lon="-3.95421">
        <ele>17.99</ele>
        <time>2022-06-25T08:32:03.000Z</time>
      </trkpt>
      <trkpt lat="48.65899" lon="-3.95422">
        <ele>7.49</ele>
        <time>2022-06-25T08:32:12.520Z</time>
      </trkpt>
      <trkpt lat="48.65908" lon="-3.95423">
        <ele>18.13</ele>
        <time>2022-06-25T08:32:22.000Z</time>
      </trkpt>
      <trkpt lat="48.65918" lon="-3.95425">
        <ele>18.09</ele>
        <time>2022-06-25T08:32:31.500Z</time>
      </trkpt>
      <trkpt lat="48.65926" lon="-3.95424">
        <ele>7.64</ele>
        <time>2022-06-25T08:32:41.000Z</time>
      </trkpt>
      <trkpt lat="48.65925" lon="-3.95424">
        <ele>10.05</ele>
        <time>2022-06-25T08:32:51.000Z</time>
      </trkpt>
      <trkpt lat="48.65926" lon="-3.95424">
        <ele>17.93</ele>
        <time>2022-06-25T08:33:10.000Z</time>
      </trkpt>
      <trkpt lat="48.65933" lon="-3.95428">
        <ele>16.49</ele>
        <time>2022-06-25T08:33:19.626Z</time>
      </trkpt>
      <trkpt lat="48.65941" lon="-3.95432">
        <ele>7.49</ele>
        <time>2022-06-25T08:33:28.821Z</time>
      </trkpt>
      <trkpt lat="48.65949" lon="-3.95439">
        <ele>14.99</ele>
        <time>2022-06-25T08:33:38.584Z</time>
      </trkpt>
      <trkpt lat="48.65957" lon="-3.95447">
        <ele>7.49</ele>
        <time>2022-06-25T08:33:48.000Z</time>
      </trkpt>
      <trkpt lat="48.65965" lon="-3.95455">
        <ele>14.99</ele>
        <time>2022-06-25T08:33:57.100Z</time>
      </trkpt>
      <trkpt lat="48.65972" lon="-3.95459">
        <ele>14.99</ele>
        <time>2022-06-25T08:34:06.583Z</time>
      </trkpt>
      <trkpt lat="48.6598" lon="-3.95463">
        <ele>10.76</ele>
        <time>2022-06-25T08:34:16.087Z</time>
      </trkpt>
      <trkpt lat="48.65988" lon="-3.95468">
        <ele>7.69</ele>
        <time>2022-06-25T08:34:25.482Z</time>
      </trkpt>
      <trkpt lat="48.65998" lon="-3.95474">
        <ele>14.53</ele>
        <time>2022-06-25T08:34:35.000Z</time>
      </trkpt>
      <trkpt lat="48.66007" lon="-3.95477">
        <ele>14.99</ele>
        <time>2022-06-25T08:34:45.000Z</time>
      </trkpt>
      <trkpt lat="48.6601" lon="-3.95478">
        <ele>15</ele>
        <time>2022-06-25T08:34:54.628Z</time>
      </trkpt>
      <trkpt lat="48.6602" lon="-3.95481">
        <ele>14.99</ele>
        <time>2022-06-25T08:35:04.000Z</time>
      </trkpt>
      <trkpt lat="48.66029" lon="-3.95485">
        <ele>7.49</ele>
        <time>2022-06-25T08:35:13.080Z</time>
      </trkpt>
      <trkpt lat="48.66032" lon="-3.95487">
        <ele>14.53</ele>
        <time>2022-06-25T08:35:22.283Z</time>
      </trkpt>
      <trkpt lat="48.66041" lon="-3.95491">
        <ele>11.33</ele>
        <time>2022-06-25T08:35:32.207Z</time>
      </trkpt>
      <trkpt lat="48.66047" lon="-3.95495">
        <ele>14.99</ele>
        <time>2022-06-25T08:35:42.305Z</time>
      </trkpt>
      <trkpt lat="48.66056" lon="-3.95502">
        <ele>7.5</ele>
        <time>2022-06-25T08:35:51.884Z</time>
      </trkpt>
      <trkpt lat="48.66063" lon="-3.95506">
        <ele>7.49</ele>
        <time>2022-06-25T08:36:01.246Z</time>
      </trkpt>
      <trkpt lat="48.6607" lon="-3.95511">
        <ele>7.5</ele>
        <time>2022-06-25T08:36:10.406Z</time>
      </trkpt>
      <trkpt lat="48.66078" lon="-3.95518">
        <ele>7.5</ele>
        <time>2022-06-25T08:36:19.641Z</time>
      </trkpt>
      <trkpt lat="48.66086" lon="-3.95528">
        <ele>7.5</ele>
        <time>2022-06-25T08:36:28.661Z</time>
      </trkpt>
      <trkpt lat="48.6609" lon="-3.9553">
        <ele>23.07</ele>
        <time>2022-06-25T08:36:38.000Z</time>
      </trkpt>
      <trkpt lat="48.66095" lon="-3.95536">
        <ele>22.1</ele>
        <time>2022-06-25T08:36:48.000Z</time>
      </trkpt>
      <trkpt lat="48.66097" lon="-3.95535">
        <ele>22.1</ele>
        <time>2022-06-25T08:36:57.028Z</time>
      </trkpt>
      <trkpt lat="48.66101" lon="-3.95535">
        <ele>22.1</ele>
        <time>2022-06-25T08:37:06.584Z</time>
      </trkpt>
      <trkpt lat="48.66102" lon="-3.95535">
        <ele>22.1</ele>
        <time>2022-06-25T08:37:31.000Z</time>
      </trkpt>
      <trkpt lat="48.66111" lon="-3.95535">
        <ele>21.35</ele>
        <time>2022-06-25T08:37:41.000Z</time>
      </trkpt>
      <trkpt lat="48.6612" lon="-3.95538">
        <ele>21.1</ele>
        <time>2022-06-25T08:37:50.385Z</time>
      </trkpt>
      <trkpt lat="48.66128" lon="-3.95541">
        <ele>20.34</ele>
        <time>2022-06-25T08:38:00.527Z</time>
      </trkpt>
      <trkpt lat="48.66137" lon="-3.95534">
        <ele>21.1</ele>
        <time>2022-06-25T08:38:11.000Z</time>
      </trkpt>
      <trkpt lat="48.66143" lon="-3.9552">
        <ele>20.35</ele>
        <time>2022-06-25T08:38:20.385Z</time>
      </trkpt>
      <trkpt lat="48.66149" lon="-3.95512">
        <ele>20.1</ele>
        <time>2022-06-25T08:38:29.442Z</time>
      </trkpt>
      <trkpt lat="48.66157" lon="-3.9552">
        <ele>20.1</ele>
        <time>2022-06-25T08:38:38.586Z</time>
      </trkpt>
      <trkpt lat="48.66167" lon="-3.95527">
        <ele>10.21</ele>
        <time>2022-06-25T08:38:48.041Z</time>
      </trkpt>
      <trkpt lat="48.66175" lon="-3.95535">
        <ele>7.5</ele>
        <time>2022-06-25T08:38:57.486Z</time>
      </trkpt>
      <trkpt lat="48.66183" lon="-3.9554">
        <ele>14.99</ele>
        <time>2022-06-25T08:39:06.886Z</time>
      </trkpt>
      <trkpt lat="48.66191" lon="-3.95532">
        <ele>15</ele>
        <time>2022-06-25T08:39:16.000Z</time>
      </trkpt>
      <trkpt lat="48.66196" lon="-3.95518">
        <ele>7.5</ele>
        <time>2022-06-25T08:39:25.528Z</time>
      </trkpt>
      <trkpt lat="48.66201" lon="-3.95508">
        <ele>7.96</ele>
        <time>2022-06-25T08:39:35.000Z</time>
      </trkpt>
      <trkpt lat="48.66205" lon="-3.95502">
        <ele>14.53</ele>
        <time>2022-06-25T08:39:45.000Z</time>
      </trkpt>
      <trkpt lat="48.66205" lon="-3.95499">
        <ele>10.5</ele>
        <time>2022-06-25T08:39:54.445Z</time>
      </trkpt>
      <trkpt lat="48.66209" lon="-3.95485">
        <ele>7.5</ele>
        <time>2022-06-25T08:40:03.485Z</time>
      </trkpt>
      <trkpt lat="48.66213" lon="-3.95472">
        <ele>7.5</ele>
        <time>2022-06-25T08:40:12.622Z</time>
      </trkpt>
      <trkpt lat="48.66217" lon="-3.95458">
        <ele>7.5</ele>
        <time>2022-06-25T08:40:22.143Z</time>
      </trkpt>
      <trkpt lat="48.66224" lon="-3.9545">
        <ele>7.5</ele>
        <time>2022-06-25T08:40:31.585Z</time>
      </trkpt>
      <trkpt lat="48.66233" lon="-3.95457">
        <ele>7.5</ele>
        <time>2022-06-25T08:40:41.037Z</time>
      </trkpt>
      <trkpt lat="48.66239" lon="-3.95463">
        <ele>7.5</ele>
        <time>2022-06-25T08:40:50.519Z</time>
      </trkpt>
      <trkpt lat="48.6624" lon="-3.95463">
        <ele>7.5</ele>
        <time>2022-06-25T08:41:00.000Z</time>
      </trkpt>
      <trkpt lat="48.66249" lon="-3.95471">
        <ele>7.5</ele>
        <time>2022-06-25T08:41:09.284Z</time>
      </trkpt>
      <trkpt lat="48.66258" lon="-3.95475">
        <ele>14.08</ele>
        <time>2022-06-25T08:41:18.764Z</time>
      </trkpt>
      <trkpt lat="48.66266" lon="-3.95483">
        <ele>13.1</ele>
        <time>2022-06-25T08:41:28.000Z</time>
      </trkpt>
      <trkpt lat="48.66275" lon="-3.95488">
        <ele>13.1</ele>
        <time>2022-06-25T08:41:37.144Z</time>
      </trkpt>
      <trkpt lat="48.66283" lon="-3.95494">
        <ele>13.1</ele>
        <time>2022-06-25T08:41:46.584Z</time>
      </trkpt>
      <trkpt lat="48.66291" lon="-3.955">
        <ele>12.1</ele>
        <time>2022-06-25T08:41:56.000Z</time>
      </trkpt>
      <trkpt lat="48.663" lon="-3.95506">
        <ele>12.1</ele>
        <time>2022-06-25T08:42:05.363Z</time>
      </trkpt>
      <trkpt lat="48.66307" lon="-3.95512">
        <ele>12.1</ele>
        <time>2022-06-25T08:42:14.366Z</time>
      </trkpt>
      <trkpt lat="48.66316" lon="-3.95517">
        <ele>11.11</ele>
        <time>2022-06-25T08:42:23.522Z</time>
      </trkpt>
      <trkpt lat="48.66323" lon="-3.9552">
        <ele>12.1</ele>
        <time>2022-06-25T08:42:32.565Z</time>
      </trkpt>
      <trkpt lat="48.66332" lon="-3.95526">
        <ele>10.35</ele>
        <time>2022-06-25T08:42:42.144Z</time>
      </trkpt>
      <trkpt lat="48.6634" lon="-3.95533">
        <ele>10.1</ele>
        <time>2022-06-25T08:42:51.664Z</time>
      </trkpt>
      <trkpt lat="48.6635" lon="-3.95534">
        <ele>9.91</ele>
        <time>2022-06-25T08:43:01.269Z</time>
      </trkpt>
      <trkpt lat="48.6636" lon="-3.95539">
        <ele>9.1</ele>
        <time>2022-06-25T08:43:11.380Z</time>
      </trkpt>
      <trkpt lat="48.6637" lon="-3.95543">
        <ele>9.1</ele>
        <time>2022-06-25T08:43:21.541Z</time>
      </trkpt>
      <trkpt lat="48.66379" lon="-3.95549">
        <ele>9.1</ele>
        <time>2022-06-25T08:43:32.000Z</time>
      </trkpt>
      <trkpt lat="48.66387" lon="-3.95554">
        <ele>9.1</ele>
        <time>2022-06-25T08:43:41.045Z</time>
      </trkpt>
      <trkpt lat="48.66395" lon="-3.9556">
        <ele>9.1</ele>
        <time>2022-06-25T08:43:50.362Z</time>
      </trkpt>
      <trkpt lat="48.66404" lon="-3.95566">
        <ele>5.13</ele>
        <time>2022-06-25T08:44:00.000Z</time>
      </trkpt>
      <trkpt lat="48.66412" lon="-3.95561">
        <ele>6.84</ele>
        <time>2022-06-25T08:44:09.206Z</time>
      </trkpt>
      <trkpt lat="48.66416" lon="-3.9555">
        <ele>6.1</ele>
        <time>2022-06-25T08:44:19.000Z</time>
      </trkpt>
      <trkpt lat="48.66417" lon="-3.95552">
        <ele>6.1</ele>
        <time>2022-06-25T08:44:28.324Z</time>
      </trkpt>
      <trkpt lat="48.66421" lon="-3.95542">
        <ele>18.57</ele>
        <time>2022-06-25T08:44:37.484Z</time>
      </trkpt>
      <trkpt lat="48.66423" lon="-3.9554">
        <ele>7.86</ele>
        <time>2022-06-25T08:44:46.508Z</time>
      </trkpt>
      <trkpt lat="48.66427" lon="-3.95529">
        <ele>7.29</ele>
        <time>2022-06-25T08:44:56.081Z</time>
      </trkpt>
      <trkpt lat="48.66429" lon="-3.95516">
        <ele>7.1</ele>
        <time>2022-06-25T08:45:05.504Z</time>
      </trkpt>
      <trkpt lat="48.66433" lon="-3.95501">
        <ele>7.1</ele>
        <time>2022-06-25T08:45:15.526Z</time>
      </trkpt>
      <trkpt lat="48.6644" lon="-3.9549">
        <ele>7.85</ele>
        <time>2022-06-25T08:45:25.508Z</time>
      </trkpt>
      <trkpt lat="48.66444" lon="-3.95477">
        <ele>8.1</ele>
        <time>2022-06-25T08:45:35.000Z</time>
      </trkpt>
      <trkpt lat="48.66451" lon="-3.95467">
        <ele>6.35</ele>
        <time>2022-06-25T08:45:44.163Z</time>
      </trkpt>
      <trkpt lat="48.66457" lon="-3.95458">
        <ele>6.1</ele>
        <time>2022-06-25T08:45:53.307Z</time>
      </trkpt>
      <trkpt lat="48.66464" lon="-3.95449">
        <ele>7.1</ele>
        <time>2022-06-25T08:46:03.280Z</time>
      </trkpt>
      <trkpt lat="48.66473" lon="-3.95439">
        <ele>7.1</ele>
        <time>2022-06-25T08:46:13.367Z</time>
      </trkpt>
      <trkpt lat="48.6648" lon="-3.95429">
        <ele>6.1</ele>
        <time>2022-06-25T08:46:22.806Z</time>
      </trkpt>
      <trkpt lat="48.66487" lon="-3.95419">
        <ele>6.3</ele>
        <time>2022-06-25T08:46:32.246Z</time>
      </trkpt>
      <trkpt lat="48.66496" lon="-3.95417">
        <ele>6.35</ele>
        <time>2022-06-25T08:46:42.000Z</time>
      </trkpt>
      <trkpt lat="48.66506" lon="-3.95414">
        <ele>6.85</ele>
        <time>2022-06-25T08:46:51.162Z</time>
      </trkpt>
      <trkpt lat="48.66514" lon="-3.95421">
        <ele>6.34</ele>
        <time>2022-06-25T08:47:00.883Z</time>
      </trkpt>
      <trkpt lat="48.66516" lon="-3.95419">
        <ele>5.36</ele>
        <time>2022-06-25T08:47:10.000Z</time>
      </trkpt>
      <trkpt lat="48.66517" lon="-3.95423">
        <ele>6.09</ele>
        <time>2022-06-25T08:47:19.587Z</time>
      </trkpt>
      <trkpt lat="48.66521" lon="-3.95439">
        <ele>5.1</ele>
        <time>2022-06-25T08:47:29.000Z</time>
      </trkpt>
      <trkpt lat="48.66525" lon="-3.95449">
        <ele>6.1</ele>
        <time>2022-06-25T08:47:39.000Z</time>
      </trkpt>
      <trkpt lat="48.66532" lon="-3.95459">
        <ele>7.1</ele>
        <time>2022-06-25T08:47:48.025Z</time>
      </trkpt>
      <trkpt lat="48.6654" lon="-3.95469">
        <ele>8.1</ele>
        <time>2022-06-25T08:47:57.563Z</time>
      </trkpt>
      <trkpt lat="48.66548" lon="-3.95475">
        <ele>7.86</ele>
        <time>2022-06-25T08:48:06.625Z</time>
      </trkpt>
      <trkpt lat="48.66553" lon="-3.95482">
        <ele>7.91</ele>
        <time>2022-06-25T08:48:16.000Z</time>
      </trkpt>
      <trkpt lat="48.66557" lon="-3.95491">
        <ele>8.85</ele>
        <time>2022-06-25T08:48:25.161Z</time>
      </trkpt>
      <trkpt lat="48.66561" lon="-3.95503">
        <ele>8.1</ele>
        <time>2022-06-25T08:48:34.162Z</time>
      </trkpt>
      <trkpt lat="48.66562" lon="-3.95515">
        <ele>7.16</ele>
        <time>2022-06-25T08:48:43.183Z</time>
      </trkpt>
      <trkpt lat="48.66564" lon="-3.95531">
        <ele>6.04</ele>
        <time>2022-06-25T08:48:52.261Z</time>
      </trkpt>
      <trkpt lat="48.66567" lon="-3.95539">
        <ele>5.1</ele>
        <time>2022-06-25T08:49:01.340Z</time>
      </trkpt>
      <trkpt lat="48.66573" lon="-3.95548">
        <ele>6.1</ele>
        <time>2022-06-25T08:49:11.000Z</time>
      </trkpt>
      <trkpt lat="48.66575" lon="-3.95557">
        <ele>7.1</ele>
        <time>2022-06-25T08:49:21.000Z</time>
      </trkpt>
      <trkpt lat="48.66574" lon="-3.95556">
        <ele>7.1</ele>
        <time>2022-06-25T08:49:31.000Z</time>
      </trkpt>
      <trkpt lat="48.66574" lon="-3.95554">
        <ele>7.1</ele>
        <time>2022-06-25T08:49:41.000Z</time>
      </trkpt>
      <trkpt lat="48.66575" lon="-3.95556">
        <ele>8.04</ele>
        <time>2022-06-25T08:49:52.000Z</time>
      </trkpt>
      <trkpt lat="48.66579" lon="-3.9557">
        <ele>9.1</ele>
        <time>2022-06-25T08:50:01.441Z</time>
      </trkpt>
      <trkpt lat="48.66583" lon="-3.95583">
        <ele>10.1</ele>
        <time>2022-06-25T08:50:11.000Z</time>
      </trkpt>
      <trkpt lat="48.66587" lon="-3.95599">
        <ele>11.1</ele>
        <time>2022-06-25T08:50:20.521Z</time>
      </trkpt>
      <trkpt lat="48.66591" lon="-3.95611">
        <ele>11.1</ele>
        <time>2022-06-25T08:50:30.000Z</time>
      </trkpt>
      <trkpt lat="48.66597" lon="-3.95624">
        <ele>10.35</ele>
        <time>2022-06-25T08:50:39.018Z</time>
      </trkpt>
      <trkpt lat="48.66602" lon="-3.95634">
        <ele>11.08</ele>
        <time>2022-06-25T08:50:48.309Z</time>
      </trkpt>
      <trkpt lat="48.66607" lon="-3.95646">
        <ele>11.1</ele>
        <time>2022-06-25T08:50:57.541Z</time>
      </trkpt>
      <trkpt lat="48.66614" lon="-3.95658">
        <ele>11.1</ele>
        <time>2022-06-25T08:51:06.822Z</time>
      </trkpt>
      <trkpt lat="48.66618" lon="-3.9567">
        <ele>12.1</ele>
        <time>2022-06-25T08:51:15.943Z</time>
      </trkpt>
      <trkpt lat="48.66623" lon="-3.95682">
        <ele>12.1</ele>
        <time>2022-06-25T08:51:25.123Z</time>
      </trkpt>
      <trkpt lat="48.66627" lon="-3.95692">
        <ele>11.1</ele>
        <time>2022-06-25T08:51:34.203Z</time>
      </trkpt>
      <trkpt lat="48.66632" lon="-3.95704">
        <ele>11.1</ele>
        <time>2022-06-25T08:51:44.000Z</time>
      </trkpt>
      <trkpt lat="48.66638" lon="-3.95717">
        <ele>11.1</ele>
        <time>2022-06-25T08:51:53.245Z</time>
      </trkpt>
      <trkpt lat="48.66644" lon="-3.95728">
        <ele>12.08</ele>
        <time>2022-06-25T08:52:03.000Z</time>
      </trkpt>
      <trkpt lat="48.66649" lon="-3.95741">
        <ele>11.16</ele>
        <time>2022-06-25T08:52:12.406Z</time>
      </trkpt>
      <trkpt lat="48.66652" lon="-3.95754">
        <ele>13.08</ele>
        <time>2022-06-25T08:52:22.000Z</time>
      </trkpt>
      <trkpt lat="48.66657" lon="-3.95767">
        <ele>12.16</ele>
        <time>2022-06-25T08:52:31.264Z</time>
      </trkpt>
      <trkpt lat="48.66662" lon="-3.95779">
        <ele>13.1</ele>
        <time>2022-06-25T08:52:40.423Z</time>
      </trkpt>
      <trkpt lat="48.66664" lon="-3.95791">
        <ele>13.1</ele>
        <time>2022-06-25T08:52:49.487Z</time>
      </trkpt>
      <trkpt lat="48.66667" lon="-3.95804">
        <ele>13.1</ele>
        <time>2022-06-25T08:52:58.526Z</time>
      </trkpt>
      <trkpt lat="48.66672" lon="-3.95816">
        <ele>13.1</ele>
        <time>2022-06-25T08:53:07.542Z</time>
      </trkpt>
      <trkpt lat="48.66677" lon="-3.9583">
        <ele>12.1</ele>
        <time>2022-06-25T08:53:17.000Z</time>
      </trkpt>
      <trkpt lat="48.66682" lon="-3.95845">
        <ele>12.1</ele>
        <time>2022-06-25T08:53:26.646Z</time>
      </trkpt>
      <trkpt lat="48.6669" lon="-3.9585">
        <ele>11.1</ele>
        <time>2022-06-25T08:53:36.022Z</time>
      </trkpt>
      <trkpt lat="48.66699" lon="-3.95849">
        <ele>14.5</ele>
        <time>2022-06-25T08:53:45.307Z</time>
      </trkpt>
      <trkpt lat="48.66708" lon="-3.95853">
        <ele>14.5</ele>
        <time>2022-06-25T08:53:55.386Z</time>
      </trkpt>
      <trkpt lat="48.66716" lon="-3.95861">
        <ele>14.49</ele>
        <time>2022-06-25T08:54:04.547Z</time>
      </trkpt>
      <trkpt lat="48.66723" lon="-3.95863">
        <ele>13.97</ele>
        <time>2022-06-25T08:54:14.000Z</time>
      </trkpt>
      <trkpt lat="48.66733" lon="-3.95863">
        <ele>13.8</ele>
        <time>2022-06-25T08:54:23.325Z</time>
      </trkpt>
      <trkpt lat="48.66744" lon="-3.95863">
        <ele>13.8</ele>
        <time>2022-06-25T08:54:32.486Z</time>
      </trkpt>
      <trkpt lat="48.66752" lon="-3.95865">
        <ele>13.8</ele>
        <time>2022-06-25T08:54:41.675Z</time>
      </trkpt>
      <trkpt lat="48.66759" lon="-3.95867">
        <ele>13.11</ele>
        <time>2022-06-25T08:54:51.000Z</time>
      </trkpt>
      <trkpt lat="48.66767" lon="-3.95867">
        <ele>13.33</ele>
        <time>2022-06-25T08:55:00.103Z</time>
      </trkpt>
      <trkpt lat="48.66776" lon="-3.95868">
        <ele>14.1</ele>
        <time>2022-06-25T08:55:09.486Z</time>
      </trkpt>
      <trkpt lat="48.66786" lon="-3.9587">
        <ele>14.29</ele>
        <time>2022-06-25T08:55:18.802Z</time>
      </trkpt>
      <trkpt lat="48.66794" lon="-3.95874">
        <ele>15.1</ele>
        <time>2022-06-25T08:55:28.600Z</time>
      </trkpt>
      <trkpt lat="48.66805" lon="-3.95873">
        <ele>15.1</ele>
        <time>2022-06-25T08:55:38.583Z</time>
      </trkpt>
      <trkpt lat="48.66814" lon="-3.95872">
        <ele>15.35</ele>
        <time>2022-06-25T08:55:48.000Z</time>
      </trkpt>
      <trkpt lat="48.66823" lon="-3.95875">
        <ele>17.1</ele>
        <time>2022-06-25T08:55:57.568Z</time>
      </trkpt>
      <trkpt lat="48.66829" lon="-3.95877">
        <ele>16.12</ele>
        <time>2022-06-25T08:56:07.382Z</time>
      </trkpt>
      <trkpt lat="48.66837" lon="-3.95882">
        <ele>17.1</ele>
        <time>2022-06-25T08:56:17.000Z</time>
      </trkpt>
      <trkpt lat="48.66844" lon="-3.95893">
        <ele>-0.9</ele>
        <time>2022-06-25T08:56:26.564Z</time>
      </trkpt>
      <trkpt lat="48.66853" lon="-3.95892">
        <ele>13.26</ele>
        <time>2022-06-25T08:56:36.505Z</time>
      </trkpt>
      <trkpt lat="48.66862" lon="-3.95892">
        <ele>14.2</ele>
        <time>2022-06-25T08:56:46.185Z</time>
      </trkpt>
      <trkpt lat="48.66869" lon="-3.95893">
        <ele>14.2</ele>
        <time>2022-06-25T08:56:56.000Z</time>
      </trkpt>
      <trkpt lat="48.66877" lon="-3.95893">
        <ele>14.2</ele>
        <time>2022-06-25T08:57:05.023Z</time>
      </trkpt>
      <trkpt lat="48.66881" lon="-3.95891">
        <ele>14.2</ele>
        <time>2022-06-25T08:57:14.306Z</time>
      </trkpt>
      <trkpt lat="48.66886" lon="-3.95887">
        <ele>14.2</ele>
        <time>2022-06-25T08:57:24.000Z</time>
      </trkpt>
      <trkpt lat="48.66897" lon="-3.95883">
        <ele>14.2</ele>
        <time>2022-06-25T08:57:33.006Z</time>
      </trkpt>
      <trkpt lat="48.66903" lon="-3.95877">
        <ele>14.2</ele>
        <time>2022-06-25T08:57:43.000Z</time>
      </trkpt>
      <trkpt lat="48.66903" lon="-3.95872">
        <ele>14.2</ele>
        <time>2022-06-25T08:57:52.246Z</time>
      </trkpt>
      <trkpt lat="48.66903" lon="-3.95863">
        <ele>14.2</ele>
        <time>2022-06-25T08:58:01.607Z</time>
      </trkpt>
      <trkpt lat="48.66904" lon="-3.95852">
        <ele>15.1</ele>
        <time>2022-06-25T08:58:12.000Z</time>
      </trkpt>
      <trkpt lat="48.66905" lon="-3.95843">
        <ele>15.1</ele>
        <time>2022-06-25T08:58:21.343Z</time>
      </trkpt>
      <trkpt lat="48.66907" lon="-3.95833">
        <ele>17.04</ele>
        <time>2022-06-25T08:58:31.000Z</time>
      </trkpt>
      <trkpt lat="48.66909" lon="-3.9582">
        <ele>16.1</ele>
        <time>2022-06-25T08:58:40.107Z</time>
      </trkpt>
      <trkpt lat="48.66913" lon="-3.95809">
        <ele>16.1</ele>
        <time>2022-06-25T08:58:49.381Z</time>
      </trkpt>
      <trkpt lat="48.66918" lon="-3.95798">
        <ele>15.1</ele>
        <time>2022-06-25T08:58:59.000Z</time>
      </trkpt>
      <trkpt lat="48.66924" lon="-3.95789">
        <ele>14.1</ele>
        <time>2022-06-25T08:59:08.246Z</time>
      </trkpt>
      <trkpt lat="48.6693" lon="-3.9578">
        <ele>13.11</ele>
        <time>2022-06-25T08:59:18.000Z</time>
      </trkpt>
      <trkpt lat="48.66935" lon="-3.95772">
        <ele>13.1</ele>
        <time>2022-06-25T08:59:27.323Z</time>
      </trkpt>
      <trkpt lat="48.66937" lon="-3.95761">
        <ele>8.5</ele>
        <time>2022-06-25T08:59:36.420Z</time>
      </trkpt>
      <trkpt lat="48.66942" lon="-3.95751">
        <ele>8.5</ele>
        <time>2022-06-25T08:59:45.463Z</time>
      </trkpt>
      <trkpt lat="48.66946" lon="-3.95741">
        <ele>8.5</ele>
        <time>2022-06-25T08:59:55.463Z</time>
      </trkpt>
      <trkpt lat="48.66954" lon="-3.95731">
        <ele>8.5</ele>
        <time>2022-06-25T09:00:04.602Z</time>
      </trkpt>
      <trkpt lat="48.66963" lon="-3.95725">
        <ele>9.1</ele>
        <time>2022-06-25T09:00:14.424Z</time>
      </trkpt>
      <trkpt lat="48.66972" lon="-3.9572">
        <ele>9.1</ele>
        <time>2022-06-25T09:00:24.000Z</time>
      </trkpt>
      <trkpt lat="48.66978" lon="-3.95715">
        <ele>8.1</ele>
        <time>2022-06-25T09:00:34.000Z</time>
      </trkpt>
      <trkpt lat="48.66977" lon="-3.95715">
        <ele>8.1</ele>
        <time>2022-06-25T09:00:45.000Z</time>
      </trkpt>
      <trkpt lat="48.66973" lon="-3.95708">
        <ele>5.09</ele>
        <time>2022-06-25T09:00:55.000Z</time>
      </trkpt>
      <trkpt lat="48.66968" lon="-3.95704">
        <ele>6.1</ele>
        <time>2022-06-25T09:01:04.188Z</time>
      </trkpt>
      <trkpt lat="48.66968" lon="-3.95702">
        <ele>5.6</ele>
        <time>2022-06-25T09:01:22.000Z</time>
      </trkpt>
      <trkpt lat="48.66968" lon="-3.95704">
        <ele>5.1</ele>
        <time>2022-06-25T09:01:35.000Z</time>
      </trkpt>
      <trkpt lat="48.66969" lon="-3.95706">
        <ele>5.85</ele>
        <time>2022-06-25T09:05:58.000Z</time>
      </trkpt>
      <trkpt lat="48.66969" lon="-3.95707">
        <ele>3.41</ele>
        <time>2022-06-25T09:08:21.000Z</time>
      </trkpt>
      <trkpt lat="48.6697" lon="-3.95708">
        <ele>4.1</ele>
        <time>2022-06-25T09:08:36.000Z</time>
      </trkpt>
      <trkpt lat="48.66971" lon="-3.95709">
        <ele>3.1</ele>
        <time>2022-06-25T09:09:36.622Z</time>
      </trkpt>
      <trkpt lat="48.66976" lon="-3.9571">
        <ele>4.09</ele>
        <time>2022-06-25T09:09:46.067Z</time>
      </trkpt>
      <trkpt lat="48.66983" lon="-3.95719">
        <ele>4.1</ele>
        <time>2022-06-25T09:09:55.632Z</time>
      </trkpt>
      <trkpt lat="48.66991" lon="-3.95726">
        <ele>3.1</ele>
        <time>2022-06-25T09:10:05.101Z</time>
      </trkpt>
      <trkpt lat="48.67" lon="-3.95735">
        <ele>4.85</ele>
        <time>2022-06-25T09:10:15.166Z</time>
      </trkpt>
      <trkpt lat="48.67007" lon="-3.95742">
        <ele>5.1</ele>
        <time>2022-06-25T09:10:25.000Z</time>
      </trkpt>
      <trkpt lat="48.67013" lon="-3.95749">
        <ele>6.1</ele>
        <time>2022-06-25T09:10:34.066Z</time>
      </trkpt>
      <trkpt lat="48.67022" lon="-3.95761">
        <ele>6.11</ele>
        <time>2022-06-25T09:10:43.563Z</time>
      </trkpt>
      <trkpt lat="48.67027" lon="-3.95769">
        <ele>6.1</ele>
        <time>2022-06-25T09:10:53.043Z</time>
      </trkpt>
      <trkpt lat="48.67035" lon="-3.95772">
        <ele>6.1</ele>
        <time>2022-06-25T09:11:02.044Z</time>
      </trkpt>
      <trkpt lat="48.67044" lon="-3.95764">
        <ele>6.35</ele>
        <time>2022-06-25T09:11:11.501Z</time>
      </trkpt>
      <trkpt lat="48.6705" lon="-3.95753">
        <ele>6.11</ele>
        <time>2022-06-25T09:11:21.000Z</time>
      </trkpt>
      <trkpt lat="48.67055" lon="-3.95741">
        <ele>7.1</ele>
        <time>2022-06-25T09:11:30.141Z</time>
      </trkpt>
      <trkpt lat="48.67061" lon="-3.95729">
        <ele>7.09</ele>
        <time>2022-06-25T09:11:40.000Z</time>
      </trkpt>
      <trkpt lat="48.67065" lon="-3.95716">
        <ele>6.1</ele>
        <time>2022-06-25T09:11:49.031Z</time>
      </trkpt>
      <trkpt lat="48.67069" lon="-3.95707">
        <ele>5.1</ele>
        <time>2022-06-25T09:11:58.106Z</time>
      </trkpt>
      <trkpt lat="48.67073" lon="-3.95698">
        <ele>6.1</ele>
        <time>2022-06-25T09:12:07.243Z</time>
      </trkpt>
      <trkpt lat="48.67078" lon="-3.95685">
        <ele>5.17</ele>
        <time>2022-06-25T09:12:16.268Z</time>
      </trkpt>
      <trkpt lat="48.67083" lon="-3.95676">
        <ele>6.09</ele>
        <time>2022-06-25T09:12:25.325Z</time>
      </trkpt>
      <trkpt lat="48.67088" lon="-3.9566">
        <ele>5.1</ele>
        <time>2022-06-25T09:12:35.421Z</time>
      </trkpt>
      <trkpt lat="48.67092" lon="-3.95647">
        <ele>5.1</ele>
        <time>2022-06-25T09:12:44.527Z</time>
      </trkpt>
      <trkpt lat="48.67098" lon="-3.95636">
        <ele>5.1</ele>
        <time>2022-06-25T09:12:54.000Z</time>
      </trkpt>
      <trkpt lat="48.67101" lon="-3.95624">
        <ele>6.1</ele>
        <time>2022-06-25T09:13:03.266Z</time>
      </trkpt>
      <trkpt lat="48.67102" lon="-3.9561">
        <ele>5.15</ele>
        <time>2022-06-25T09:13:12.367Z</time>
      </trkpt>
      <trkpt lat="48.67104" lon="-3.95595">
        <ele>6.1</ele>
        <time>2022-06-25T09:13:21.464Z</time>
      </trkpt>
      <trkpt lat="48.67107" lon="-3.95582">
        <ele>5.1</ele>
        <time>2022-06-25T09:13:30.600Z</time>
      </trkpt>
      <trkpt lat="48.67109" lon="-3.95568">
        <ele>5.1</ele>
        <time>2022-06-25T09:13:39.665Z</time>
      </trkpt>
      <trkpt lat="48.67111" lon="-3.95554">
        <ele>5.1</ele>
        <time>2022-06-25T09:13:49.000Z</time>
      </trkpt>
      <trkpt lat="48.67114" lon="-3.95539">
        <ele>5.1</ele>
        <time>2022-06-25T09:13:59.000Z</time>
      </trkpt>
      <trkpt lat="48.67117" lon="-3.95525">
        <ele>5.87</ele>
        <time>2022-06-25T09:14:08.106Z</time>
      </trkpt>
      <trkpt lat="48.67119" lon="-3.95512">
        <ele>5.1</ele>
        <time>2022-06-25T09:14:18.000Z</time>
      </trkpt>
      <trkpt lat="48.67118" lon="-3.95497">
        <ele>5.1</ele>
        <time>2022-06-25T09:14:27.660Z</time>
      </trkpt>
      <trkpt lat="48.67117" lon="-3.95483">
        <ele>5.34</ele>
        <time>2022-06-25T09:14:37.000Z</time>
      </trkpt>
      <trkpt lat="48.67113" lon="-3.95469">
        <ele>5.34</ele>
        <time>2022-06-25T09:14:46.227Z</time>
      </trkpt>
      <trkpt lat="48.67111" lon="-3.95454">
        <ele>4.17</ele>
        <time>2022-06-25T09:14:55.267Z</time>
      </trkpt>
      <trkpt lat="48.67109" lon="-3.95442">
        <ele>3.21</ele>
        <time>2022-06-25T09:15:04.361Z</time>
      </trkpt>
      <trkpt lat="48.67108" lon="-3.95439">
        <ele>3.1</ele>
        <time>2022-06-25T09:15:14.000Z</time>
      </trkpt>
      <trkpt lat="48.67107" lon="-3.95429">
        <ele>15</ele>
        <time>2022-06-25T09:15:24.000Z</time>
      </trkpt>
      <trkpt lat="48.67103" lon="-3.95414">
        <ele>12.03</ele>
        <time>2022-06-25T09:15:33.407Z</time>
      </trkpt>
      <trkpt lat="48.67103" lon="-3.954">
        <ele>13.6</ele>
        <time>2022-06-25T09:15:42.564Z</time>
      </trkpt>
      <trkpt lat="48.67107" lon="-3.95389">
        <ele>13.6</ele>
        <time>2022-06-25T09:15:51.645Z</time>
      </trkpt>
      <trkpt lat="48.67114" lon="-3.95386">
        <ele>13.6</ele>
        <time>2022-06-25T09:16:00.924Z</time>
      </trkpt>
      <trkpt lat="48.67121" lon="-3.95374">
        <ele>15</ele>
        <time>2022-06-25T09:16:10.666Z</time>
      </trkpt>
      <trkpt lat="48.67127" lon="-3.95364">
        <ele>13.88</ele>
        <time>2022-06-25T09:16:20.082Z</time>
      </trkpt>
      <trkpt lat="48.67135" lon="-3.95356">
        <ele>15</ele>
        <time>2022-06-25T09:16:29.449Z</time>
      </trkpt>
      <trkpt lat="48.67143" lon="-3.95344">
        <ele>15</ele>
        <time>2022-06-25T09:16:38.967Z</time>
      </trkpt>
      <trkpt lat="48.6715" lon="-3.95337">
        <ele>14.5</ele>
        <time>2022-06-25T09:16:48.406Z</time>
      </trkpt>
      <trkpt lat="48.67158" lon="-3.95326">
        <ele>9.7</ele>
        <time>2022-06-25T09:16:57.805Z</time>
      </trkpt>
      <trkpt lat="48.67164" lon="-3.95318">
        <ele>9.7</ele>
        <time>2022-06-25T09:17:07.000Z</time>
      </trkpt>
      <trkpt lat="48.67171" lon="-3.95308">
        <ele>9.7</ele>
        <time>2022-06-25T09:17:16.182Z</time>
      </trkpt>
      <trkpt lat="48.67181" lon="-3.9531">
        <ele>9.7</ele>
        <time>2022-06-25T09:17:26.000Z</time>
      </trkpt>
      <trkpt lat="48.67181" lon="-3.95311">
        <ele>9.7</ele>
        <time>2022-06-25T09:17:36.428Z</time>
      </trkpt>
      <trkpt lat="48.67193" lon="-3.95322">
        <ele>9.7</ele>
        <time>2022-06-25T09:17:46.386Z</time>
      </trkpt>
      <trkpt lat="48.67204" lon="-3.95326">
        <ele>9.7</ele>
        <time>2022-06-25T09:17:55.960Z</time>
      </trkpt>
      <trkpt lat="48.67214" lon="-3.95328">
        <ele>9.7</ele>
        <time>2022-06-25T09:18:05.328Z</time>
      </trkpt>
      <trkpt lat="48.67222" lon="-3.95332">
        <ele>9.7</ele>
        <time>2022-06-25T09:18:14.644Z</time>
      </trkpt>
      <trkpt lat="48.67232" lon="-3.95335">
        <ele>4.1</ele>
        <time>2022-06-25T09:18:23.945Z</time>
      </trkpt>
      <trkpt lat="48.67243" lon="-3.95336">
        <ele>4.1</ele>
        <time>2022-06-25T09:18:33.000Z</time>
      </trkpt>
      <trkpt lat="48.6725" lon="-3.95335">
        <ele>5.11</ele>
        <time>2022-06-25T09:18:42.444Z</time>
      </trkpt>
      <trkpt lat="48.6726" lon="-3.95333">
        <ele>5.11</ele>
        <time>2022-06-25T09:18:51.947Z</time>
      </trkpt>
      <trkpt lat="48.67268" lon="-3.95332">
        <ele>4.36</ele>
        <time>2022-06-25T09:19:01.123Z</time>
      </trkpt>
      <trkpt lat="48.67277" lon="-3.95332">
        <ele>6.1</ele>
        <time>2022-06-25T09:19:10.326Z</time>
      </trkpt>
      <trkpt lat="48.67288" lon="-3.95331">
        <ele>5.11</ele>
        <time>2022-06-25T09:19:19.621Z</time>
      </trkpt>
      <trkpt lat="48.67298" lon="-3.95331">
        <ele>5.11</ele>
        <time>2022-06-25T09:19:28.925Z</time>
      </trkpt>
      <trkpt lat="48.67309" lon="-3.9533">
        <ele>5.36</ele>
        <time>2022-06-25T09:19:38.129Z</time>
      </trkpt>
      <trkpt lat="48.67317" lon="-3.9533">
        <ele>6.11</ele>
        <time>2022-06-25T09:19:47.583Z</time>
      </trkpt>
      <trkpt lat="48.67322" lon="-3.95328">
        <ele>6.1</ele>
        <time>2022-06-25T09:19:57.000Z</time>
      </trkpt>
      <trkpt lat="48.67324" lon="-3.95334">
        <ele>5.11</ele>
        <time>2022-06-25T09:20:06.034Z</time>
      </trkpt>
      <trkpt lat="48.6733" lon="-3.95347">
        <ele>5.11</ele>
        <time>2022-06-25T09:20:15.206Z</time>
      </trkpt>
      <trkpt lat="48.67336" lon="-3.95357">
        <ele>4.11</ele>
        <time>2022-06-25T09:20:24.567Z</time>
      </trkpt>
      <trkpt lat="48.67342" lon="-3.95364">
        <ele>5.11</ele>
        <time>2022-06-25T09:20:34.501Z</time>
      </trkpt>
      <trkpt lat="48.6735" lon="-3.95374">
        <ele>4.86</ele>
        <time>2022-06-25T09:20:44.000Z</time>
      </trkpt>
      <trkpt lat="48.67355" lon="-3.95386">
        <ele>4.11</ele>
        <time>2022-06-25T09:20:53.144Z</time>
      </trkpt>
      <trkpt lat="48.67362" lon="-3.95393">
        <ele>4.11</ele>
        <time>2022-06-25T09:21:02.421Z</time>
      </trkpt>
      <trkpt lat="48.67371" lon="-3.95397">
        <ele>5.04</ele>
        <time>2022-06-25T09:21:11.921Z</time>
      </trkpt>
      <trkpt lat="48.67378" lon="-3.95403">
        <ele>4.36</ele>
        <time>2022-06-25T09:21:21.000Z</time>
      </trkpt>
      <trkpt lat="48.67385" lon="-3.95409">
        <ele>4.34</ele>
        <time>2022-06-25T09:21:30.423Z</time>
      </trkpt>
      <trkpt lat="48.67393" lon="-3.9541">
        <ele>4.11</ele>
        <time>2022-06-25T09:21:39.564Z</time>
      </trkpt>
      <trkpt lat="48.67401" lon="-3.95405">
        <ele>3.36</ele>
        <time>2022-06-25T09:21:49.000Z</time>
      </trkpt>
      <trkpt lat="48.67412" lon="-3.95404">
        <ele>3.86</ele>
        <time>2022-06-25T09:21:59.000Z</time>
      </trkpt>
      <trkpt lat="48.6742" lon="-3.95403">
        <ele>3.11</ele>
        <time>2022-06-25T09:22:08.167Z</time>
      </trkpt>
      <trkpt lat="48.67428" lon="-3.954">
        <ele>3.11</ele>
        <time>2022-06-25T09:22:17.622Z</time>
      </trkpt>
      <trkpt lat="48.67436" lon="-3.95395">
        <ele>3.11</ele>
        <time>2022-06-25T09:22:27.046Z</time>
      </trkpt>
      <trkpt lat="48.67447" lon="-3.95392">
        <ele>3.11</ele>
        <time>2022-06-25T09:22:36.303Z</time>
      </trkpt>
      <trkpt lat="48.67454" lon="-3.95381">
        <ele>2.11</ele>
        <time>2022-06-25T09:22:46.000Z</time>
      </trkpt>
      <trkpt lat="48.67454" lon="-3.95379">
        <ele>1.73</ele>
        <time>2022-06-25T09:23:02.000Z</time>
      </trkpt>
      <trkpt lat="48.67454" lon="-3.95381">
        <ele>2.11</ele>
        <time>2022-06-25T09:23:12.000Z</time>
      </trkpt>
      <trkpt lat="48.67454" lon="-3.95379">
        <ele>3.04</ele>
        <time>2022-06-25T09:23:24.000Z</time>
      </trkpt>
      <trkpt lat="48.67456" lon="-3.95369">
        <ele>-0.62</ele>
        <time>2022-06-25T09:23:33.161Z</time>
      </trkpt>
      <trkpt lat="48.6746" lon="-3.95359">
        <ele>2.04</ele>
        <time>2022-06-25T09:23:42.402Z</time>
      </trkpt>
      <trkpt lat="48.67461" lon="-3.95356">
        <ele>1.11</ele>
        <time>2022-06-25T09:23:52.000Z</time>
      </trkpt>
      <trkpt lat="48.67461" lon="-3.95356">
        <ele>3.09</ele>
        <time>2022-06-25T09:24:08.000Z</time>
      </trkpt>
      <trkpt lat="48.67462" lon="-3.95357">
        <ele>3.11</ele>
        <time>2022-06-25T09:24:18.000Z</time>
      </trkpt>
      <trkpt lat="48.67462" lon="-3.95358">
        <ele>2.12</ele>
        <time>2022-06-25T09:25:45.000Z</time>
      </trkpt>
      <trkpt lat="48.67463" lon="-3.95359">
        <ele>3.11</ele>
        <time>2022-06-25T09:26:30.303Z</time>
      </trkpt>
      <trkpt lat="48.67463" lon="-3.95358">
        <ele>3.11</ele>
        <time>2022-06-25T09:27:16.000Z</time>
      </trkpt>
      <trkpt lat="48.67464" lon="-3.95356">
        <ele>3.11</ele>
        <time>2022-06-25T09:27:29.502Z</time>
      </trkpt>
      <trkpt lat="48.67471" lon="-3.95347">
        <ele>3.11</ele>
        <time>2022-06-25T09:27:39.000Z</time>
      </trkpt>
      <trkpt lat="48.67477" lon="-3.95334">
        <ele>3.11</ele>
        <time>2022-06-25T09:27:48.383Z</time>
      </trkpt>
      <trkpt lat="48.67483" lon="-3.95341">
        <ele>5.11</ele>
        <time>2022-06-25T09:27:58.486Z</time>
      </trkpt>
      <trkpt lat="48.67486" lon="-3.95342">
        <ele>5.11</ele>
        <time>2022-06-25T09:28:07.662Z</time>
      </trkpt>
      <trkpt lat="48.67495" lon="-3.95346">
        <ele>5.11</ele>
        <time>2022-06-25T09:28:17.245Z</time>
      </trkpt>
      <trkpt lat="48.67501" lon="-3.95353">
        <ele>5.11</ele>
        <time>2022-06-25T09:28:26.286Z</time>
      </trkpt>
      <trkpt lat="48.67511" lon="-3.95351">
        <ele>6.1</ele>
        <time>2022-06-25T09:28:36.000Z</time>
      </trkpt>
      <trkpt lat="48.67521" lon="-3.95352">
        <ele>7.11</ele>
        <time>2022-06-25T09:28:45.162Z</time>
      </trkpt>
      <trkpt lat="48.6753" lon="-3.95353">
        <ele>8.11</ele>
        <time>2022-06-25T09:28:54.603Z</time>
      </trkpt>
      <trkpt lat="48.67533" lon="-3.95363">
        <ele>7.11</ele>
        <time>2022-06-25T09:29:03.844Z</time>
      </trkpt>
      <trkpt lat="48.67543" lon="-3.95365">
        <ele>6.34</ele>
        <time>2022-06-25T09:29:12.986Z</time>
      </trkpt>
      <trkpt lat="48.67551" lon="-3.95371">
        <ele>6.17</ele>
        <time>2022-06-25T09:29:23.000Z</time>
      </trkpt>
      <trkpt lat="48.67549" lon="-3.95385">
        <ele>5.11</ele>
        <time>2022-06-25T09:29:32.328Z</time>
      </trkpt>
      <trkpt lat="48.6754" lon="-3.95388">
        <ele>5.11</ele>
        <time>2022-06-25T09:29:41.808Z</time>
      </trkpt>
      <trkpt lat="48.67534" lon="-3.95388">
        <ele>4.11</ele>
        <time>2022-06-25T09:29:51.000Z</time>
      </trkpt>
      <trkpt lat="48.67527" lon="-3.95395">
        <ele>4.12</ele>
        <time>2022-06-25T09:30:01.000Z</time>
      </trkpt>
      <trkpt lat="48.67521" lon="-3.95402">
        <ele>5.11</ele>
        <time>2022-06-25T09:30:10.146Z</time>
      </trkpt>
      <trkpt lat="48.67517" lon="-3.95407">
        <ele>5.11</ele>
        <time>2022-06-25T09:30:19.163Z</time>
      </trkpt>
      <trkpt lat="48.67514" lon="-3.95424">
        <ele>4.11</ele>
        <time>2022-06-25T09:30:29.000Z</time>
      </trkpt>
      <trkpt lat="48.67509" lon="-3.9544">
        <ele>4.17</ele>
        <time>2022-06-25T09:30:38.322Z</time>
      </trkpt>
      <trkpt lat="48.67508" lon="-3.95454">
        <ele>4.11</ele>
        <time>2022-06-25T09:30:48.000Z</time>
      </trkpt>
      <trkpt lat="48.6751" lon="-3.95468">
        <ele>3.17</ele>
        <time>2022-06-25T09:30:57.142Z</time>
      </trkpt>
      <trkpt lat="48.67509" lon="-3.95482">
        <ele>3.11</ele>
        <time>2022-06-25T09:31:07.000Z</time>
      </trkpt>
      <trkpt lat="48.67503" lon="-3.95497">
        <ele>3.11</ele>
        <time>2022-06-25T09:31:16.421Z</time>
      </trkpt>
      <trkpt lat="48.67492" lon="-3.95503">
        <ele>3.11</ele>
        <time>2022-06-25T09:31:25.780Z</time>
      </trkpt>
      <trkpt lat="48.67483" lon="-3.95497">
        <ele>2.12</ele>
        <time>2022-06-25T09:31:35.000Z</time>
      </trkpt>
      <trkpt lat="48.67474" lon="-3.95497">
        <ele>3.11</ele>
        <time>2022-06-25T09:31:44.105Z</time>
      </trkpt>
      <trkpt lat="48.67465" lon="-3.95499">
        <ele>3.11</ele>
        <time>2022-06-25T09:31:53.147Z</time>
      </trkpt>
      <trkpt lat="48.67457" lon="-3.955">
        <ele>3.11</ele>
        <time>2022-06-25T09:32:03.000Z</time>
      </trkpt>
      <trkpt lat="48.67449" lon="-3.95508">
        <ele>2.11</ele>
        <time>2022-06-25T09:32:12.126Z</time>
      </trkpt>
      <trkpt lat="48.67439" lon="-3.95512">
        <ele>3.11</ele>
        <time>2022-06-25T09:32:21.648Z</time>
      </trkpt>
      <trkpt lat="48.67428" lon="-3.95511">
        <ele>3.11</ele>
        <time>2022-06-25T09:32:31.208Z</time>
      </trkpt>
      <trkpt lat="48.67421" lon="-3.95512">
        <ele>3.11</ele>
        <time>2022-06-25T09:32:40.242Z</time>
      </trkpt>
      <trkpt lat="48.67414" lon="-3.95516">
        <ele>2.86</ele>
        <time>2022-06-25T09:32:50.000Z</time>
      </trkpt>
      <trkpt lat="48.67409" lon="-3.95527">
        <ele>3.11</ele>
        <time>2022-06-25T09:33:00.000Z</time>
      </trkpt>
      <trkpt lat="48.67401" lon="-3.95533">
        <ele>3.11</ele>
        <time>2022-06-25T09:33:09.406Z</time>
      </trkpt>
      <trkpt lat="48.67394" lon="-3.95537">
        <ele>3.11</ele>
        <time>2022-06-25T09:33:18.964Z</time>
      </trkpt>
      <trkpt lat="48.67386" lon="-3.95541">
        <ele>2.11</ele>
        <time>2022-06-25T09:33:28.000Z</time>
      </trkpt>
      <trkpt lat="48.67377" lon="-3.95546">
        <ele>2.11</ele>
        <time>2022-06-25T09:33:37.167Z</time>
      </trkpt>
      <trkpt lat="48.67367" lon="-3.95548">
        <ele>2.11</ele>
        <time>2022-06-25T09:33:47.000Z</time>
      </trkpt>
      <trkpt lat="48.67357" lon="-3.95548">
        <ele>3.1</ele>
        <time>2022-06-25T09:33:56.406Z</time>
      </trkpt>
      <trkpt lat="48.6735" lon="-3.95551">
        <ele>4.04</ele>
        <time>2022-06-25T09:34:05.420Z</time>
      </trkpt>
      <trkpt lat="48.67348" lon="-3.95551">
        <ele>4.11</ele>
        <time>2022-06-25T09:34:15.000Z</time>
      </trkpt>
      <trkpt lat="48.67343" lon="-3.95555">
        <ele>4.11</ele>
        <time>2022-06-25T09:34:24.248Z</time>
      </trkpt>
      <trkpt lat="48.67338" lon="-3.95565">
        <ele>3.11</ele>
        <time>2022-06-25T09:34:33.486Z</time>
      </trkpt>
      <trkpt lat="48.67331" lon="-3.95573">
        <ele>4.11</ele>
        <time>2022-06-25T09:34:43.000Z</time>
      </trkpt>
      <trkpt lat="48.67324" lon="-3.95581">
        <ele>4.1</ele>
        <time>2022-06-25T09:34:52.507Z</time>
      </trkpt>
      <trkpt lat="48.67316" lon="-3.95591">
        <ele>4.1</ele>
        <time>2022-06-25T09:35:02.000Z</time>
      </trkpt>
      <trkpt lat="48.67308" lon="-3.95599">
        <ele>4.1</ele>
        <time>2022-06-25T09:35:11.602Z</time>
      </trkpt>
      <trkpt lat="48.67304" lon="-3.95601">
        <ele>4.1</ele>
        <time>2022-06-25T09:35:21.000Z</time>
      </trkpt>
      <trkpt lat="48.67299" lon="-3.95611">
        <ele>5.1</ele>
        <time>2022-06-25T09:35:30.246Z</time>
      </trkpt>
      <trkpt lat="48.67301" lon="-3.95623">
        <ele>5.92</ele>
        <time>2022-06-25T09:35:40.000Z</time>
      </trkpt>
      <trkpt lat="48.67304" lon="-3.95638">
        <ele>5.1</ele>
        <time>2022-06-25T09:35:49.343Z</time>
      </trkpt>
      <trkpt lat="48.67306" lon="-3.95653">
        <ele>5.1</ele>
        <time>2022-06-25T09:35:58.942Z</time>
      </trkpt>
      <trkpt lat="48.67306" lon="-3.95659">
        <ele>5.1</ele>
        <time>2022-06-25T09:36:08.485Z</time>
      </trkpt>
      <trkpt lat="48.67307" lon="-3.95671">
        <ele>5.1</ele>
        <time>2022-06-25T09:36:17.924Z</time>
      </trkpt>
      <trkpt lat="48.67306" lon="-3.95683">
        <ele>5.1</ele>
        <time>2022-06-25T09:36:27.000Z</time>
      </trkpt>
      <trkpt lat="48.67304" lon="-3.95694">
        <ele>19.4</ele>
        <time>2022-06-25T09:36:37.000Z</time>
      </trkpt>
      <trkpt lat="48.67304" lon="-3.95706">
        <ele>19.4</ele>
        <time>2022-06-25T09:36:46.185Z</time>
      </trkpt>
      <trkpt lat="48.67304" lon="-3.95718">
        <ele>19.4</ele>
        <time>2022-06-25T09:36:55.209Z</time>
      </trkpt>
      <trkpt lat="48.67305" lon="-3.95732">
        <ele>19.4</ele>
        <time>2022-06-25T09:37:04.304Z</time>
      </trkpt>
      <trkpt lat="48.67306" lon="-3.95746">
        <ele>19.4</ele>
        <time>2022-06-25T09:37:13.369Z</time>
      </trkpt>
      <trkpt lat="48.67307" lon="-3.95758">
        <ele>19.4</ele>
        <time>2022-06-25T09:37:22.465Z</time>
      </trkpt>
      <trkpt lat="48.67309" lon="-3.95768">
        <ele>19.4</ele>
        <time>2022-06-25T09:37:31.523Z</time>
      </trkpt>
      <trkpt lat="48.6731" lon="-3.95782">
        <ele>19.4</ele>
        <time>2022-06-25T09:37:40.985Z</time>
      </trkpt>
      <trkpt lat="48.67313" lon="-3.95796">
        <ele>19.4</ele>
        <time>2022-06-25T09:37:50.403Z</time>
      </trkpt>
      <trkpt lat="48.67315" lon="-3.95808">
        <ele>19.4</ele>
        <time>2022-06-25T09:37:59.485Z</time>
      </trkpt>
      <trkpt lat="48.67318" lon="-3.95821">
        <ele>6.1</ele>
        <time>2022-06-25T09:38:08.622Z</time>
      </trkpt>
      <trkpt lat="48.67319" lon="-3.95829">
        <ele>6.1</ele>
        <time>2022-06-25T09:38:18.000Z</time>
      </trkpt>
      <trkpt lat="48.67321" lon="-3.95841">
        <ele>5.86</ele>
        <time>2022-06-25T09:38:27.165Z</time>
      </trkpt>
      <trkpt lat="48.67325" lon="-3.95854">
        <ele>6.1</ele>
        <time>2022-06-25T09:38:36.468Z</time>
      </trkpt>
      <trkpt lat="48.67326" lon="-3.9587">
        <ele>5.17</ele>
        <time>2022-06-25T09:38:45.542Z</time>
      </trkpt>
      <trkpt lat="48.67329" lon="-3.95883">
        <ele>5.11</ele>
        <time>2022-06-25T09:38:55.000Z</time>
      </trkpt>
      <trkpt lat="48.6733" lon="-3.95901">
        <ele>4.1</ele>
        <time>2022-06-25T09:39:04.222Z</time>
      </trkpt>
      <trkpt lat="48.67333" lon="-3.95915">
        <ele>4.1</ele>
        <time>2022-06-25T09:39:13.287Z</time>
      </trkpt>
      <trkpt lat="48.67336" lon="-3.95929">
        <ele>5.1</ele>
        <time>2022-06-25T09:39:23.000Z</time>
      </trkpt>
      <trkpt lat="48.67339" lon="-3.95943">
        <ele>13</ele>
        <time>2022-06-25T09:39:33.000Z</time>
      </trkpt>
      <trkpt lat="48.67342" lon="-3.95955">
        <ele>3.12</ele>
        <time>2022-06-25T09:39:42.487Z</time>
      </trkpt>
      <trkpt lat="48.67347" lon="-3.9597">
        <ele>4.1</ele>
        <time>2022-06-25T09:39:52.509Z</time>
      </trkpt>
      <trkpt lat="48.6735" lon="-3.95985">
        <ele>4.1</ele>
        <time>2022-06-25T09:40:02.021Z</time>
      </trkpt>
      <trkpt lat="48.67355" lon="-3.95997">
        <ele>4.24</ele>
        <time>2022-06-25T09:40:11.442Z</time>
      </trkpt>
      <trkpt lat="48.67358" lon="-3.96011">
        <ele>4.1</ele>
        <time>2022-06-25T09:40:20.887Z</time>
      </trkpt>
      <trkpt lat="48.67363" lon="-3.96023">
        <ele>4.85</ele>
        <time>2022-06-25T09:40:30.045Z</time>
      </trkpt>
      <trkpt lat="48.67367" lon="-3.96036">
        <ele>5.1</ele>
        <time>2022-06-25T09:40:39.407Z</time>
      </trkpt>
      <trkpt lat="48.67367" lon="-3.96038">
        <ele>5.1</ele>
        <time>2022-06-25T09:40:53.000Z</time>
      </trkpt>
      <trkpt lat="48.67371" lon="-3.96053">
        <ele>5.1</ele>
        <time>2022-06-25T09:41:02.263Z</time>
      </trkpt>
      <trkpt lat="48.67375" lon="-3.96065">
        <ele>5.35</ele>
        <time>2022-06-25T09:41:11.906Z</time>
      </trkpt>
      <trkpt lat="48.67379" lon="-3.96077">
        <ele>10.79</ele>
        <time>2022-06-25T09:41:21.466Z</time>
      </trkpt>
      <trkpt lat="48.67382" lon="-3.96092">
        <ele>4.1</ele>
        <time>2022-06-25T09:41:30.626Z</time>
      </trkpt>
      <trkpt lat="48.67387" lon="-3.96106">
        <ele>3.1</ele>
        <time>2022-06-25T09:41:40.000Z</time>
      </trkpt>
      <trkpt lat="48.67391" lon="-3.9612">
        <ele>4.1</ele>
        <time>2022-06-25T09:41:49.027Z</time>
      </trkpt>
      <trkpt lat="48.67395" lon="-3.96132">
        <ele>4.1</ele>
        <time>2022-06-25T09:41:58.387Z</time>
      </trkpt>
      <trkpt lat="48.67399" lon="-3.96145">
        <ele>4.06</ele>
        <time>2022-06-25T09:42:07.508Z</time>
      </trkpt>
      <trkpt lat="48.67403" lon="-3.96158">
        <ele>3.34</ele>
        <time>2022-06-25T09:42:17.164Z</time>
      </trkpt>
      <trkpt lat="48.67407" lon="-3.96169">
        <ele>3.1</ele>
        <time>2022-06-25T09:42:26.747Z</time>
      </trkpt>
      <trkpt lat="48.67413" lon="-3.96181">
        <ele>3.12</ele>
        <time>2022-06-25T09:42:36.000Z</time>
      </trkpt>
      <trkpt lat="48.67415" lon="-3.96194">
        <ele>4.1</ele>
        <time>2022-06-25T09:42:45.428Z</time>
      </trkpt>
      <trkpt lat="48.67418" lon="-3.96201">
        <ele>5.1</ele>
        <time>2022-06-25T09:42:55.026Z</time>
      </trkpt>
      <trkpt lat="48.67423" lon="-3.96212">
        <ele>5.1</ele>
        <time>2022-06-25T09:43:04.647Z</time>
      </trkpt>
      <trkpt lat="48.67428" lon="-3.96224">
        <ele>4.06</ele>
        <time>2022-06-25T09:43:14.000Z</time>
      </trkpt>
      <trkpt lat="48.67432" lon="-3.96238">
        <ele>4.29</ele>
        <time>2022-06-25T09:43:23.660Z</time>
      </trkpt>
      <trkpt lat="48.67438" lon="-3.96252">
        <ele>4.85</ele>
        <time>2022-06-25T09:43:33.187Z</time>
      </trkpt>
      <trkpt lat="48.67442" lon="-3.96265">
        <ele>5.09</ele>
        <time>2022-06-25T09:43:43.000Z</time>
      </trkpt>
      <trkpt lat="48.67443" lon="-3.96279">
        <ele>5.1</ele>
        <time>2022-06-25T09:43:52.103Z</time>
      </trkpt>
      <trkpt lat="48.67444" lon="-3.9629">
        <ele>6.1</ele>
        <time>2022-06-25T09:44:01.366Z</time>
      </trkpt>
      <trkpt lat="48.67446" lon="-3.96294">
        <ele>5.1</ele>
        <time>2022-06-25T09:44:10.406Z</time>
      </trkpt>
      <trkpt lat="48.67445" lon="-3.96308">
        <ele>6.1</ele>
        <time>2022-06-25T09:44:20.000Z</time>
      </trkpt>
      <trkpt lat="48.67443" lon="-3.9632">
        <ele>6.1</ele>
        <time>2022-06-25T09:44:30.000Z</time>
      </trkpt>
      <trkpt lat="48.67443" lon="-3.96328">
        <ele>7.1</ele>
        <time>2022-06-25T09:44:40.000Z</time>
      </trkpt>
      <trkpt lat="48.67442" lon="-3.96338">
        <ele>8.1</ele>
        <time>2022-06-25T09:44:49.528Z</time>
      </trkpt>
      <trkpt lat="48.6744" lon="-3.96341">
        <ele>7.1</ele>
        <time>2022-06-25T09:44:59.000Z</time>
      </trkpt>
      <trkpt lat="48.67442" lon="-3.96342">
        <ele>9.1</ele>
        <time>2022-06-25T09:45:09.000Z</time>
      </trkpt>
      <trkpt lat="48.6744" lon="-3.96348">
        <ele>10.1</ele>
        <time>2022-06-25T09:45:19.000Z</time>
      </trkpt>
      <trkpt lat="48.67444" lon="-3.96357">
        <ele>10.1</ele>
        <time>2022-06-25T09:45:28.267Z</time>
      </trkpt>
      <trkpt lat="48.67441" lon="-3.96357">
        <ele>10.04</ele>
        <time>2022-06-25T09:45:38.000Z</time>
      </trkpt>
      <trkpt lat="48.67441" lon="-3.96352">
        <ele>11.1</ele>
        <time>2022-06-25T09:45:48.000Z</time>
      </trkpt>
      <trkpt lat="48.6744" lon="-3.96352">
        <ele>11.1</ele>
        <time>2022-06-25T09:45:59.000Z</time>
      </trkpt>
      <trkpt lat="48.67438" lon="-3.9635">
        <ele>11.1</ele>
        <time>2022-06-25T09:46:08.282Z</time>
      </trkpt>
      <trkpt lat="48.67439" lon="-3.9635">
        <ele>11.1</ele>
        <time>2022-06-25T09:46:28.000Z</time>
      </trkpt>
      <trkpt lat="48.6744" lon="-3.9635">
        <ele>13.1</ele>
        <time>2022-06-25T09:46:57.000Z</time>
      </trkpt>
      <trkpt lat="48.67439" lon="-3.96351">
        <ele>12.17</ele>
        <time>2022-06-25T09:47:14.000Z</time>
      </trkpt>
      <trkpt lat="48.67436" lon="-3.96354">
        <ele>12.1</ele>
        <time>2022-06-25T09:47:24.000Z</time>
      </trkpt>
      <trkpt lat="48.67435" lon="-3.96357">
        <ele>11.1</ele>
        <time>2022-06-25T09:47:34.000Z</time>
      </trkpt>
      <trkpt lat="48.67433" lon="-3.96363">
        <ele>11.1</ele>
        <time>2022-06-25T09:47:43.083Z</time>
      </trkpt>
      <trkpt lat="48.6744" lon="-3.96375">
        <ele>10.1</ele>
        <time>2022-06-25T09:47:52.222Z</time>
      </trkpt>
      <trkpt lat="48.67436" lon="-3.96383">
        <ele>9.17</ele>
        <time>2022-06-25T09:48:02.000Z</time>
      </trkpt>
      <trkpt lat="48.67438" lon="-3.96393">
        <ele>8.35</ele>
        <time>2022-06-25T09:48:12.000Z</time>
      </trkpt>
      <trkpt lat="48.67439" lon="-3.96395">
        <ele>8.1</ele>
        <time>2022-06-25T09:48:22.000Z</time>
      </trkpt>
      <trkpt lat="48.67441" lon="-3.96396">
        <ele>10.1</ele>
        <time>2022-06-25T09:48:32.000Z</time>
      </trkpt>
      <trkpt lat="48.6744" lon="-3.96397">
        <ele>10.1</ele>
        <time>2022-06-25T09:49:10.000Z</time>
      </trkpt>
      <trkpt lat="48.67442" lon="-3.96403">
        <ele>8.11</ele>
        <time>2022-06-25T09:49:20.000Z</time>
      </trkpt>
      <trkpt lat="48.67443" lon="-3.96417">
        <ele>8.1</ele>
        <time>2022-06-25T09:49:29.083Z</time>
      </trkpt>
      <trkpt lat="48.67444" lon="-3.96431">
        <ele>7.1</ele>
        <time>2022-06-25T09:49:38.467Z</time>
      </trkpt>
      <trkpt lat="48.67442" lon="-3.96446">
        <ele>7.1</ele>
        <time>2022-06-25T09:49:47.605Z</time>
      </trkpt>
      <trkpt lat="48.67437" lon="-3.9646">
        <ele>8.1</ele>
        <time>2022-06-25T09:49:58.202Z</time>
      </trkpt>
      <trkpt lat="48.67433" lon="-3.96473">
        <ele>8.1</ele>
        <time>2022-06-25T09:50:07.563Z</time>
      </trkpt>
      <trkpt lat="48.67428" lon="-3.96484">
        <ele>7.85</ele>
        <time>2022-06-25T09:50:17.443Z</time>
      </trkpt>
      <trkpt lat="48.67423" lon="-3.96495">
        <ele>8.1</ele>
        <time>2022-06-25T09:50:27.461Z</time>
      </trkpt>
      <trkpt lat="48.6742" lon="-3.96512">
        <ele>7.86</ele>
        <time>2022-06-25T09:50:37.000Z</time>
      </trkpt>
      <trkpt lat="48.6742" lon="-3.96527">
        <ele>8.1</ele>
        <time>2022-06-25T09:50:46.327Z</time>
      </trkpt>
      <trkpt lat="48.67421" lon="-3.96541">
        <ele>8.1</ele>
        <time>2022-06-25T09:50:56.000Z</time>
      </trkpt>
      <trkpt lat="48.67423" lon="-3.96556">
        <ele>7.1</ele>
        <time>2022-06-25T09:51:05.108Z</time>
      </trkpt>
      <trkpt lat="48.67425" lon="-3.96573">
        <ele>7.1</ele>
        <time>2022-06-25T09:51:14.483Z</time>
      </trkpt>
      <trkpt lat="48.67427" lon="-3.96586">
        <ele>7.11</ele>
        <time>2022-06-25T09:51:24.485Z</time>
      </trkpt>
      <trkpt lat="48.67431" lon="-3.96599">
        <ele>7.1</ele>
        <time>2022-06-25T09:51:34.000Z</time>
      </trkpt>
      <trkpt lat="48.67435" lon="-3.96614">
        <ele>6.1</ele>
        <time>2022-06-25T09:51:43.402Z</time>
      </trkpt>
      <trkpt lat="48.67432" lon="-3.96618">
        <ele>6.1</ele>
        <time>2022-06-25T09:51:52.545Z</time>
      </trkpt>
      <trkpt lat="48.67426" lon="-3.96623">
        <ele>6.1</ele>
        <time>2022-06-25T09:52:01.985Z</time>
      </trkpt>
      <trkpt lat="48.6743" lon="-3.96633">
        <ele>5.12</ele>
        <time>2022-06-25T09:52:11.002Z</time>
      </trkpt>
      <trkpt lat="48.67433" lon="-3.96645">
        <ele>5.09</ele>
        <time>2022-06-25T09:52:20.028Z</time>
      </trkpt>
      <trkpt lat="48.67436" lon="-3.96656">
        <ele>4.1</ele>
        <time>2022-06-25T09:52:29.525Z</time>
      </trkpt>
      <trkpt lat="48.67431" lon="-3.9667">
        <ele>4.16</ele>
        <time>2022-06-25T09:52:38.611Z</time>
      </trkpt>
      <trkpt lat="48.67427" lon="-3.96679">
        <ele>3.11</ele>
        <time>2022-06-25T09:52:47.642Z</time>
      </trkpt>
      <trkpt lat="48.67421" lon="-3.96691">
        <ele>3.1</ele>
        <time>2022-06-25T09:52:57.202Z</time>
      </trkpt>
      <trkpt lat="48.67418" lon="-3.96704">
        <ele>4.1</ele>
        <time>2022-06-25T09:53:06.321Z</time>
      </trkpt>
      <trkpt lat="48.67416" lon="-3.96715">
        <ele>3.17</ele>
        <time>2022-06-25T09:53:15.626Z</time>
      </trkpt>
      <trkpt lat="48.67411" lon="-3.96726">
        <ele>4.09</ele>
        <time>2022-06-25T09:53:25.000Z</time>
      </trkpt>
      <trkpt lat="48.67408" lon="-3.96736">
        <ele>5.7</ele>
        <time>2022-06-25T09:53:34.285Z</time>
      </trkpt>
      <trkpt lat="48.67402" lon="-3.96744">
        <ele>5.7</ele>
        <time>2022-06-25T09:53:44.000Z</time>
      </trkpt>
      <trkpt lat="48.67399" lon="-3.9675">
        <ele>5.7</ele>
        <time>2022-06-25T09:53:53.607Z</time>
      </trkpt>
      <trkpt lat="48.67391" lon="-3.96759">
        <ele>5.7</ele>
        <time>2022-06-25T09:54:03.128Z</time>
      </trkpt>
      <trkpt lat="48.67385" lon="-3.96764">
        <ele>5.1</ele>
        <time>2022-06-25T09:54:12.144Z</time>
      </trkpt>
      <trkpt lat="48.6738" lon="-3.96775">
        <ele>5.04</ele>
        <time>2022-06-25T09:54:21.603Z</time>
      </trkpt>
      <trkpt lat="48.67376" lon="-3.96787">
        <ele>4.1</ele>
        <time>2022-06-25T09:54:31.000Z</time>
      </trkpt>
      <trkpt lat="48.67369" lon="-3.96795">
        <ele>4.04</ele>
        <time>2022-06-25T09:54:40.565Z</time>
      </trkpt>
      <trkpt lat="48.67364" lon="-3.96807">
        <ele>5.12</ele>
        <time>2022-06-25T09:54:51.000Z</time>
      </trkpt>
      <trkpt lat="48.67358" lon="-3.96815">
        <ele>4.1</ele>
        <time>2022-06-25T09:55:01.000Z</time>
      </trkpt>
      <trkpt lat="48.67351" lon="-3.96823">
        <ele>3.85</ele>
        <time>2022-06-25T09:55:10.086Z</time>
      </trkpt>
      <trkpt lat="48.67346" lon="-3.96832">
        <ele>4.1</ele>
        <time>2022-06-25T09:55:19.144Z</time>
      </trkpt>
      <trkpt lat="48.67336" lon="-3.96833">
        <ele>5.15</ele>
        <time>2022-06-25T09:55:28.622Z</time>
      </trkpt>
      <trkpt lat="48.67329" lon="-3.96835">
        <ele>8.9</ele>
        <time>2022-06-25T09:55:38.286Z</time>
      </trkpt>
      <trkpt lat="48.67325" lon="-3.9684">
        <ele>6.85</ele>
        <time>2022-06-25T09:55:47.566Z</time>
      </trkpt>
      <trkpt lat="48.67327" lon="-3.96843">
        <ele>7.09</ele>
        <time>2022-06-25T09:55:57.000Z</time>
      </trkpt>
      <trkpt lat="48.67334" lon="-3.96842">
        <ele>6.1</ele>
        <time>2022-06-25T09:56:06.123Z</time>
      </trkpt>
      <trkpt lat="48.67343" lon="-3.96844">
        <ele>6.1</ele>
        <time>2022-06-25T09:56:16.000Z</time>
      </trkpt>
      <trkpt lat="48.67345" lon="-3.96849">
        <ele>6.1</ele>
        <time>2022-06-25T09:56:26.000Z</time>
      </trkpt>
      <trkpt lat="48.67348" lon="-3.96861">
        <ele>6.1</ele>
        <time>2022-06-25T09:56:35.348Z</time>
      </trkpt>
      <trkpt lat="48.67347" lon="-3.96874">
        <ele>6.16</ele>
        <time>2022-06-25T09:56:44.445Z</time>
      </trkpt>
      <trkpt lat="48.67349" lon="-3.96889">
        <ele>6.1</ele>
        <time>2022-06-25T09:56:53.944Z</time>
      </trkpt>
      <trkpt lat="48.67347" lon="-3.96904">
        <ele>5.35</ele>
        <time>2022-06-25T09:57:03.444Z</time>
      </trkpt>
      <trkpt lat="48.67345" lon="-3.96917">
        <ele>8.09</ele>
        <time>2022-06-25T09:57:13.000Z</time>
      </trkpt>
      <trkpt lat="48.67346" lon="-3.9693">
        <ele>10.02</ele>
        <time>2022-06-25T09:57:23.000Z</time>
      </trkpt>
      <trkpt lat="48.67349" lon="-3.96934">
        <ele>11.3</ele>
        <time>2022-06-25T09:57:32.645Z</time>
      </trkpt>
      <trkpt lat="48.67357" lon="-3.96944">
        <ele>11.3</ele>
        <time>2022-06-25T09:57:42.605Z</time>
      </trkpt>
      <trkpt lat="48.67365" lon="-3.96955">
        <ele>11.3</ele>
        <time>2022-06-25T09:57:53.000Z</time>
      </trkpt>
      <trkpt lat="48.6737" lon="-3.96965">
        <ele>11.3</ele>
        <time>2022-06-25T09:58:02.348Z</time>
      </trkpt>
      <trkpt lat="48.67375" lon="-3.96973">
        <ele>11.3</ele>
        <time>2022-06-25T09:58:12.000Z</time>
      </trkpt>
      <trkpt lat="48.67379" lon="-3.96981">
        <ele>11.3</ele>
        <time>2022-06-25T09:58:22.000Z</time>
      </trkpt>
      <trkpt lat="48.67381" lon="-3.96992">
        <ele>11.3</ele>
        <time>2022-06-25T09:58:31.102Z</time>
      </trkpt>
      <trkpt lat="48.67386" lon="-3.97006">
        <ele>11.3</ele>
        <time>2022-06-25T09:58:40.287Z</time>
      </trkpt>
      <trkpt lat="48.67387" lon="-3.9702">
        <ele>11.3</ele>
        <time>2022-06-25T09:58:49.544Z</time>
      </trkpt>
      <trkpt lat="48.67391" lon="-3.97031">
        <ele>4.35</ele>
        <time>2022-06-25T09:58:58.922Z</time>
      </trkpt>
      <trkpt lat="48.67397" lon="-3.97042">
        <ele>4.1</ele>
        <time>2022-06-25T09:59:07.988Z</time>
      </trkpt>
      <trkpt lat="48.67404" lon="-3.97054">
        <ele>3.35</ele>
        <time>2022-06-25T09:59:17.000Z</time>
      </trkpt>
      <trkpt lat="48.67411" lon="-3.97064">
        <ele>4.1</ele>
        <time>2022-06-25T09:59:26.523Z</time>
      </trkpt>
      <trkpt lat="48.67416" lon="-3.97074">
        <ele>4.1</ele>
        <time>2022-06-25T09:59:36.000Z</time>
      </trkpt>
      <trkpt lat="48.67422" lon="-3.97084">
        <ele>4.1</ele>
        <time>2022-06-25T09:59:45.104Z</time>
      </trkpt>
      <trkpt lat="48.67428" lon="-3.97093">
        <ele>5.1</ele>
        <time>2022-06-25T09:59:54.444Z</time>
      </trkpt>
      <trkpt lat="48.67436" lon="-3.97104">
        <ele>5.1</ele>
        <time>2022-06-25T10:00:04.000Z</time>
      </trkpt>
      <trkpt lat="48.67443" lon="-3.97113">
        <ele>4.1</ele>
        <time>2022-06-25T10:00:13.422Z</time>
      </trkpt>
      <trkpt lat="48.67447" lon="-3.97123">
        <ele>5.1</ele>
        <time>2022-06-25T10:00:23.000Z</time>
      </trkpt>
      <trkpt lat="48.67449" lon="-3.97136">
        <ele>5.1</ele>
        <time>2022-06-25T10:00:32.321Z</time>
      </trkpt>
      <trkpt lat="48.67454" lon="-3.97149">
        <ele>4.1</ele>
        <time>2022-06-25T10:00:41.561Z</time>
      </trkpt>
      <trkpt lat="48.67458" lon="-3.97162">
        <ele>4.1</ele>
        <time>2022-06-25T10:00:51.009Z</time>
      </trkpt>
      <trkpt lat="48.6746" lon="-3.97177">
        <ele>3.1</ele>
        <time>2022-06-25T10:01:00.383Z</time>
      </trkpt>
      <trkpt lat="48.67465" lon="-3.97183">
        <ele>3.1</ele>
        <time>2022-06-25T10:01:10.000Z</time>
      </trkpt>
      <trkpt lat="48.67473" lon="-3.97185">
        <ele>5.09</ele>
        <time>2022-06-25T10:01:19.104Z</time>
      </trkpt>
      <trkpt lat="48.67481" lon="-3.97187">
        <ele>4.1</ele>
        <time>2022-06-25T10:01:28.625Z</time>
      </trkpt>
      <trkpt lat="48.67489" lon="-3.97189">
        <ele>4.1</ele>
        <time>2022-06-25T10:01:38.168Z</time>
      </trkpt>
      <trkpt lat="48.67497" lon="-3.97191">
        <ele>4.1</ele>
        <time>2022-06-25T10:01:48.000Z</time>
      </trkpt>
      <trkpt lat="48.67505" lon="-3.97195">
        <ele>4.1</ele>
        <time>2022-06-25T10:01:57.149Z</time>
      </trkpt>
      <trkpt lat="48.67513" lon="-3.97198">
        <ele>3.1</ele>
        <time>2022-06-25T10:02:06.605Z</time>
      </trkpt>
      <trkpt lat="48.67521" lon="-3.97203">
        <ele>3.1</ele>
        <time>2022-06-25T10:02:16.046Z</time>
      </trkpt>
      <trkpt lat="48.67528" lon="-3.97206">
        <ele>3.1</ele>
        <time>2022-06-25T10:02:25.441Z</time>
      </trkpt>
      <trkpt lat="48.67538" lon="-3.97207">
        <ele>5.02</ele>
        <time>2022-06-25T10:02:34.806Z</time>
      </trkpt>
      <trkpt lat="48.67546" lon="-3.97207">
        <ele>4.1</ele>
        <time>2022-06-25T10:02:44.462Z</time>
      </trkpt>
      <trkpt lat="48.67556" lon="-3.972">
        <ele>6.1</ele>
        <time>2022-06-25T10:02:54.321Z</time>
      </trkpt>
      <trkpt lat="48.67563" lon="-3.97191">
        <ele>7.04</ele>
        <time>2022-06-25T10:03:03.606Z</time>
      </trkpt>
      <trkpt lat="48.67569" lon="-3.9718">
        <ele>6.1</ele>
        <time>2022-06-25T10:03:12.664Z</time>
      </trkpt>
      <trkpt lat="48.67573" lon="-3.97172">
        <ele>6.15</ele>
        <time>2022-06-25T10:03:22.000Z</time>
      </trkpt>
      <trkpt lat="48.67576" lon="-3.97159">
        <ele>7.04</ele>
        <time>2022-06-25T10:03:32.000Z</time>
      </trkpt>
      <trkpt lat="48.67577" lon="-3.97144">
        <ele>6.1</ele>
        <time>2022-06-25T10:03:42.000Z</time>
      </trkpt>
      <trkpt lat="48.67575" lon="-3.97133">
        <ele>7.85</ele>
        <time>2022-06-25T10:03:52.000Z</time>
      </trkpt>
      <trkpt lat="48.6757" lon="-3.97121">
        <ele>7.04</ele>
        <time>2022-06-25T10:04:01.163Z</time>
      </trkpt>
      <trkpt lat="48.67566" lon="-3.97116">
        <ele>8.09</ele>
        <time>2022-06-25T10:04:10.622Z</time>
      </trkpt>
      <trkpt lat="48.67562" lon="-3.9711">
        <ele>7.12</ele>
        <time>2022-06-25T10:04:20.000Z</time>
      </trkpt>
      <trkpt lat="48.67561" lon="-3.97108">
        <ele>7.1</ele>
        <time>2022-06-25T10:04:31.042Z</time>
      </trkpt>
      <trkpt lat="48.67558" lon="-3.97094">
        <ele>7.1</ele>
        <time>2022-06-25T10:04:40.067Z</time>
      </trkpt>
      <trkpt lat="48.67556" lon="-3.9708">
        <ele>7.1</ele>
        <time>2022-06-25T10:04:50.000Z</time>
      </trkpt>
      <trkpt lat="48.67551" lon="-3.97068">
        <ele>6.1</ele>
        <time>2022-06-25T10:04:59.366Z</time>
      </trkpt>
      <trkpt lat="48.67552" lon="-3.97058">
        <ele>5.1</ele>
        <time>2022-06-25T10:05:09.503Z</time>
      </trkpt>
      <trkpt lat="48.67551" lon="-3.97046">
        <ele>4.1</ele>
        <time>2022-06-25T10:05:18.561Z</time>
      </trkpt>
      <trkpt lat="48.67555" lon="-3.97035">
        <ele>3.1</ele>
        <time>2022-06-25T10:05:27.604Z</time>
      </trkpt>
      <trkpt lat="48.67559" lon="-3.97025">
        <ele>3.1</ele>
        <time>2022-06-25T10:05:37.342Z</time>
      </trkpt>
      <trkpt lat="48.67564" lon="-3.97016">
        <ele>2.1</ele>
        <time>2022-06-25T10:05:46.504Z</time>
      </trkpt>
      <trkpt lat="48.67568" lon="-3.97005">
        <ele>0.11</ele>
        <time>2022-06-25T10:05:55.603Z</time>
      </trkpt>
      <trkpt lat="48.67575" lon="-3.96997">
        <ele>0.1</ele>
        <time>2022-06-25T10:06:04.661Z</time>
      </trkpt>
      <trkpt lat="48.67583" lon="-3.96995">
        <ele>-1.9</ele>
        <time>2022-06-25T10:06:14.000Z</time>
      </trkpt>
      <trkpt lat="48.67589" lon="-3.96992">
        <ele>-2.13</ele>
        <time>2022-06-25T10:06:24.000Z</time>
      </trkpt>
      <trkpt lat="48.67593" lon="-3.96986">
        <ele>-2.9</ele>
        <time>2022-06-25T10:06:33.146Z</time>
      </trkpt>
      <trkpt lat="48.67601" lon="-3.96979">
        <ele>-2.9</ele>
        <time>2022-06-25T10:06:42.284Z</time>
      </trkpt>
      <trkpt lat="48.6761" lon="-3.96976">
        <ele>-2.9</ele>
        <time>2022-06-25T10:06:51.405Z</time>
      </trkpt>
      <trkpt lat="48.67618" lon="-3.96971">
        <ele>-1.9</ele>
        <time>2022-06-25T10:07:00.663Z</time>
      </trkpt>
      <trkpt lat="48.67627" lon="-3.96961">
        <ele>-1.9</ele>
        <time>2022-06-25T10:07:10.147Z</time>
      </trkpt>
      <trkpt lat="48.67635" lon="-3.96952">
        <ele>-2.9</ele>
        <time>2022-06-25T10:07:19.164Z</time>
      </trkpt>
      <trkpt lat="48.67642" lon="-3.96952">
        <ele>9.3</ele>
        <time>2022-06-25T10:07:28.405Z</time>
      </trkpt>
      <trkpt lat="48.67639" lon="-3.96951">
        <ele>9.3</ele>
        <time>2022-06-25T10:07:38.000Z</time>
      </trkpt>
      <trkpt lat="48.67639" lon="-3.9695">
        <ele>9.3</ele>
        <time>2022-06-25T10:07:51.000Z</time>
      </trkpt>
      <trkpt lat="48.67637" lon="-3.96949">
        <ele>9.3</ele>
        <time>2022-06-25T10:08:01.000Z</time>
      </trkpt>
      <trkpt lat="48.67637" lon="-3.9695">
        <ele>9.3</ele>
        <time>2022-06-25T10:08:12.000Z</time>
      </trkpt>
      <trkpt lat="48.67637" lon="-3.9695">
        <ele>9.3</ele>
        <time>2022-06-25T10:08:27.000Z</time>
      </trkpt>
      <trkpt lat="48.67639" lon="-3.96948">
        <ele>9.22</ele>
        <time>2022-06-25T10:08:37.000Z</time>
      </trkpt>
      <trkpt lat="48.67639" lon="-3.96946">
        <ele>9.3</ele>
        <time>2022-06-25T10:08:47.000Z</time>
      </trkpt>
      <trkpt lat="48.67639" lon="-3.96948">
        <ele>5.1</ele>
        <time>2022-06-25T10:10:15.000Z</time>
      </trkpt>
      <trkpt lat="48.6764" lon="-3.96948">
        <ele>9.3</ele>
        <time>2022-06-25T10:10:25.000Z</time>
      </trkpt>
      <trkpt lat="48.6764" lon="-3.96946">
        <ele>6.04</ele>
        <time>2022-06-25T10:10:38.000Z</time>
      </trkpt>
      <trkpt lat="48.67641" lon="-3.96947">
        <ele>9.3</ele>
        <time>2022-06-25T10:11:11.123Z</time>
      </trkpt>
      <trkpt lat="48.67641" lon="-3.96944">
        <ele>9.3</ele>
        <time>2022-06-25T10:11:21.000Z</time>
      </trkpt>
      <trkpt lat="48.6764" lon="-3.96944">
        <ele>9.3</ele>
        <time>2022-06-25T10:12:16.000Z</time>
      </trkpt>
      <trkpt lat="48.67645" lon="-3.96942">
        <ele>6.11</ele>
        <time>2022-06-25T10:12:25.445Z</time>
      </trkpt>
      <trkpt lat="48.67653" lon="-3.9694">
        <ele>6.1</ele>
        <time>2022-06-25T10:12:34.804Z</time>
      </trkpt>
      <trkpt lat="48.6766" lon="-3.96939">
        <ele>5.35</ele>
        <time>2022-06-25T10:12:45.000Z</time>
      </trkpt>
      <trkpt lat="48.6767" lon="-3.96938">
        <ele>6.09</ele>
        <time>2022-06-25T10:12:55.000Z</time>
      </trkpt>
      <trkpt lat="48.67679" lon="-3.96935">
        <ele>7.1</ele>
        <time>2022-06-25T10:13:04.266Z</time>
      </trkpt>
      <trkpt lat="48.67687" lon="-3.96936">
        <ele>7.1</ele>
        <time>2022-06-25T10:13:13.524Z</time>
      </trkpt>
      <trkpt lat="48.67696" lon="-3.96938">
        <ele>7.1</ele>
        <time>2022-06-25T10:13:22.723Z</time>
      </trkpt>
      <trkpt lat="48.67706" lon="-3.96941">
        <ele>7.1</ele>
        <time>2022-06-25T10:13:32.544Z</time>
      </trkpt>
      <trkpt lat="48.67715" lon="-3.96941">
        <ele>7.1</ele>
        <time>2022-06-25T10:13:43.245Z</time>
      </trkpt>
      <trkpt lat="48.67725" lon="-3.96941">
        <ele>7.1</ele>
        <time>2022-06-25T10:13:53.263Z</time>
      </trkpt>
      <trkpt lat="48.67736" lon="-3.96932">
        <ele>7.1</ele>
        <time>2022-06-25T10:14:03.145Z</time>
      </trkpt>
      <trkpt lat="48.67745" lon="-3.96927">
        <ele>7.1</ele>
        <time>2022-06-25T10:14:13.647Z</time>
      </trkpt>
      <trkpt lat="48.67755" lon="-3.96921">
        <ele>7.1</ele>
        <time>2022-06-25T10:14:22.984Z</time>
      </trkpt>
      <trkpt lat="48.67762" lon="-3.96918">
        <ele>7.1</ele>
        <time>2022-06-25T10:14:32.267Z</time>
      </trkpt>
      <trkpt lat="48.67771" lon="-3.96914">
        <ele>6.11</ele>
        <time>2022-06-25T10:14:41.444Z</time>
      </trkpt>
      <trkpt lat="48.67779" lon="-3.96911">
        <ele>5.35</ele>
        <time>2022-06-25T10:14:51.000Z</time>
      </trkpt>
      <trkpt lat="48.67788" lon="-3.96912">
        <ele>6.86</ele>
        <time>2022-06-25T10:15:00.207Z</time>
      </trkpt>
      <trkpt lat="48.67797" lon="-3.96913">
        <ele>7.1</ele>
        <time>2022-06-25T10:15:09.446Z</time>
      </trkpt>
      <trkpt lat="48.67806" lon="-3.96914">
        <ele>6.92</ele>
        <time>2022-06-25T10:15:19.000Z</time>
      </trkpt>
      <trkpt lat="48.67815" lon="-3.96918">
        <ele>6.11</ele>
        <time>2022-06-25T10:15:29.000Z</time>
      </trkpt>
      <trkpt lat="48.67824" lon="-3.96919">
        <ele>6.11</ele>
        <time>2022-06-25T10:15:38.208Z</time>
      </trkpt>
      <trkpt lat="48.67834" lon="-3.96921">
        <ele>6.11</ele>
        <time>2022-06-25T10:15:47.445Z</time>
      </trkpt>
      <trkpt lat="48.67844" lon="-3.96923">
        <ele>6.11</ele>
        <time>2022-06-25T10:15:56.665Z</time>
      </trkpt>
      <trkpt lat="48.67853" lon="-3.96928">
        <ele>6.86</ele>
        <time>2022-06-25T10:16:06.037Z</time>
      </trkpt>
      <trkpt lat="48.67863" lon="-3.96926">
        <ele>7.11</ele>
        <time>2022-06-25T10:16:15.266Z</time>
      </trkpt>
      <trkpt lat="48.67873" lon="-3.96925">
        <ele>8.11</ele>
        <time>2022-06-25T10:16:24.365Z</time>
      </trkpt>
      <trkpt lat="48.67884" lon="-3.96921">
        <ele>7.11</ele>
        <time>2022-06-25T10:16:33.920Z</time>
      </trkpt>
      <trkpt lat="48.67892" lon="-3.96919">
        <ele>8.11</ele>
        <time>2022-06-25T10:16:43.084Z</time>
      </trkpt>
      <trkpt lat="48.67902" lon="-3.96921">
        <ele>8.11</ele>
        <time>2022-06-25T10:16:53.000Z</time>
      </trkpt>
      <trkpt lat="48.67913" lon="-3.96924">
        <ele>8.11</ele>
        <time>2022-06-25T10:17:03.000Z</time>
      </trkpt>
      <trkpt lat="48.67922" lon="-3.96926">
        <ele>7.11</ele>
        <time>2022-06-25T10:17:12.066Z</time>
      </trkpt>
      <trkpt lat="48.67931" lon="-3.96927">
        <ele>7.17</ele>
        <time>2022-06-25T10:17:21.284Z</time>
      </trkpt>
      <trkpt lat="48.67939" lon="-3.9693">
        <ele>7.11</ele>
        <time>2022-06-25T10:17:30.326Z</time>
      </trkpt>
      <trkpt lat="48.67949" lon="-3.96931">
        <ele>7.11</ele>
        <time>2022-06-25T10:17:40.027Z</time>
      </trkpt>
      <trkpt lat="48.6796" lon="-3.96932">
        <ele>7.11</ele>
        <time>2022-06-25T10:17:49.706Z</time>
      </trkpt>
      <trkpt lat="48.67969" lon="-3.96931">
        <ele>8.11</ele>
        <time>2022-06-25T10:17:59.000Z</time>
      </trkpt>
      <trkpt lat="48.67979" lon="-3.96929">
        <ele>7.11</ele>
        <time>2022-06-25T10:18:09.000Z</time>
      </trkpt>
      <trkpt lat="48.6799" lon="-3.96927">
        <ele>7.11</ele>
        <time>2022-06-25T10:18:18.322Z</time>
      </trkpt>
      <trkpt lat="48.68001" lon="-3.96924">
        <ele>7.11</ele>
        <time>2022-06-25T10:18:29.000Z</time>
      </trkpt>
      <trkpt lat="48.68009" lon="-3.96916">
        <ele>7.86</ele>
        <time>2022-06-25T10:18:38.103Z</time>
      </trkpt>
      <trkpt lat="48.68019" lon="-3.96907">
        <ele>8.11</ele>
        <time>2022-06-25T10:18:48.000Z</time>
      </trkpt>
      <trkpt lat="48.68028" lon="-3.96898">
        <ele>8.11</ele>
        <time>2022-06-25T10:18:57.427Z</time>
      </trkpt>
      <trkpt lat="48.68037" lon="-3.96896">
        <ele>7.86</ele>
        <time>2022-06-25T10:19:06.943Z</time>
      </trkpt>
      <trkpt lat="48.68045" lon="-3.96893">
        <ele>8.1</ele>
        <time>2022-06-25T10:19:16.384Z</time>
      </trkpt>
      <trkpt lat="48.68052" lon="-3.96901">
        <ele>7.11</ele>
        <time>2022-06-25T10:19:26.000Z</time>
      </trkpt>
      <trkpt lat="48.68061" lon="-3.96906">
        <ele>7.11</ele>
        <time>2022-06-25T10:19:35.524Z</time>
      </trkpt>
      <trkpt lat="48.68069" lon="-3.96912">
        <ele>7.11</ele>
        <time>2022-06-25T10:19:44.968Z</time>
      </trkpt>
      <trkpt lat="48.68077" lon="-3.96923">
        <ele>5.25</ele>
        <time>2022-06-25T10:19:54.405Z</time>
      </trkpt>
      <trkpt lat="48.68084" lon="-3.96933">
        <ele>5.21</ele>
        <time>2022-06-25T10:20:04.000Z</time>
      </trkpt>
      <trkpt lat="48.68095" lon="-3.96938">
        <ele>6.96</ele>
        <time>2022-06-25T10:20:13.663Z</time>
      </trkpt>
      <trkpt lat="48.68104" lon="-3.96942">
        <ele>7.11</ele>
        <time>2022-06-25T10:20:23.207Z</time>
      </trkpt>
      <trkpt lat="48.68112" lon="-3.96953">
        <ele>5.21</ele>
        <time>2022-06-25T10:20:33.000Z</time>
      </trkpt>
      <trkpt lat="48.6812" lon="-3.96964">
        <ele>5.21</ele>
        <time>2022-06-25T10:20:42.321Z</time>
      </trkpt>
      <trkpt lat="48.68128" lon="-3.96974">
        <ele>5.71</ele>
        <time>2022-06-25T10:20:51.568Z</time>
      </trkpt>
      <trkpt lat="48.68137" lon="-3.96984">
        <ele>4.51</ele>
        <time>2022-06-25T10:21:00.808Z</time>
      </trkpt>
      <trkpt lat="48.68145" lon="-3.9699">
        <ele>4.51</ele>
        <time>2022-06-25T10:21:10.486Z</time>
      </trkpt>
      <trkpt lat="48.68154" lon="-3.96998">
        <ele>4.33</ele>
        <time>2022-06-25T10:21:20.000Z</time>
      </trkpt>
      <trkpt lat="48.68163" lon="-3.97004">
        <ele>5.08</ele>
        <time>2022-06-25T10:21:29.467Z</time>
      </trkpt>
      <trkpt lat="48.68171" lon="-3.9701">
        <ele>5.41</ele>
        <time>2022-06-25T10:21:38.627Z</time>
      </trkpt>
      <trkpt lat="48.68179" lon="-3.97018">
        <ele>4.81</ele>
        <time>2022-06-25T10:21:48.320Z</time>
      </trkpt>
      <trkpt lat="48.68187" lon="-3.97026">
        <ele>3.11</ele>
        <time>2022-06-25T10:21:57.384Z</time>
      </trkpt>
      <trkpt lat="48.68196" lon="-3.97032">
        <ele>3.11</ele>
        <time>2022-06-25T10:22:06.465Z</time>
      </trkpt>
      <trkpt lat="48.68207" lon="-3.97036">
        <ele>3.11</ele>
        <time>2022-06-25T10:22:15.904Z</time>
      </trkpt>
      <trkpt lat="48.68215" lon="-3.97039">
        <ele>8.14</ele>
        <time>2022-06-25T10:22:25.000Z</time>
      </trkpt>
      <trkpt lat="48.68225" lon="-3.97042">
        <ele>5.11</ele>
        <time>2022-06-25T10:22:34.409Z</time>
      </trkpt>
      <trkpt lat="48.68234" lon="-3.97045">
        <ele>5.11</ele>
        <time>2022-06-25T10:22:43.426Z</time>
      </trkpt>
      <trkpt lat="48.68242" lon="-3.97054">
        <ele>5.11</ele>
        <time>2022-06-25T10:22:52.465Z</time>
      </trkpt>
      <trkpt lat="48.68247" lon="-3.97065">
        <ele>5.11</ele>
        <time>2022-06-25T10:23:01.527Z</time>
      </trkpt>
      <trkpt lat="48.68254" lon="-3.97077">
        <ele>5.71</ele>
        <time>2022-06-25T10:23:10.623Z</time>
      </trkpt>
      <trkpt lat="48.68259" lon="-3.97092">
        <ele>5.71</ele>
        <time>2022-06-25T10:23:20.541Z</time>
      </trkpt>
      <trkpt lat="48.68259" lon="-3.97094">
        <ele>5.71</ele>
        <time>2022-06-25T10:23:30.000Z</time>
      </trkpt>
      <trkpt lat="48.68261" lon="-3.97094">
        <ele>5.71</ele>
        <time>2022-06-25T10:23:44.000Z</time>
      </trkpt>
      <trkpt lat="48.68261" lon="-3.97092">
        <ele>5.71</ele>
        <time>2022-06-25T10:23:54.000Z</time>
      </trkpt>
      <trkpt lat="48.68261" lon="-3.97091">
        <ele>5.71</ele>
        <time>2022-06-25T10:24:11.000Z</time>
      </trkpt>
      <trkpt lat="48.68264" lon="-3.9709">
        <ele>5.71</ele>
        <time>2022-06-25T10:24:20.084Z</time>
      </trkpt>
      <trkpt lat="48.68274" lon="-3.97087">
        <ele>6.11</ele>
        <time>2022-06-25T10:24:29.267Z</time>
      </trkpt>
      <trkpt lat="48.68281" lon="-3.97082">
        <ele>5.71</ele>
        <time>2022-06-25T10:24:38.484Z</time>
      </trkpt>
      <trkpt lat="48.68293" lon="-3.97084">
        <ele>5.71</ele>
        <time>2022-06-25T10:24:48.665Z</time>
      </trkpt>
      <trkpt lat="48.68298" lon="-3.97086">
        <ele>5.71</ele>
        <time>2022-06-25T10:24:58.000Z</time>
      </trkpt>
      <trkpt lat="48.68297" lon="-3.97085">
        <ele>5.71</ele>
        <time>2022-06-25T10:25:11.604Z</time>
      </trkpt>
      <trkpt lat="48.68303" lon="-3.97087">
        <ele>5.71</ele>
        <time>2022-06-25T10:25:21.180Z</time>
      </trkpt>
      <trkpt lat="48.68314" lon="-3.97087">
        <ele>5.71</ele>
        <time>2022-06-25T10:25:31.000Z</time>
      </trkpt>
      <trkpt lat="48.68325" lon="-3.97086">
        <ele>6.11</ele>
        <time>2022-06-25T10:25:40.425Z</time>
      </trkpt>
      <trkpt lat="48.68334" lon="-3.97087">
        <ele>6.11</ele>
        <time>2022-06-25T10:25:49.961Z</time>
      </trkpt>
      <trkpt lat="48.68345" lon="-3.97088">
        <ele>4.11</ele>
        <time>2022-06-25T10:26:00.000Z</time>
      </trkpt>
      <trkpt lat="48.68355" lon="-3.97085">
        <ele>5.11</ele>
        <time>2022-06-25T10:26:09.443Z</time>
      </trkpt>
      <trkpt lat="48.68366" lon="-3.97087">
        <ele>4.34</ele>
        <time>2022-06-25T10:26:18.924Z</time>
      </trkpt>
      <trkpt lat="48.68375" lon="-3.97086">
        <ele>4.11</ele>
        <time>2022-06-25T10:26:27.941Z</time>
      </trkpt>
      <trkpt lat="48.68386" lon="-3.97088">
        <ele>4.86</ele>
        <time>2022-06-25T10:26:37.000Z</time>
      </trkpt>
      <trkpt lat="48.68396" lon="-3.97089">
        <ele>4.11</ele>
        <time>2022-06-25T10:26:46.424Z</time>
      </trkpt>
      <trkpt lat="48.68406" lon="-3.97088">
        <ele>4.11</ele>
        <time>2022-06-25T10:26:56.000Z</time>
      </trkpt>
      <trkpt lat="48.68414" lon="-3.97086">
        <ele>5.11</ele>
        <time>2022-06-25T10:27:05.106Z</time>
      </trkpt>
      <trkpt lat="48.68421" lon="-3.97076">
        <ele>6.11</ele>
        <time>2022-06-25T10:27:15.000Z</time>
      </trkpt>
      <trkpt lat="48.68431" lon="-3.97067">
        <ele>7.05</ele>
        <time>2022-06-25T10:27:24.462Z</time>
      </trkpt>
      <trkpt lat="48.68441" lon="-3.9707">
        <ele>6.01</ele>
        <time>2022-06-25T10:27:33.824Z</time>
      </trkpt>
      <trkpt lat="48.68452" lon="-3.97072">
        <ele>6.01</ele>
        <time>2022-06-25T10:27:43.146Z</time>
      </trkpt>
      <trkpt lat="48.68461" lon="-3.97073">
        <ele>6.11</ele>
        <time>2022-06-25T10:27:52.588Z</time>
      </trkpt>
      <trkpt lat="48.68472" lon="-3.97073">
        <ele>6.11</ele>
        <time>2022-06-25T10:28:02.103Z</time>
      </trkpt>
      <trkpt lat="48.68479" lon="-3.97074">
        <ele>6.21</ele>
        <time>2022-06-25T10:28:12.000Z</time>
      </trkpt>
      <trkpt lat="48.68488" lon="-3.97074">
        <ele>6.21</ele>
        <time>2022-06-25T10:28:21.086Z</time>
      </trkpt>
      <trkpt lat="48.68497" lon="-3.97073">
        <ele>6.21</ele>
        <time>2022-06-25T10:28:30.441Z</time>
      </trkpt>
      <trkpt lat="48.68508" lon="-3.9707">
        <ele>6.21</ele>
        <time>2022-06-25T10:28:39.629Z</time>
      </trkpt>
      <trkpt lat="48.68519" lon="-3.97067">
        <ele>6.11</ele>
        <time>2022-06-25T10:28:48.644Z</time>
      </trkpt>
      <trkpt lat="48.6853" lon="-3.97065">
        <ele>5.11</ele>
        <time>2022-06-25T10:28:58.000Z</time>
      </trkpt>
      <trkpt lat="48.68542" lon="-3.97062">
        <ele>6.11</ele>
        <time>2022-06-25T10:29:07.429Z</time>
      </trkpt>
      <trkpt lat="48.68552" lon="-3.97062">
        <ele>4.11</ele>
        <time>2022-06-25T10:29:16.644Z</time>
      </trkpt>
      <trkpt lat="48.68562" lon="-3.97061">
        <ele>4.11</ele>
        <time>2022-06-25T10:29:26.483Z</time>
      </trkpt>
      <trkpt lat="48.68573" lon="-3.97056">
        <ele>4.17</ele>
        <time>2022-06-25T10:29:36.000Z</time>
      </trkpt>
      <trkpt lat="48.68583" lon="-3.97052">
        <ele>5.11</ele>
        <time>2022-06-25T10:29:45.088Z</time>
      </trkpt>
      <trkpt lat="48.68593" lon="-3.9705">
        <ele>4.11</ele>
        <time>2022-06-25T10:29:54.305Z</time>
      </trkpt>
      <trkpt lat="48.68604" lon="-3.97048">
        <ele>5.86</ele>
        <time>2022-06-25T10:30:04.000Z</time>
      </trkpt>
      <trkpt lat="48.68614" lon="-3.97046">
        <ele>5.12</ele>
        <time>2022-06-25T10:30:13.607Z</time>
      </trkpt>
      <trkpt lat="48.68623" lon="-3.97044">
        <ele>6.11</ele>
        <time>2022-06-25T10:30:22.923Z</time>
      </trkpt>
      <trkpt lat="48.68633" lon="-3.97041">
        <ele>6.11</ele>
        <time>2022-06-25T10:30:32.284Z</time>
      </trkpt>
      <trkpt lat="48.68642" lon="-3.97039">
        <ele>6.11</ele>
        <time>2022-06-25T10:30:41.643Z</time>
      </trkpt>
      <trkpt lat="48.68651" lon="-3.97039">
        <ele>6.11</ele>
        <time>2022-06-25T10:30:51.000Z</time>
      </trkpt>
      <trkpt lat="48.68661" lon="-3.97033">
        <ele>6.17</ele>
        <time>2022-06-25T10:31:00.407Z</time>
      </trkpt>
      <trkpt lat="48.6867" lon="-3.97027">
        <ele>6.36</ele>
        <time>2022-06-25T10:31:09.926Z</time>
      </trkpt>
      <trkpt lat="48.68679" lon="-3.9702">
        <ele>6.11</ele>
        <time>2022-06-25T10:31:19.367Z</time>
      </trkpt>
      <trkpt lat="48.68688" lon="-3.97013">
        <ele>6.11</ele>
        <time>2022-06-25T10:31:28.723Z</time>
      </trkpt>
      <trkpt lat="48.68697" lon="-3.97006">
        <ele>6.1</ele>
        <time>2022-06-25T10:31:38.084Z</time>
      </trkpt>
      <trkpt lat="48.68706" lon="-3.96998">
        <ele>6.05</ele>
        <time>2022-06-25T10:31:47.466Z</time>
      </trkpt>
      <trkpt lat="48.68714" lon="-3.96991">
        <ele>6.11</ele>
        <time>2022-06-25T10:31:56.882Z</time>
      </trkpt>
      <trkpt lat="48.68722" lon="-3.96986">
        <ele>5.13</ele>
        <time>2022-06-25T10:32:05.906Z</time>
      </trkpt>
      <trkpt lat="48.68731" lon="-3.96981">
        <ele>5.12</ele>
        <time>2022-06-25T10:32:15.506Z</time>
      </trkpt>
      <trkpt lat="48.6874" lon="-3.96975">
        <ele>4.12</ele>
        <time>2022-06-25T10:32:24.508Z</time>
      </trkpt>
      <trkpt lat="48.68748" lon="-3.96969">
        <ele>5.11</ele>
        <time>2022-06-25T10:32:34.526Z</time>
      </trkpt>
      <trkpt lat="48.68757" lon="-3.96962">
        <ele>5.11</ele>
        <time>2022-06-25T10:32:44.587Z</time>
      </trkpt>
      <trkpt lat="48.68765" lon="-3.96955">
        <ele>5.05</ele>
        <time>2022-06-25T10:32:53.623Z</time>
      </trkpt>
      <trkpt lat="48.68774" lon="-3.9695">
        <ele>5.11</ele>
        <time>2022-06-25T10:33:02.980Z</time>
      </trkpt>
      <trkpt lat="48.68784" lon="-3.96945">
        <ele>4.86</ele>
        <time>2022-06-25T10:33:12.541Z</time>
      </trkpt>
      <trkpt lat="48.68793" lon="-3.9694">
        <ele>5.11</ele>
        <time>2022-06-25T10:33:22.544Z</time>
      </trkpt>
      <trkpt lat="48.68802" lon="-3.96933">
        <ele>6.11</ele>
        <time>2022-06-25T10:33:32.666Z</time>
      </trkpt>
      <trkpt lat="48.68812" lon="-3.96925">
        <ele>6.11</ele>
        <time>2022-06-25T10:33:42.523Z</time>
      </trkpt>
      <trkpt lat="48.68823" lon="-3.96919">
        <ele>6.11</ele>
        <time>2022-06-25T10:33:52.446Z</time>
      </trkpt>
      <trkpt lat="48.68834" lon="-3.96916">
        <ele>6.09</ele>
        <time>2022-06-25T10:34:02.449Z</time>
      </trkpt>
      <trkpt lat="48.68844" lon="-3.96912">
        <ele>6.11</ele>
        <time>2022-06-25T10:34:12.000Z</time>
      </trkpt>
      <trkpt lat="48.68855" lon="-3.96906">
        <ele>5.11</ele>
        <time>2022-06-25T10:34:21.401Z</time>
      </trkpt>
      <trkpt lat="48.68863" lon="-3.96903">
        <ele>6.11</ele>
        <time>2022-06-25T10:34:31.000Z</time>
      </trkpt>
      <trkpt lat="48.68872" lon="-3.969">
        <ele>6.11</ele>
        <time>2022-06-25T10:34:40.524Z</time>
      </trkpt>
      <trkpt lat="48.68882" lon="-3.96897">
        <ele>5.82</ele>
        <time>2022-06-25T10:34:49.806Z</time>
      </trkpt>
      <trkpt lat="48.68891" lon="-3.96895">
        <ele>5.81</ele>
        <time>2022-06-25T10:34:59.000Z</time>
      </trkpt>
      <trkpt lat="48.689" lon="-3.96903">
        <ele>5.81</ele>
        <time>2022-06-25T10:35:09.144Z</time>
      </trkpt>
      <trkpt lat="48.68902" lon="-3.96905">
        <ele>6.81</ele>
        <time>2022-06-25T10:35:18.266Z</time>
      </trkpt>
      <trkpt lat="48.68901" lon="-3.96907">
        <ele>6.81</ele>
        <time>2022-06-25T10:35:28.000Z</time>
      </trkpt>
      <trkpt lat="48.68902" lon="-3.96907">
        <ele>6.91</ele>
        <time>2022-06-25T10:35:37.442Z</time>
      </trkpt>
      <trkpt lat="48.68903" lon="-3.96908">
        <ele>6.91</ele>
        <time>2022-06-25T10:35:52.000Z</time>
      </trkpt>
      <trkpt lat="48.68903" lon="-3.96909">
        <ele>6.81</ele>
        <time>2022-06-25T10:36:16.000Z</time>
      </trkpt>
      <trkpt lat="48.68904" lon="-3.9691">
        <ele>6.82</ele>
        <time>2022-06-25T10:36:26.000Z</time>
      </trkpt>
      <trkpt lat="48.68905" lon="-3.9691">
        <ele>6.91</ele>
        <time>2022-06-25T10:36:54.000Z</time>
      </trkpt>
      <trkpt lat="48.68906" lon="-3.96909">
        <ele>6.81</ele>
        <time>2022-06-25T10:37:14.000Z</time>
      </trkpt>
      <trkpt lat="48.68906" lon="-3.96911">
        <ele>6.81</ele>
        <time>2022-06-25T10:39:58.000Z</time>
      </trkpt>
      <trkpt lat="48.68905" lon="-3.96911">
        <ele>6.81</ele>
        <time>2022-06-25T10:40:49.000Z</time>
      </trkpt>
      <trkpt lat="48.68909" lon="-3.96885">
        <ele>5.81</ele>
        <time>2022-06-25T11:56:35.000Z</time>
      </trkpt>
      <trkpt lat="48.68911" lon="-3.96884">
        <ele>5.81</ele>
        <time>2022-06-25T11:56:50.000Z</time>
      </trkpt>
      <trkpt lat="48.68919" lon="-3.96881">
        <ele>6.81</ele>
        <time>2022-06-25T11:57:00.000Z</time>
      </trkpt>
      <trkpt lat="48.68928" lon="-3.96876">
        <ele>5.81</ele>
        <time>2022-06-25T11:57:10.000Z</time>
      </trkpt>
      <trkpt lat="48.68935" lon="-3.96872">
        <ele>5.81</ele>
        <time>2022-06-25T11:57:19.202Z</time>
      </trkpt>
      <trkpt lat="48.68943" lon="-3.96868">
        <ele>5.81</ele>
        <time>2022-06-25T11:57:28.404Z</time>
      </trkpt>
      <trkpt lat="48.6895" lon="-3.96866">
        <ele>5.29</ele>
        <time>2022-06-25T11:57:38.000Z</time>
      </trkpt>
      <trkpt lat="48.68956" lon="-3.96863">
        <ele>6.11</ele>
        <time>2022-06-25T11:57:47.242Z</time>
      </trkpt>
      <trkpt lat="48.68964" lon="-3.9686">
        <ele>5.11</ele>
        <time>2022-06-25T11:57:56.443Z</time>
      </trkpt>
      <trkpt lat="48.68972" lon="-3.96854">
        <ele>5.82</ele>
        <time>2022-06-25T11:58:05.604Z</time>
      </trkpt>
      <trkpt lat="48.6898" lon="-3.96847">
        <ele>5.82</ele>
        <time>2022-06-25T11:58:15.261Z</time>
      </trkpt>
      <trkpt lat="48.68988" lon="-3.9684">
        <ele>7.41</ele>
        <time>2022-06-25T11:58:24.624Z</time>
      </trkpt>
      <trkpt lat="48.68996" lon="-3.96833">
        <ele>7.71</ele>
        <time>2022-06-25T11:58:33.941Z</time>
      </trkpt>
      <trkpt lat="48.69003" lon="-3.96829">
        <ele>7.23</ele>
        <time>2022-06-25T11:58:43.000Z</time>
      </trkpt>
      <trkpt lat="48.69013" lon="-3.96821">
        <ele>7.49</ele>
        <time>2022-06-25T11:58:52.124Z</time>
      </trkpt>
      <trkpt lat="48.6902" lon="-3.96812">
        <ele>7.42</ele>
        <time>2022-06-25T11:59:01.403Z</time>
      </trkpt>
      <trkpt lat="48.69024" lon="-3.968">
        <ele>7.22</ele>
        <time>2022-06-25T11:59:11.000Z</time>
      </trkpt>
      <trkpt lat="48.69029" lon="-3.9679">
        <ele>7.21</ele>
        <time>2022-06-25T11:59:21.000Z</time>
      </trkpt>
      <trkpt lat="48.69037" lon="-3.96792">
        <ele>2.12</ele>
        <time>2022-06-25T11:59:30.320Z</time>
      </trkpt>
      <trkpt lat="48.69043" lon="-3.96786">
        <ele>6.93</ele>
        <time>2022-06-25T11:59:40.000Z</time>
      </trkpt>
      <trkpt lat="48.69051" lon="-3.9678">
        <ele>7.72</ele>
        <time>2022-06-25T11:59:50.000Z</time>
      </trkpt>
      <trkpt lat="48.69057" lon="-3.96782">
        <ele>7.72</ele>
        <time>2022-06-25T11:59:59.123Z</time>
      </trkpt>
      <trkpt lat="48.69066" lon="-3.96782">
        <ele>7.72</ele>
        <time>2022-06-25T12:00:08.304Z</time>
      </trkpt>
      <trkpt lat="48.69074" lon="-3.96788">
        <ele>7.72</ele>
        <time>2022-06-25T12:00:17.485Z</time>
      </trkpt>
      <trkpt lat="48.69081" lon="-3.96799">
        <ele>6.72</ele>
        <time>2022-06-25T12:00:27.523Z</time>
      </trkpt>
      <trkpt lat="48.69086" lon="-3.96807">
        <ele>6.72</ele>
        <time>2022-06-25T12:00:37.000Z</time>
      </trkpt>
      <trkpt lat="48.69093" lon="-3.96819">
        <ele>6.72</ele>
        <time>2022-06-25T12:00:46.247Z</time>
      </trkpt>
      <trkpt lat="48.691" lon="-3.96826">
        <ele>0.1</ele>
        <time>2022-06-25T12:00:55.305Z</time>
      </trkpt>
      <trkpt lat="48.69109" lon="-3.96829">
        <ele>6.72</ele>
        <time>2022-06-25T12:01:04.409Z</time>
      </trkpt>
      <trkpt lat="48.6912" lon="-3.96825">
        <ele>6.92</ele>
        <time>2022-06-25T12:01:13.903Z</time>
      </trkpt>
      <trkpt lat="48.69132" lon="-3.96823">
        <ele>6.92</ele>
        <time>2022-06-25T12:01:24.030Z</time>
      </trkpt>
      <trkpt lat="48.69141" lon="-3.96822">
        <ele>6.92</ele>
        <time>2022-06-25T12:01:34.000Z</time>
      </trkpt>
      <trkpt lat="48.69145" lon="-3.96819">
        <ele>7.82</ele>
        <time>2022-06-25T12:01:44.000Z</time>
      </trkpt>
      <trkpt lat="48.69155" lon="-3.96815">
        <ele>3.12</ele>
        <time>2022-06-25T12:01:54.363Z</time>
      </trkpt>
      <trkpt lat="48.69162" lon="-3.9681">
        <ele>2.12</ele>
        <time>2022-06-25T12:02:03.804Z</time>
      </trkpt>
      <trkpt lat="48.6917" lon="-3.96804">
        <ele>6.92</ele>
        <time>2022-06-25T12:02:13.000Z</time>
      </trkpt>
      <trkpt lat="48.69177" lon="-3.96795">
        <ele>9.72</ele>
        <time>2022-06-25T12:02:22.347Z</time>
      </trkpt>
      <trkpt lat="48.69185" lon="-3.96789">
        <ele>9.72</ele>
        <time>2022-06-25T12:02:32.000Z</time>
      </trkpt>
      <trkpt lat="48.69194" lon="-3.96786">
        <ele>9.72</ele>
        <time>2022-06-25T12:02:41.365Z</time>
      </trkpt>
      <trkpt lat="48.69203" lon="-3.96781">
        <ele>9.72</ele>
        <time>2022-06-25T12:02:51.000Z</time>
      </trkpt>
      <trkpt lat="48.69211" lon="-3.96772">
        <ele>8.42</ele>
        <time>2022-06-25T12:03:00.487Z</time>
      </trkpt>
      <trkpt lat="48.69222" lon="-3.96767">
        <ele>8.42</ele>
        <time>2022-06-25T12:03:10.000Z</time>
      </trkpt>
      <trkpt lat="48.69232" lon="-3.96764">
        <ele>8.42</ele>
        <time>2022-06-25T12:03:19.462Z</time>
      </trkpt>
      <trkpt lat="48.6924" lon="-3.9676">
        <ele>9.72</ele>
        <time>2022-06-25T12:03:28.647Z</time>
      </trkpt>
      <trkpt lat="48.6925" lon="-3.96755">
        <ele>9.72</ele>
        <time>2022-06-25T12:03:37.985Z</time>
      </trkpt>
      <trkpt lat="48.69254" lon="-3.96754">
        <ele>9.72</ele>
        <time>2022-06-25T12:03:47.186Z</time>
      </trkpt>
      <trkpt lat="48.69263" lon="-3.96753">
        <ele>9.72</ele>
        <time>2022-06-25T12:03:56.522Z</time>
      </trkpt>
      <trkpt lat="48.69273" lon="-3.96751">
        <ele>4.72</ele>
        <time>2022-06-25T12:04:06.084Z</time>
      </trkpt>
      <trkpt lat="48.69284" lon="-3.96753">
        <ele>4.72</ele>
        <time>2022-06-25T12:04:16.044Z</time>
      </trkpt>
      <trkpt lat="48.69292" lon="-3.96756">
        <ele>6.22</ele>
        <time>2022-06-25T12:04:25.108Z</time>
      </trkpt>
      <trkpt lat="48.693" lon="-3.96764">
        <ele>6.22</ele>
        <time>2022-06-25T12:04:35.000Z</time>
      </trkpt>
      <trkpt lat="48.69302" lon="-3.96777">
        <ele>4.72</ele>
        <time>2022-06-25T12:04:44.387Z</time>
      </trkpt>
      <trkpt lat="48.69303" lon="-3.96793">
        <ele>4.72</ele>
        <time>2022-06-25T12:04:54.000Z</time>
      </trkpt>
      <trkpt lat="48.69309" lon="-3.96808">
        <ele>4.72</ele>
        <time>2022-06-25T12:05:03.006Z</time>
      </trkpt>
      <trkpt lat="48.69312" lon="-3.96819">
        <ele>4.72</ele>
        <time>2022-06-25T12:05:12.166Z</time>
      </trkpt>
      <trkpt lat="48.69318" lon="-3.96832">
        <ele>4.72</ele>
        <time>2022-06-25T12:05:21.463Z</time>
      </trkpt>
      <trkpt lat="48.69323" lon="-3.96845">
        <ele>-2.88</ele>
        <time>2022-06-25T12:05:30.705Z</time>
      </trkpt>
      <trkpt lat="48.69328" lon="-3.96858">
        <ele>-1.13</ele>
        <time>2022-06-25T12:05:39.986Z</time>
      </trkpt>
      <trkpt lat="48.69332" lon="-3.96871">
        <ele>-2.87</ele>
        <time>2022-06-25T12:05:49.000Z</time>
      </trkpt>
      <trkpt lat="48.6933" lon="-3.96868">
        <ele>-1.88</ele>
        <time>2022-06-25T12:05:59.000Z</time>
      </trkpt>
      <trkpt lat="48.6933" lon="-3.96867">
        <ele>-1.88</ele>
        <time>2022-06-25T12:06:09.000Z</time>
      </trkpt>
      <trkpt lat="48.69331" lon="-3.96868">
        <ele>-0.88</ele>
        <time>2022-06-25T12:07:06.000Z</time>
      </trkpt>
      <trkpt lat="48.69335" lon="-3.96877">
        <ele>0.12</ele>
        <time>2022-06-25T12:07:15.207Z</time>
      </trkpt>
      <trkpt lat="48.6934" lon="-3.96894">
        <ele>0.12</ele>
        <time>2022-06-25T12:07:24.544Z</time>
      </trkpt>
      <trkpt lat="48.69345" lon="-3.96904">
        <ele>0.12</ele>
        <time>2022-06-25T12:07:34.000Z</time>
      </trkpt>
      <trkpt lat="48.6935" lon="-3.96919">
        <ele>0.35</ele>
        <time>2022-06-25T12:07:43.229Z</time>
      </trkpt>
      <trkpt lat="48.69356" lon="-3.96931">
        <ele>0.12</ele>
        <time>2022-06-25T12:07:52.526Z</time>
      </trkpt>
      <trkpt lat="48.69363" lon="-3.96945">
        <ele>0.12</ele>
        <time>2022-06-25T12:08:01.761Z</time>
      </trkpt>
      <trkpt lat="48.6937" lon="-3.96957">
        <ele>0.12</ele>
        <time>2022-06-25T12:08:11.564Z</time>
      </trkpt>
      <trkpt lat="48.69374" lon="-3.96969">
        <ele>0.12</ele>
        <time>2022-06-25T12:08:21.000Z</time>
      </trkpt>
      <trkpt lat="48.69379" lon="-3.96982">
        <ele>0.12</ele>
        <time>2022-06-25T12:08:30.505Z</time>
      </trkpt>
      <trkpt lat="48.69387" lon="-3.96993">
        <ele>0.31</ele>
        <time>2022-06-25T12:08:39.908Z</time>
      </trkpt>
      <trkpt lat="48.69393" lon="-3.97005">
        <ele>0.12</ele>
        <time>2022-06-25T12:08:49.000Z</time>
      </trkpt>
      <trkpt lat="48.69398" lon="-3.97018">
        <ele>0.87</ele>
        <time>2022-06-25T12:08:58.482Z</time>
      </trkpt>
      <trkpt lat="48.69407" lon="-3.97026">
        <ele>1.11</ele>
        <time>2022-06-25T12:09:07.642Z</time>
      </trkpt>
      <trkpt lat="48.69414" lon="-3.97035">
        <ele>0.12</ele>
        <time>2022-06-25T12:09:17.340Z</time>
      </trkpt>
      <trkpt lat="48.69422" lon="-3.97046">
        <ele>1.12</ele>
        <time>2022-06-25T12:09:26.422Z</time>
      </trkpt>
      <trkpt lat="48.6943" lon="-3.97056">
        <ele>2.12</ele>
        <time>2022-06-25T12:09:35.426Z</time>
      </trkpt>
      <trkpt lat="48.69437" lon="-3.97067">
        <ele>2.12</ele>
        <time>2022-06-25T12:09:45.508Z</time>
      </trkpt>
      <trkpt lat="48.69442" lon="-3.97079">
        <ele>2.12</ele>
        <time>2022-06-25T12:09:55.029Z</time>
      </trkpt>
      <trkpt lat="48.6945" lon="-3.97095">
        <ele>2.12</ele>
        <time>2022-06-25T12:10:04.224Z</time>
      </trkpt>
      <trkpt lat="48.69458" lon="-3.97104">
        <ele>1.37</ele>
        <time>2022-06-25T12:10:13.385Z</time>
      </trkpt>
      <trkpt lat="48.69462" lon="-3.97106">
        <ele>2.12</ele>
        <time>2022-06-25T12:10:23.000Z</time>
      </trkpt>
      <trkpt lat="48.69463" lon="-3.97108">
        <ele>2.12</ele>
        <time>2022-06-25T12:10:32.587Z</time>
      </trkpt>
      <trkpt lat="48.6947" lon="-3.97119">
        <ele>2.12</ele>
        <time>2022-06-25T12:10:42.000Z</time>
      </trkpt>
      <trkpt lat="48.69474" lon="-3.97133">
        <ele>2.12</ele>
        <time>2022-06-25T12:10:51.221Z</time>
      </trkpt>
      <trkpt lat="48.69473" lon="-3.97145">
        <ele>1.12</ele>
        <time>2022-06-25T12:11:00.583Z</time>
      </trkpt>
      <trkpt lat="48.69477" lon="-3.97155">
        <ele>0.13</ele>
        <time>2022-06-25T12:11:10.000Z</time>
      </trkpt>
      <trkpt lat="48.69478" lon="-3.97155">
        <ele>2.06</ele>
        <time>2022-06-25T12:11:20.000Z</time>
      </trkpt>
      <trkpt lat="48.69482" lon="-3.97167">
        <ele>3.1</ele>
        <time>2022-06-25T12:11:29.324Z</time>
      </trkpt>
      <trkpt lat="48.69483" lon="-3.97165">
        <ele>2.12</ele>
        <time>2022-06-25T12:11:39.000Z</time>
      </trkpt>
      <trkpt lat="48.6949" lon="-3.97173">
        <ele>1.06</ele>
        <time>2022-06-25T12:11:48.607Z</time>
      </trkpt>
      <trkpt lat="48.69495" lon="-3.97182">
        <ele>0.87</ele>
        <time>2022-06-25T12:11:57.944Z</time>
      </trkpt>
      <trkpt lat="48.69502" lon="-3.9719">
        <ele>0.37</ele>
        <time>2022-06-25T12:12:07.000Z</time>
      </trkpt>
      <trkpt lat="48.69507" lon="-3.97198">
        <ele>-0.88</ele>
        <time>2022-06-25T12:12:16.587Z</time>
      </trkpt>
      <trkpt lat="48.69511" lon="-3.9721">
        <ele>-0.88</ele>
        <time>2022-06-25T12:12:25.868Z</time>
      </trkpt>
      <trkpt lat="48.6952" lon="-3.9722">
        <ele>-0.88</ele>
        <time>2022-06-25T12:12:36.186Z</time>
      </trkpt>
      <trkpt lat="48.69526" lon="-3.97229">
        <ele>-1.88</ele>
        <time>2022-06-25T12:12:45.282Z</time>
      </trkpt>
      <trkpt lat="48.69532" lon="-3.97238">
        <ele>-1.88</ele>
        <time>2022-06-25T12:12:54.285Z</time>
      </trkpt>
      <trkpt lat="48.69538" lon="-3.97248">
        <ele>-2.82</ele>
        <time>2022-06-25T12:13:03.302Z</time>
      </trkpt>
      <trkpt lat="48.69547" lon="-3.97259">
        <ele>-2.13</ele>
        <time>2022-06-25T12:13:13.000Z</time>
      </trkpt>
      <trkpt lat="48.69553" lon="-3.97271">
        <ele>-1.87</ele>
        <time>2022-06-25T12:13:22.342Z</time>
      </trkpt>
      <trkpt lat="48.69557" lon="-3.97278">
        <ele>20.22</ele>
        <time>2022-06-25T12:13:32.000Z</time>
      </trkpt>
      <trkpt lat="48.69564" lon="-3.97283">
        <ele>16.92</ele>
        <time>2022-06-25T12:13:41.365Z</time>
      </trkpt>
      <trkpt lat="48.69572" lon="-3.97291">
        <ele>16.92</ele>
        <time>2022-06-25T12:13:50.406Z</time>
      </trkpt>
      <trkpt lat="48.69579" lon="-3.97298">
        <ele>16.92</ele>
        <time>2022-06-25T12:14:00.507Z</time>
      </trkpt>
      <trkpt lat="48.69586" lon="-3.97309">
        <ele>16.92</ele>
        <time>2022-06-25T12:14:10.647Z</time>
      </trkpt>
      <trkpt lat="48.69593" lon="-3.97316">
        <ele>16.92</ele>
        <time>2022-06-25T12:14:20.662Z</time>
      </trkpt>
      <trkpt lat="48.69599" lon="-3.97324">
        <ele>20.22</ele>
        <time>2022-06-25T12:14:30.000Z</time>
      </trkpt>
      <trkpt lat="48.69609" lon="-3.97337">
        <ele>20.22</ele>
        <time>2022-06-25T12:14:39.127Z</time>
      </trkpt>
      <trkpt lat="48.69615" lon="-3.97347">
        <ele>20.22</ele>
        <time>2022-06-25T12:14:48.405Z</time>
      </trkpt>
      <trkpt lat="48.69621" lon="-3.97354">
        <ele>20.22</ele>
        <time>2022-06-25T12:14:58.000Z</time>
      </trkpt>
      <trkpt lat="48.69632" lon="-3.97364">
        <ele>20.22</ele>
        <time>2022-06-25T12:15:07.505Z</time>
      </trkpt>
      <trkpt lat="48.69638" lon="-3.9737">
        <ele>20.22</ele>
        <time>2022-06-25T12:15:17.000Z</time>
      </trkpt>
      <trkpt lat="48.69645" lon="-3.97376">
        <ele>20.22</ele>
        <time>2022-06-25T12:15:26.525Z</time>
      </trkpt>
      <trkpt lat="48.69656" lon="-3.97388">
        <ele>20.22</ele>
        <time>2022-06-25T12:15:36.000Z</time>
      </trkpt>
      <trkpt lat="48.69667" lon="-3.97398">
        <ele>20.22</ele>
        <time>2022-06-25T12:15:45.368Z</time>
      </trkpt>
      <trkpt lat="48.69675" lon="-3.97404">
        <ele>20.22</ele>
        <time>2022-06-25T12:15:54.504Z</time>
      </trkpt>
      <trkpt lat="48.69682" lon="-3.97412">
        <ele>2.37</ele>
        <time>2022-06-25T12:16:04.088Z</time>
      </trkpt>
      <trkpt lat="48.6969" lon="-3.97422">
        <ele>2.12</ele>
        <time>2022-06-25T12:16:13.186Z</time>
      </trkpt>
      <trkpt lat="48.69696" lon="-3.9743">
        <ele>2.12</ele>
        <time>2022-06-25T12:16:22.188Z</time>
      </trkpt>
      <trkpt lat="48.69703" lon="-3.97438">
        <ele>1.12</ele>
        <time>2022-06-25T12:16:31.202Z</time>
      </trkpt>
      <trkpt lat="48.69708" lon="-3.97445">
        <ele>1.12</ele>
        <time>2022-06-25T12:16:40.264Z</time>
      </trkpt>
      <trkpt lat="48.69718" lon="-3.97454">
        <ele>1.17</ele>
        <time>2022-06-25T12:16:49.346Z</time>
      </trkpt>
      <trkpt lat="48.69727" lon="-3.9746">
        <ele>0.87</ele>
        <time>2022-06-25T12:16:59.000Z</time>
      </trkpt>
      <trkpt lat="48.69733" lon="-3.97467">
        <ele>0.12</ele>
        <time>2022-06-25T12:17:08.001Z</time>
      </trkpt>
      <trkpt lat="48.69736" lon="-3.97472">
        <ele>4.71</ele>
        <time>2022-06-25T12:17:18.000Z</time>
      </trkpt>
      <trkpt lat="48.69739" lon="-3.97472">
        <ele>4.72</ele>
        <time>2022-06-25T12:17:28.000Z</time>
      </trkpt>
      <trkpt lat="48.69744" lon="-3.97482">
        <ele>4.72</ele>
        <time>2022-06-25T12:17:38.000Z</time>
      </trkpt>
      <trkpt lat="48.69748" lon="-3.9749">
        <ele>4.72</ele>
        <time>2022-06-25T12:17:47.383Z</time>
      </trkpt>
      <trkpt lat="48.6975" lon="-3.97503">
        <ele>4.72</ele>
        <time>2022-06-25T12:17:57.205Z</time>
      </trkpt>
      <trkpt lat="48.69752" lon="-3.97503">
        <ele>4.72</ele>
        <time>2022-06-25T12:18:06.540Z</time>
      </trkpt>
      <trkpt lat="48.69753" lon="-3.9751">
        <ele>4.72</ele>
        <time>2022-06-25T12:18:16.546Z</time>
      </trkpt>
      <trkpt lat="48.69759" lon="-3.97518">
        <ele>4.72</ele>
        <time>2022-06-25T12:18:25.661Z</time>
      </trkpt>
      <trkpt lat="48.6977" lon="-3.97517">
        <ele>4.72</ele>
        <time>2022-06-25T12:18:35.106Z</time>
      </trkpt>
      <trkpt lat="48.69777" lon="-3.97516">
        <ele>4.72</ele>
        <time>2022-06-25T12:18:45.000Z</time>
      </trkpt>
      <trkpt lat="48.69778" lon="-3.97517">
        <ele>-4.88</ele>
        <time>2022-06-25T12:18:55.000Z</time>
      </trkpt>
      <trkpt lat="48.69779" lon="-3.97517">
        <ele>-4.13</ele>
        <time>2022-06-25T12:19:12.000Z</time>
      </trkpt>
      <trkpt lat="48.6978" lon="-3.97518">
        <ele>-2.64</ele>
        <time>2022-06-25T12:19:38.000Z</time>
      </trkpt>
      <trkpt lat="48.69782" lon="-3.9752">
        <ele>-1.88</ele>
        <time>2022-06-25T12:19:48.000Z</time>
      </trkpt>
      <trkpt lat="48.69783" lon="-3.9752">
        <ele>-1.88</ele>
        <time>2022-06-25T12:20:05.000Z</time>
      </trkpt>
      <trkpt lat="48.69784" lon="-3.97519">
        <ele>0.12</ele>
        <time>2022-06-25T12:20:34.000Z</time>
      </trkpt>
      <trkpt lat="48.69784" lon="-3.9752">
        <ele>1.85</ele>
        <time>2022-06-25T12:21:19.000Z</time>
      </trkpt>
      <trkpt lat="48.69786" lon="-3.97522">
        <ele>0.93</ele>
        <time>2022-06-25T12:21:29.000Z</time>
      </trkpt>
      <trkpt lat="48.69795" lon="-3.97528">
        <ele>1.12</ele>
        <time>2022-06-25T12:21:38.327Z</time>
      </trkpt>
      <trkpt lat="48.69802" lon="-3.97536">
        <ele>1.12</ele>
        <time>2022-06-25T12:21:48.000Z</time>
      </trkpt>
      <trkpt lat="48.69809" lon="-3.97545">
        <ele>0.87</ele>
        <time>2022-06-25T12:21:57.087Z</time>
      </trkpt>
      <trkpt lat="48.69815" lon="-3.97555">
        <ele>2.62</ele>
        <time>2022-06-25T12:22:07.000Z</time>
      </trkpt>
      <trkpt lat="48.69824" lon="-3.97565">
        <ele>2.37</ele>
        <time>2022-06-25T12:22:17.000Z</time>
      </trkpt>
      <trkpt lat="48.69826" lon="-3.97573">
        <ele>3.12</ele>
        <time>2022-06-25T12:22:26.087Z</time>
      </trkpt>
      <trkpt lat="48.69827" lon="-3.97583">
        <ele>2.12</ele>
        <time>2022-06-25T12:22:35.187Z</time>
      </trkpt>
      <trkpt lat="48.69833" lon="-3.97595">
        <ele>0.12</ele>
        <time>2022-06-25T12:22:44.304Z</time>
      </trkpt>
      <trkpt lat="48.69836" lon="-3.97611">
        <ele>0.12</ele>
        <time>2022-06-25T12:22:53.605Z</time>
      </trkpt>
      <trkpt lat="48.69837" lon="-3.97626">
        <ele>0.12</ele>
        <time>2022-06-25T12:23:03.002Z</time>
      </trkpt>
      <trkpt lat="48.69836" lon="-3.97641">
        <ele>0.14</ele>
        <time>2022-06-25T12:23:12.485Z</time>
      </trkpt>
      <trkpt lat="48.69834" lon="-3.97653">
        <ele>0.37</ele>
        <time>2022-06-25T12:23:21.985Z</time>
      </trkpt>
      <trkpt lat="48.69837" lon="-3.97666">
        <ele>1.12</ele>
        <time>2022-06-25T12:23:31.483Z</time>
      </trkpt>
      <trkpt lat="48.69843" lon="-3.97674">
        <ele>0.18</ele>
        <time>2022-06-25T12:23:41.044Z</time>
      </trkpt>
      <trkpt lat="48.69851" lon="-3.97677">
        <ele>0.12</ele>
        <time>2022-06-25T12:23:50.401Z</time>
      </trkpt>
      <trkpt lat="48.6986" lon="-3.9768">
        <ele>0.06</ele>
        <time>2022-06-25T12:23:59.565Z</time>
      </trkpt>
      <trkpt lat="48.69868" lon="-3.97683">
        <ele>0.12</ele>
        <time>2022-06-25T12:24:09.000Z</time>
      </trkpt>
      <trkpt lat="48.69874" lon="-3.97676">
        <ele>1.1</ele>
        <time>2022-06-25T12:24:19.382Z</time>
      </trkpt>
      <trkpt lat="48.69879" lon="-3.97662">
        <ele>1.18</ele>
        <time>2022-06-25T12:24:28.507Z</time>
      </trkpt>
      <trkpt lat="48.69885" lon="-3.97651">
        <ele>3.06</ele>
        <time>2022-06-25T12:24:37.564Z</time>
      </trkpt>
      <trkpt lat="48.69886" lon="-3.97644">
        <ele>2.12</ele>
        <time>2022-06-25T12:24:47.000Z</time>
      </trkpt>
      <trkpt lat="48.69887" lon="-3.97629">
        <ele>2.12</ele>
        <time>2022-06-25T12:24:56.262Z</time>
      </trkpt>
      <trkpt lat="48.69889" lon="-3.97617">
        <ele>1.14</ele>
        <time>2022-06-25T12:25:05.442Z</time>
      </trkpt>
      <trkpt lat="48.69893" lon="-3.97605">
        <ele>-0.86</ele>
        <time>2022-06-25T12:25:14.921Z</time>
      </trkpt>
      <trkpt lat="48.69898" lon="-3.97601">
        <ele>5.85</ele>
        <time>2022-06-25T12:25:24.000Z</time>
      </trkpt>
      <trkpt lat="48.69901" lon="-3.97595">
        <ele>12.62</ele>
        <time>2022-06-25T12:25:33.022Z</time>
      </trkpt>
      <trkpt lat="48.69909" lon="-3.97594">
        <ele>6.92</ele>
        <time>2022-06-25T12:25:42.584Z</time>
      </trkpt>
      <trkpt lat="48.69914" lon="-3.97603">
        <ele>-2.88</ele>
        <time>2022-06-25T12:25:53.000Z</time>
      </trkpt>
      <trkpt lat="48.69923" lon="-3.97606">
        <ele>6.92</ele>
        <time>2022-06-25T12:26:02.623Z</time>
      </trkpt>
      <trkpt lat="48.69932" lon="-3.97608">
        <ele>-3.88</ele>
        <time>2022-06-25T12:26:12.606Z</time>
      </trkpt>
      <trkpt lat="48.69938" lon="-3.97617">
        <ele>6.92</ele>
        <time>2022-06-25T12:26:22.000Z</time>
      </trkpt>
      <trkpt lat="48.69944" lon="-3.97621">
        <ele>8.42</ele>
        <time>2022-06-25T12:26:31.322Z</time>
      </trkpt>
      <trkpt lat="48.69952" lon="-3.97625">
        <ele>6.92</ele>
        <time>2022-06-25T12:26:40.365Z</time>
      </trkpt>
      <trkpt lat="48.69958" lon="-3.97628">
        <ele>8.05</ele>
        <time>2022-06-25T12:26:50.000Z</time>
      </trkpt>
      <trkpt lat="48.69964" lon="-3.97632">
        <ele>8.42</ele>
        <time>2022-06-25T12:26:59.604Z</time>
      </trkpt>
      <trkpt lat="48.69965" lon="-3.97631">
        <ele>8.42</ele>
        <time>2022-06-25T12:27:10.000Z</time>
      </trkpt>
      <trkpt lat="48.69966" lon="-3.9763">
        <ele>8.42</ele>
        <time>2022-06-25T12:27:37.000Z</time>
      </trkpt>
      <trkpt lat="48.69967" lon="-3.9763">
        <ele>-0.88</ele>
        <time>2022-06-25T12:27:52.000Z</time>
      </trkpt>
      <trkpt lat="48.69976" lon="-3.97636">
        <ele>0.12</ele>
        <time>2022-06-25T12:28:01.485Z</time>
      </trkpt>
      <trkpt lat="48.69985" lon="-3.9763">
        <ele>0.12</ele>
        <time>2022-06-25T12:28:11.602Z</time>
      </trkpt>
      <trkpt lat="48.69993" lon="-3.97632">
        <ele>5.46</ele>
        <time>2022-06-25T12:28:21.082Z</time>
      </trkpt>
      <trkpt lat="48.69998" lon="-3.97627">
        <ele>6.92</ele>
        <time>2022-06-25T12:28:31.000Z</time>
      </trkpt>
      <trkpt lat="48.69998" lon="-3.97628">
        <ele>8.42</ele>
        <time>2022-06-25T12:28:54.000Z</time>
      </trkpt>
      <trkpt lat="48.7" lon="-3.97627">
        <ele>8.42</ele>
        <time>2022-06-25T12:29:04.000Z</time>
      </trkpt>
      <trkpt lat="48.7" lon="-3.97626">
        <ele>8.42</ele>
        <time>2022-06-25T12:29:30.000Z</time>
      </trkpt>
      <trkpt lat="48.70007" lon="-3.97618">
        <ele>8.42</ele>
        <time>2022-06-25T12:29:40.000Z</time>
      </trkpt>
      <trkpt lat="48.70013" lon="-3.97607">
        <ele>8.42</ele>
        <time>2022-06-25T12:29:49.541Z</time>
      </trkpt>
      <trkpt lat="48.70017" lon="-3.97601">
        <ele>8.42</ele>
        <time>2022-06-25T12:29:58.560Z</time>
      </trkpt>
      <trkpt lat="48.70024" lon="-3.97593">
        <ele>8.42</ele>
        <time>2022-06-25T12:30:08.021Z</time>
      </trkpt>
      <trkpt lat="48.70032" lon="-3.97586">
        <ele>8.42</ele>
        <time>2022-06-25T12:30:17.582Z</time>
      </trkpt>
      <trkpt lat="48.70039" lon="-3.9758">
        <ele>8.42</ele>
        <time>2022-06-25T12:30:26.626Z</time>
      </trkpt>
      <trkpt lat="48.70048" lon="-3.9758">
        <ele>8.42</ele>
        <time>2022-06-25T12:30:36.143Z</time>
      </trkpt>
      <trkpt lat="48.70056" lon="-3.97577">
        <ele>8.42</ele>
        <time>2022-06-25T12:30:46.000Z</time>
      </trkpt>
      <trkpt lat="48.70065" lon="-3.97573">
        <ele>8.42</ele>
        <time>2022-06-25T12:30:55.262Z</time>
      </trkpt>
      <trkpt lat="48.70075" lon="-3.97572">
        <ele>8.42</ele>
        <time>2022-06-25T12:31:04.626Z</time>
      </trkpt>
      <trkpt lat="48.70083" lon="-3.97569">
        <ele>4.12</ele>
        <time>2022-06-25T12:31:14.467Z</time>
      </trkpt>
      <trkpt lat="48.70092" lon="-3.97567">
        <ele>5.12</ele>
        <time>2022-06-25T12:31:24.303Z</time>
      </trkpt>
      <trkpt lat="48.70101" lon="-3.97564">
        <ele>6.12</ele>
        <time>2022-06-25T12:31:33.620Z</time>
      </trkpt>
      <trkpt lat="48.70108" lon="-3.97563">
        <ele>3.17</ele>
        <time>2022-06-25T12:31:42.945Z</time>
      </trkpt>
      <trkpt lat="48.70118" lon="-3.97562">
        <ele>4.82</ele>
        <time>2022-06-25T12:31:53.000Z</time>
      </trkpt>
      <trkpt lat="48.70123" lon="-3.9756">
        <ele>4.14</ele>
        <time>2022-06-25T12:32:02.045Z</time>
      </trkpt>
      <trkpt lat="48.70125" lon="-3.97568">
        <ele>4.12</ele>
        <time>2022-06-25T12:32:12.000Z</time>
      </trkpt>
      <trkpt lat="48.70127" lon="-3.97567">
        <ele>4.12</ele>
        <time>2022-06-25T12:32:21.362Z</time>
      </trkpt>
      <trkpt lat="48.70137" lon="-3.97563">
        <ele>5.87</ele>
        <time>2022-06-25T12:32:30.565Z</time>
      </trkpt>
      <trkpt lat="48.70145" lon="-3.9756">
        <ele>6.12</ele>
        <time>2022-06-25T12:32:39.664Z</time>
      </trkpt>
      <trkpt lat="48.70153" lon="-3.97559">
        <ele>7.12</ele>
        <time>2022-06-25T12:32:49.148Z</time>
      </trkpt>
      <trkpt lat="48.7016" lon="-3.97558">
        <ele>7.12</ele>
        <time>2022-06-25T12:32:58.224Z</time>
      </trkpt>
      <trkpt lat="48.70167" lon="-3.97558">
        <ele>8.11</ele>
        <time>2022-06-25T12:33:07.228Z</time>
      </trkpt>
      <trkpt lat="48.70176" lon="-3.97555">
        <ele>10.11</ele>
        <time>2022-06-25T12:33:16.262Z</time>
      </trkpt>
      <trkpt lat="48.70185" lon="-3.97555">
        <ele>10.17</ele>
        <time>2022-06-25T12:33:25.385Z</time>
      </trkpt>
      <trkpt lat="48.70192" lon="-3.97557">
        <ele>11.12</ele>
        <time>2022-06-25T12:33:34.524Z</time>
      </trkpt>
      <trkpt lat="48.702" lon="-3.9756">
        <ele>11.37</ele>
        <time>2022-06-25T12:33:44.068Z</time>
      </trkpt>
      <trkpt lat="48.70208" lon="-3.9756">
        <ele>12.12</ele>
        <time>2022-06-25T12:33:53.421Z</time>
      </trkpt>
      <trkpt lat="48.70217" lon="-3.97564">
        <ele>28.92</ele>
        <time>2022-06-25T12:34:03.542Z</time>
      </trkpt>
      <trkpt lat="48.70227" lon="-3.97564">
        <ele>28.92</ele>
        <time>2022-06-25T12:34:14.000Z</time>
      </trkpt>
      <trkpt lat="48.70234" lon="-3.97564">
        <ele>28.92</ele>
        <time>2022-06-25T12:34:23.144Z</time>
      </trkpt>
      <trkpt lat="48.70242" lon="-3.97565">
        <ele>28.92</ele>
        <time>2022-06-25T12:34:32.163Z</time>
      </trkpt>
      <trkpt lat="48.70249" lon="-3.97564">
        <ele>28.92</ele>
        <time>2022-06-25T12:34:41.604Z</time>
      </trkpt>
      <trkpt lat="48.70255" lon="-3.97563">
        <ele>28.92</ele>
        <time>2022-06-25T12:34:51.087Z</time>
      </trkpt>
      <trkpt lat="48.70261" lon="-3.97565">
        <ele>28.92</ele>
        <time>2022-06-25T12:35:00.466Z</time>
      </trkpt>
      <trkpt lat="48.70269" lon="-3.97568">
        <ele>28.92</ele>
        <time>2022-06-25T12:35:09.845Z</time>
      </trkpt>
      <trkpt lat="48.70279" lon="-3.97572">
        <ele>33.52</ele>
        <time>2022-06-25T12:35:20.000Z</time>
      </trkpt>
      <trkpt lat="48.70286" lon="-3.97576">
        <ele>33.52</ele>
        <time>2022-06-25T12:35:29.182Z</time>
      </trkpt>
      <trkpt lat="48.70297" lon="-3.9758">
        <ele>20.14</ele>
        <time>2022-06-25T12:35:38.846Z</time>
      </trkpt>
      <trkpt lat="48.70304" lon="-3.97584">
        <ele>34.22</ele>
        <time>2022-06-25T12:35:48.000Z</time>
      </trkpt>
      <trkpt lat="48.70312" lon="-3.97591">
        <ele>19.13</ele>
        <time>2022-06-25T12:35:57.002Z</time>
      </trkpt>
      <trkpt lat="48.7032" lon="-3.97596">
        <ele>20.12</ele>
        <time>2022-06-25T12:36:06.123Z</time>
      </trkpt>
      <trkpt lat="48.70329" lon="-3.97597">
        <ele>22.06</ele>
        <time>2022-06-25T12:36:15.408Z</time>
      </trkpt>
      <trkpt lat="48.70339" lon="-3.97604">
        <ele>35.92</ele>
        <time>2022-06-25T12:36:24.986Z</time>
      </trkpt>
      <trkpt lat="48.70347" lon="-3.97608">
        <ele>21.12</ele>
        <time>2022-06-25T12:36:34.000Z</time>
      </trkpt>
      <trkpt lat="48.70355" lon="-3.97612">
        <ele>35.68</ele>
        <time>2022-06-25T12:36:43.483Z</time>
      </trkpt>
      <trkpt lat="48.70366" lon="-3.97617">
        <ele>16.87</ele>
        <time>2022-06-25T12:36:53.000Z</time>
      </trkpt>
      <trkpt lat="48.70375" lon="-3.97616">
        <ele>19.06</ele>
        <time>2022-06-25T12:37:03.000Z</time>
      </trkpt>
      <trkpt lat="48.70378" lon="-3.97614">
        <ele>21.12</ele>
        <time>2022-06-25T12:37:12.427Z</time>
      </trkpt>
      <trkpt lat="48.70379" lon="-3.97617">
        <ele>35.06</ele>
        <time>2022-06-25T12:37:23.000Z</time>
      </trkpt>
      <trkpt lat="48.7038" lon="-3.97617">
        <ele>22.12</ele>
        <time>2022-06-25T12:40:21.000Z</time>
      </trkpt>
      <trkpt lat="48.7038" lon="-3.97628">
        <ele>23.12</ele>
        <time>2022-06-25T12:40:30.404Z</time>
      </trkpt>
      <trkpt lat="48.70382" lon="-3.97636">
        <ele>35.74</ele>
        <time>2022-06-25T12:40:40.000Z</time>
      </trkpt>
      <trkpt lat="48.70386" lon="-3.97639">
        <ele>34.62</ele>
        <time>2022-06-25T12:40:49.264Z</time>
      </trkpt>
      <trkpt lat="48.70388" lon="-3.97641">
        <ele>35.92</ele>
        <time>2022-06-25T12:40:58.392Z</time>
      </trkpt>
      <trkpt lat="48.70399" lon="-3.97648">
        <ele>34.95</ele>
        <time>2022-06-25T12:41:08.335Z</time>
      </trkpt>
      <trkpt lat="48.70408" lon="-3.97653">
        <ele>35.92</ele>
        <time>2022-06-25T12:41:18.000Z</time>
      </trkpt>
      <trkpt lat="48.70417" lon="-3.97654">
        <ele>34.83</ele>
        <time>2022-06-25T12:41:27.220Z</time>
      </trkpt>
      <trkpt lat="48.70426" lon="-3.97654">
        <ele>35.91</ele>
        <time>2022-06-25T12:41:36.405Z</time>
      </trkpt>
      <trkpt lat="48.70435" lon="-3.97653">
        <ele>35.93</ele>
        <time>2022-06-25T12:41:45.486Z</time>
      </trkpt>
      <trkpt lat="48.70441" lon="-3.97651">
        <ele>27.68</ele>
        <time>2022-06-25T12:41:54.541Z</time>
      </trkpt>
      <trkpt lat="48.70446" lon="-3.9765">
        <ele>29.73</ele>
        <time>2022-06-25T12:42:03.981Z</time>
      </trkpt>
      <trkpt lat="48.70457" lon="-3.97649">
        <ele>29.73</ele>
        <time>2022-06-25T12:42:13.000Z</time>
      </trkpt>
      <trkpt lat="48.70468" lon="-3.97647">
        <ele>35.92</ele>
        <time>2022-06-25T12:42:22.343Z</time>
      </trkpt>
      <trkpt lat="48.70473" lon="-3.97645">
        <ele>29.73</ele>
        <time>2022-06-25T12:42:32.000Z</time>
      </trkpt>
      <trkpt lat="48.70482" lon="-3.97644">
        <ele>34.13</ele>
        <time>2022-06-25T12:42:41.524Z</time>
      </trkpt>
      <trkpt lat="48.70489" lon="-3.97641">
        <ele>34.13</ele>
        <time>2022-06-25T12:42:51.041Z</time>
      </trkpt>
      <trkpt lat="48.705" lon="-3.97633">
        <ele>34.13</ele>
        <time>2022-06-25T12:43:00.648Z</time>
      </trkpt>
      <trkpt lat="48.7051" lon="-3.97628">
        <ele>35.81</ele>
        <time>2022-06-25T12:43:10.061Z</time>
      </trkpt>
      <trkpt lat="48.7052" lon="-3.97623">
        <ele>35.93</ele>
        <time>2022-06-25T12:43:19.083Z</time>
      </trkpt>
      <trkpt lat="48.70528" lon="-3.97613">
        <ele>23.13</ele>
        <time>2022-06-25T12:43:28.522Z</time>
      </trkpt>
      <trkpt lat="48.70537" lon="-3.97604">
        <ele>22.13</ele>
        <time>2022-06-25T12:43:38.543Z</time>
      </trkpt>
      <trkpt lat="48.70542" lon="-3.97592">
        <ele>22.38</ele>
        <time>2022-06-25T12:43:48.000Z</time>
      </trkpt>
      <trkpt lat="48.70545" lon="-3.97582">
        <ele>23.13</ele>
        <time>2022-06-25T12:43:57.200Z</time>
      </trkpt>
      <trkpt lat="48.70545" lon="-3.97579">
        <ele>23.13</ele>
        <time>2022-06-25T12:44:06.386Z</time>
      </trkpt>
      <trkpt lat="48.70545" lon="-3.97568">
        <ele>23.13</ele>
        <time>2022-06-25T12:44:15.602Z</time>
      </trkpt>
      <trkpt lat="48.7055" lon="-3.97555">
        <ele>21.38</ele>
        <time>2022-06-25T12:44:25.000Z</time>
      </trkpt>
      <trkpt lat="48.70553" lon="-3.97544">
        <ele>21.13</ele>
        <time>2022-06-25T12:44:34.520Z</time>
      </trkpt>
      <trkpt lat="48.70555" lon="-3.9753">
        <ele>21.11</ele>
        <time>2022-06-25T12:44:43.983Z</time>
      </trkpt>
      <trkpt lat="48.70557" lon="-3.97514">
        <ele>20.13</ele>
        <time>2022-06-25T12:44:53.447Z</time>
      </trkpt>
      <trkpt lat="48.70558" lon="-3.97503">
        <ele>19.13</ele>
        <time>2022-06-25T12:45:02.784Z</time>
      </trkpt>
      <trkpt lat="48.70559" lon="-3.97488">
        <ele>21.12</ele>
        <time>2022-06-25T12:45:12.000Z</time>
      </trkpt>
      <trkpt lat="48.70558" lon="-3.97476">
        <ele>20.13</ele>
        <time>2022-06-25T12:45:21.121Z</time>
      </trkpt>
      <trkpt lat="48.70559" lon="-3.97464">
        <ele>20.11</ele>
        <time>2022-06-25T12:45:30.408Z</time>
      </trkpt>
      <trkpt lat="48.70563" lon="-3.97452">
        <ele>19.13</ele>
        <time>2022-06-25T12:45:40.000Z</time>
      </trkpt>
      <trkpt lat="48.70569" lon="-3.97443">
        <ele>17.38</ele>
        <time>2022-06-25T12:45:49.103Z</time>
      </trkpt>
      <trkpt lat="48.70577" lon="-3.97438">
        <ele>14.13</ele>
        <time>2022-06-25T12:45:58.463Z</time>
      </trkpt>
      <trkpt lat="48.70583" lon="-3.9743">
        <ele>14.08</ele>
        <time>2022-06-25T12:46:08.000Z</time>
      </trkpt>
      <trkpt lat="48.70591" lon="-3.97426">
        <ele>15.13</ele>
        <time>2022-06-25T12:46:17.107Z</time>
      </trkpt>
      <trkpt lat="48.706" lon="-3.9742">
        <ele>14.13</ele>
        <time>2022-06-25T12:46:27.000Z</time>
      </trkpt>
      <trkpt lat="48.70607" lon="-3.97414">
        <ele>13.13</ele>
        <time>2022-06-25T12:46:36.463Z</time>
      </trkpt>
      <trkpt lat="48.70613" lon="-3.97397">
        <ele>13.31</ele>
        <time>2022-06-25T12:46:45.807Z</time>
      </trkpt>
      <trkpt lat="48.7062" lon="-3.97387">
        <ele>14.13</ele>
        <time>2022-06-25T12:46:55.000Z</time>
      </trkpt>
      <trkpt lat="48.70629" lon="-3.97379">
        <ele>14.13</ele>
        <time>2022-06-25T12:47:04.504Z</time>
      </trkpt>
      <trkpt lat="48.70636" lon="-3.97373">
        <ele>14.13</ele>
        <time>2022-06-25T12:47:13.624Z</time>
      </trkpt>
      <trkpt lat="48.70642" lon="-3.97373">
        <ele>12.13</ele>
        <time>2022-06-25T12:47:24.141Z</time>
      </trkpt>
      <trkpt lat="48.70648" lon="-3.97363">
        <ele>11.13</ele>
        <time>2022-06-25T12:47:33.326Z</time>
      </trkpt>
      <trkpt lat="48.70653" lon="-3.97352">
        <ele>11.13</ele>
        <time>2022-06-25T12:47:42.482Z</time>
      </trkpt>
      <trkpt lat="48.70659" lon="-3.97342">
        <ele>11.13</ele>
        <time>2022-06-25T12:47:51.644Z</time>
      </trkpt>
      <trkpt lat="48.70665" lon="-3.97332">
        <ele>10.13</ele>
        <time>2022-06-25T12:48:01.000Z</time>
      </trkpt>
      <trkpt lat="48.70671" lon="-3.97323">
        <ele>7.38</ele>
        <time>2022-06-25T12:48:10.126Z</time>
      </trkpt>
      <trkpt lat="48.70679" lon="-3.97324">
        <ele>6.13</ele>
        <time>2022-06-25T12:48:19.440Z</time>
      </trkpt>
      <trkpt lat="48.70683" lon="-3.97338">
        <ele>2.13</ele>
        <time>2022-06-25T12:48:29.000Z</time>
      </trkpt>
      <trkpt lat="48.70696" lon="-3.97341">
        <ele>2.13</ele>
        <time>2022-06-25T12:48:38.251Z</time>
      </trkpt>
      <trkpt lat="48.70706" lon="-3.97337">
        <ele>2.13</ele>
        <time>2022-06-25T12:48:48.000Z</time>
      </trkpt>
      <trkpt lat="48.70705" lon="-3.97339">
        <ele>1.13</ele>
        <time>2022-06-25T12:48:58.000Z</time>
      </trkpt>
      <trkpt lat="48.70704" lon="-3.97339">
        <ele>1.13</ele>
        <time>2022-06-25T12:49:09.000Z</time>
      </trkpt>
      <trkpt lat="48.70704" lon="-3.9734">
        <ele>0.38</ele>
        <time>2022-06-25T12:50:00.000Z</time>
      </trkpt>
      <trkpt lat="48.70702" lon="-3.97341">
        <ele>0.13</ele>
        <time>2022-06-25T12:50:10.000Z</time>
      </trkpt>
      <trkpt lat="48.70703" lon="-3.9734">
        <ele>-0.12</ele>
        <time>2022-06-25T12:52:13.000Z</time>
      </trkpt>
      <trkpt lat="48.70704" lon="-3.97339">
        <ele>0.13</ele>
        <time>2022-06-25T12:52:23.000Z</time>
      </trkpt>
      <trkpt lat="48.70705" lon="-3.97337">
        <ele>0.13</ele>
        <time>2022-06-25T12:53:14.000Z</time>
      </trkpt>
      <trkpt lat="48.70703" lon="-3.97339">
        <ele>-2.87</ele>
        <time>2022-06-25T12:53:24.000Z</time>
      </trkpt>
      <trkpt lat="48.70705" lon="-3.97338">
        <ele>-1.88</ele>
        <time>2022-06-25T12:54:05.406Z</time>
      </trkpt>
      <trkpt lat="48.70713" lon="-3.97342">
        <ele>-2.81</ele>
        <time>2022-06-25T12:54:14.539Z</time>
      </trkpt>
      <trkpt lat="48.7072" lon="-3.97347">
        <ele>-0.87</ele>
        <time>2022-06-25T12:54:24.022Z</time>
      </trkpt>
      <trkpt lat="48.70727" lon="-3.97354">
        <ele>1.12</ele>
        <time>2022-06-25T12:54:33.167Z</time>
      </trkpt>
      <trkpt lat="48.70733" lon="-3.97361">
        <ele>0.13</ele>
        <time>2022-06-25T12:54:42.664Z</time>
      </trkpt>
      <trkpt lat="48.70742" lon="-3.97364">
        <ele>0.13</ele>
        <time>2022-06-25T12:54:52.104Z</time>
      </trkpt>
      <trkpt lat="48.70749" lon="-3.97369">
        <ele>0.08</ele>
        <time>2022-06-25T12:55:01.521Z</time>
      </trkpt>
      <trkpt lat="48.70757" lon="-3.97372">
        <ele>1.13</ele>
        <time>2022-06-25T12:55:11.088Z</time>
      </trkpt>
      <trkpt lat="48.70765" lon="-3.97377">
        <ele>1.13</ele>
        <time>2022-06-25T12:55:20.146Z</time>
      </trkpt>
      <trkpt lat="48.70775" lon="-3.9738">
        <ele>1.13</ele>
        <time>2022-06-25T12:55:29.586Z</time>
      </trkpt>
      <trkpt lat="48.70784" lon="-3.97381">
        <ele>0.14</ele>
        <time>2022-06-25T12:55:38.887Z</time>
      </trkpt>
      <trkpt lat="48.70793" lon="-3.97384">
        <ele>1.88</ele>
        <time>2022-06-25T12:55:49.000Z</time>
      </trkpt>
      <trkpt lat="48.70801" lon="-3.97392">
        <ele>2.12</ele>
        <time>2022-06-25T12:55:58.645Z</time>
      </trkpt>
      <trkpt lat="48.70808" lon="-3.974">
        <ele>2.88</ele>
        <time>2022-06-25T12:56:08.062Z</time>
      </trkpt>
      <trkpt lat="48.70816" lon="-3.97408">
        <ele>4.07</ele>
        <time>2022-06-25T12:56:18.000Z</time>
      </trkpt>
      <trkpt lat="48.70822" lon="-3.97416">
        <ele>3.13</ele>
        <time>2022-06-25T12:56:27.407Z</time>
      </trkpt>
      <trkpt lat="48.70827" lon="-3.97426">
        <ele>3.13</ele>
        <time>2022-06-25T12:56:36.623Z</time>
      </trkpt>
      <trkpt lat="48.70828" lon="-3.97437">
        <ele>3.13</ele>
        <time>2022-06-25T12:56:46.000Z</time>
      </trkpt>
      <trkpt lat="48.7083" lon="-3.97448">
        <ele>4.13</ele>
        <time>2022-06-25T12:56:55.141Z</time>
      </trkpt>
      <trkpt lat="48.70831" lon="-3.97457">
        <ele>3.38</ele>
        <time>2022-06-25T12:57:04.163Z</time>
      </trkpt>
      <trkpt lat="48.70831" lon="-3.9747">
        <ele>3.13</ele>
        <time>2022-06-25T12:57:13.682Z</time>
      </trkpt>
      <trkpt lat="48.7083" lon="-3.97483">
        <ele>5.07</ele>
        <time>2022-06-25T12:57:23.226Z</time>
      </trkpt>
      <trkpt lat="48.7083" lon="-3.97495">
        <ele>6.13</ele>
        <time>2022-06-25T12:57:32.227Z</time>
      </trkpt>
      <trkpt lat="48.70829" lon="-3.97505">
        <ele>6.13</ele>
        <time>2022-06-25T12:57:41.661Z</time>
      </trkpt>
      <trkpt lat="48.70828" lon="-3.97517">
        <ele>7.13</ele>
        <time>2022-06-25T12:57:51.036Z</time>
      </trkpt>
      <trkpt lat="48.7083" lon="-3.97529">
        <ele>7.18</ele>
        <time>2022-06-25T12:58:00.388Z</time>
      </trkpt>
      <trkpt lat="48.70832" lon="-3.97543">
        <ele>8.13</ele>
        <time>2022-06-25T12:58:10.000Z</time>
      </trkpt>
      <trkpt lat="48.70832" lon="-3.97554">
        <ele>8.13</ele>
        <time>2022-06-25T12:58:19.147Z</time>
      </trkpt>
      <trkpt lat="48.70831" lon="-3.97567">
        <ele>8.13</ele>
        <time>2022-06-25T12:58:28.564Z</time>
      </trkpt>
      <trkpt lat="48.70831" lon="-3.9758">
        <ele>9.88</ele>
        <time>2022-06-25T12:58:38.124Z</time>
      </trkpt>
      <trkpt lat="48.70832" lon="-3.97592">
        <ele>10.14</ele>
        <time>2022-06-25T12:58:48.000Z</time>
      </trkpt>
      <trkpt lat="48.70834" lon="-3.97605">
        <ele>10.13</ele>
        <time>2022-06-25T12:58:57.329Z</time>
      </trkpt>
      <trkpt lat="48.70834" lon="-3.97616">
        <ele>10.13</ele>
        <time>2022-06-25T12:59:06.386Z</time>
      </trkpt>
      <trkpt lat="48.70838" lon="-3.97625">
        <ele>10.19</ele>
        <time>2022-06-25T12:59:15.603Z</time>
      </trkpt>
      <trkpt lat="48.70846" lon="-3.97629">
        <ele>11.12</ele>
        <time>2022-06-25T12:59:25.000Z</time>
      </trkpt>
      <trkpt lat="48.70855" lon="-3.97632">
        <ele>13.12</ele>
        <time>2022-06-25T12:59:34.481Z</time>
      </trkpt>
      <trkpt lat="48.70863" lon="-3.97638">
        <ele>13.13</ele>
        <time>2022-06-25T12:59:44.019Z</time>
      </trkpt>
      <trkpt lat="48.70872" lon="-3.97644">
        <ele>14.13</ele>
        <time>2022-06-25T12:59:53.668Z</time>
      </trkpt>
      <trkpt lat="48.70878" lon="-3.97649">
        <ele>13.13</ele>
        <time>2022-06-25T13:00:03.000Z</time>
      </trkpt>
      <trkpt lat="48.70887" lon="-3.97657">
        <ele>3.7</ele>
        <time>2022-06-25T13:00:12.244Z</time>
      </trkpt>
      <trkpt lat="48.7089" lon="-3.97667">
        <ele>5.05</ele>
        <time>2022-06-25T13:00:21.308Z</time>
      </trkpt>
      <trkpt lat="48.70904" lon="-3.97667">
        <ele>8.13</ele>
        <time>2022-06-25T13:00:31.000Z</time>
      </trkpt>
      <trkpt lat="48.70914" lon="-3.97664">
        <ele>11.88</ele>
        <time>2022-06-25T13:00:41.000Z</time>
      </trkpt>
      <trkpt lat="48.70923" lon="-3.97669">
        <ele>12.89</ele>
        <time>2022-06-25T13:00:50.263Z</time>
      </trkpt>
      <trkpt lat="48.70932" lon="-3.9767">
        <ele>13.18</ele>
        <time>2022-06-25T13:00:59.561Z</time>
      </trkpt>
      <trkpt lat="48.7094" lon="-3.97672">
        <ele>14.13</ele>
        <time>2022-06-25T13:01:08.904Z</time>
      </trkpt>
      <trkpt lat="48.70948" lon="-3.97677">
        <ele>14.12</ele>
        <time>2022-06-25T13:01:18.000Z</time>
      </trkpt>
      <trkpt lat="48.70959" lon="-3.97676">
        <ele>14.13</ele>
        <time>2022-06-25T13:01:27.506Z</time>
      </trkpt>
      <trkpt lat="48.70966" lon="-3.97677">
        <ele>14.13</ele>
        <time>2022-06-25T13:01:37.467Z</time>
      </trkpt>
      <trkpt lat="48.70975" lon="-3.97681">
        <ele>14.13</ele>
        <time>2022-06-25T13:01:47.000Z</time>
      </trkpt>
      <trkpt lat="48.70986" lon="-3.97678">
        <ele>14.13</ele>
        <time>2022-06-25T13:01:56.328Z</time>
      </trkpt>
      <trkpt lat="48.70995" lon="-3.97677">
        <ele>14.32</ele>
        <time>2022-06-25T13:02:06.000Z</time>
      </trkpt>
      <trkpt lat="48.71004" lon="-3.97671">
        <ele>16.13</ele>
        <time>2022-06-25T13:02:15.106Z</time>
      </trkpt>
      <trkpt lat="48.71011" lon="-3.97664">
        <ele>15.18</ele>
        <time>2022-06-25T13:02:24.389Z</time>
      </trkpt>
      <trkpt lat="48.7102" lon="-3.97656">
        <ele>16.13</ele>
        <time>2022-06-25T13:02:33.566Z</time>
      </trkpt>
      <trkpt lat="48.71026" lon="-3.97643">
        <ele>17.13</ele>
        <time>2022-06-25T13:02:43.346Z</time>
      </trkpt>
      <trkpt lat="48.71035" lon="-3.97632">
        <ele>18.13</ele>
        <time>2022-06-25T13:02:53.424Z</time>
      </trkpt>
      <trkpt lat="48.71041" lon="-3.97625">
        <ele>19.13</ele>
        <time>2022-06-25T13:03:02.482Z</time>
      </trkpt>
      <trkpt lat="48.71049" lon="-3.97615">
        <ele>20.13</ele>
        <time>2022-06-25T13:03:11.547Z</time>
      </trkpt>
      <trkpt lat="48.71055" lon="-3.97606">
        <ele>21.07</ele>
        <time>2022-06-25T13:03:21.000Z</time>
      </trkpt>
      <trkpt lat="48.71065" lon="-3.97595">
        <ele>20.88</ele>
        <time>2022-06-25T13:03:31.000Z</time>
      </trkpt>
      <trkpt lat="48.71073" lon="-3.97585">
        <ele>20.38</ele>
        <time>2022-06-25T13:03:40.567Z</time>
      </trkpt>
      <trkpt lat="48.71078" lon="-3.97575">
        <ele>20.13</ele>
        <time>2022-06-25T13:03:50.000Z</time>
      </trkpt>
      <trkpt lat="48.71085" lon="-3.97565">
        <ele>20.13</ele>
        <time>2022-06-25T13:03:59.105Z</time>
      </trkpt>
      <trkpt lat="48.71093" lon="-3.97552">
        <ele>20.07</ele>
        <time>2022-06-25T13:04:09.143Z</time>
      </trkpt>
      <trkpt lat="48.71097" lon="-3.9754">
        <ele>19.13</ele>
        <time>2022-06-25T13:04:18.224Z</time>
      </trkpt>
      <trkpt lat="48.71101" lon="-3.97526">
        <ele>17.14</ele>
        <time>2022-06-25T13:04:27.285Z</time>
      </trkpt>
      <trkpt lat="48.71102" lon="-3.97512">
        <ele>17.13</ele>
        <time>2022-06-25T13:04:36.525Z</time>
      </trkpt>
      <trkpt lat="48.71107" lon="-3.97498">
        <ele>17.13</ele>
        <time>2022-06-25T13:04:45.781Z</time>
      </trkpt>
      <trkpt lat="48.71112" lon="-3.97486">
        <ele>16.38</ele>
        <time>2022-06-25T13:04:55.000Z</time>
      </trkpt>
      <trkpt lat="48.71113" lon="-3.9747">
        <ele>15.13</ele>
        <time>2022-06-25T13:05:05.000Z</time>
      </trkpt>
      <trkpt lat="48.71116" lon="-3.97454">
        <ele>14.94</ele>
        <time>2022-06-25T13:05:14.906Z</time>
      </trkpt>
      <trkpt lat="48.71118" lon="-3.97441">
        <ele>14.13</ele>
        <time>2022-06-25T13:05:24.000Z</time>
      </trkpt>
      <trkpt lat="48.71121" lon="-3.97428">
        <ele>13.13</ele>
        <time>2022-06-25T13:05:33.206Z</time>
      </trkpt>
      <trkpt lat="48.71126" lon="-3.97414">
        <ele>11.38</ele>
        <time>2022-06-25T13:05:43.000Z</time>
      </trkpt>
      <trkpt lat="48.71127" lon="-3.974">
        <ele>10.13</ele>
        <time>2022-06-25T13:05:52.205Z</time>
      </trkpt>
      <trkpt lat="48.71134" lon="-3.9739">
        <ele>10.13</ele>
        <time>2022-06-25T13:06:01.645Z</time>
      </trkpt>
      <trkpt lat="48.71141" lon="-3.97385">
        <ele>10.13</ele>
        <time>2022-06-25T13:06:11.000Z</time>
      </trkpt>
      <trkpt lat="48.71148" lon="-3.97379">
        <ele>9.13</ele>
        <time>2022-06-25T13:06:20.465Z</time>
      </trkpt>
      <trkpt lat="48.71154" lon="-3.97375">
        <ele>18.33</ele>
        <time>2022-06-25T13:06:29.667Z</time>
      </trkpt>
      <trkpt lat="48.71162" lon="-3.97376">
        <ele>18.33</ele>
        <time>2022-06-25T13:06:39.166Z</time>
      </trkpt>
      <trkpt lat="48.71171" lon="-3.97376">
        <ele>18.33</ele>
        <time>2022-06-25T13:06:49.000Z</time>
      </trkpt>
      <trkpt lat="48.7118" lon="-3.97378">
        <ele>18.33</ele>
        <time>2022-06-25T13:06:58.505Z</time>
      </trkpt>
      <trkpt lat="48.7119" lon="-3.97381">
        <ele>18.33</ele>
        <time>2022-06-25T13:07:09.000Z</time>
      </trkpt>
      <trkpt lat="48.71197" lon="-3.97384">
        <ele>18.33</ele>
        <time>2022-06-25T13:07:18.340Z</time>
      </trkpt>
      <trkpt lat="48.71204" lon="-3.97389">
        <ele>18.33</ele>
        <time>2022-06-25T13:07:28.486Z</time>
      </trkpt>
      <trkpt lat="48.71208" lon="-3.97396">
        <ele>18.33</ele>
        <time>2022-06-25T13:07:37.528Z</time>
      </trkpt>
      <trkpt lat="48.71212" lon="-3.97405">
        <ele>18.33</ele>
        <time>2022-06-25T13:07:47.000Z</time>
      </trkpt>
      <trkpt lat="48.71217" lon="-3.97412">
        <ele>18.33</ele>
        <time>2022-06-25T13:07:56.407Z</time>
      </trkpt>
      <trkpt lat="48.71225" lon="-3.97409">
        <ele>18.33</ele>
        <time>2022-06-25T13:08:06.000Z</time>
      </trkpt>
      <trkpt lat="48.71233" lon="-3.97408">
        <ele>18.33</ele>
        <time>2022-06-25T13:08:15.406Z</time>
      </trkpt>
      <trkpt lat="48.71239" lon="-3.9741">
        <ele>18.13</ele>
        <time>2022-06-25T13:08:24.408Z</time>
      </trkpt>
      <trkpt lat="48.71244" lon="-3.97418">
        <ele>18.13</ele>
        <time>2022-06-25T13:08:34.000Z</time>
      </trkpt>
      <trkpt lat="48.71247" lon="-3.97417">
        <ele>19.13</ele>
        <time>2022-06-25T13:08:44.000Z</time>
      </trkpt>
      <trkpt lat="48.71247" lon="-3.97416">
        <ele>18.33</ele>
        <time>2022-06-25T13:08:54.000Z</time>
      </trkpt>
      <trkpt lat="48.71246" lon="-3.97414">
        <ele>18.33</ele>
        <time>2022-06-25T13:09:04.000Z</time>
      </trkpt>
      <trkpt lat="48.71247" lon="-3.97414">
        <ele>24.82</ele>
        <time>2022-06-25T13:09:52.000Z</time>
      </trkpt>
      <trkpt lat="48.71246" lon="-3.97415">
        <ele>24.13</ele>
        <time>2022-06-25T13:10:01.368Z</time>
      </trkpt>
      <trkpt lat="48.7125" lon="-3.97428">
        <ele>24.88</ele>
        <time>2022-06-25T13:10:10.466Z</time>
      </trkpt>
      <trkpt lat="48.71253" lon="-3.97441">
        <ele>24.13</ele>
        <time>2022-06-25T13:10:19.662Z</time>
      </trkpt>
      <trkpt lat="48.71255" lon="-3.97455">
        <ele>25.13</ele>
        <time>2022-06-25T13:10:28.983Z</time>
      </trkpt>
      <trkpt lat="48.71258" lon="-3.97467">
        <ele>25.13</ele>
        <time>2022-06-25T13:10:38.000Z</time>
      </trkpt>
      <trkpt lat="48.71265" lon="-3.97477">
        <ele>25.13</ele>
        <time>2022-06-25T13:10:48.000Z</time>
      </trkpt>
      <trkpt lat="48.71273" lon="-3.97481">
        <ele>26.13</ele>
        <time>2022-06-25T13:10:57.281Z</time>
      </trkpt>
      <trkpt lat="48.7128" lon="-3.97484">
        <ele>25.13</ele>
        <time>2022-06-25T13:11:06.444Z</time>
      </trkpt>
      <trkpt lat="48.71288" lon="-3.97487">
        <ele>26.13</ele>
        <time>2022-06-25T13:11:15.623Z</time>
      </trkpt>
      <trkpt lat="48.71291" lon="-3.97487">
        <ele>33.13</ele>
        <time>2022-06-25T13:11:24.986Z</time>
      </trkpt>
      <trkpt lat="48.71302" lon="-3.97487">
        <ele>33.13</ele>
        <time>2022-06-25T13:11:34.684Z</time>
      </trkpt>
      <trkpt lat="48.71313" lon="-3.9749">
        <ele>33.03</ele>
        <time>2022-06-25T13:11:44.408Z</time>
      </trkpt>
      <trkpt lat="48.71322" lon="-3.97497">
        <ele>33.03</ele>
        <time>2022-06-25T13:11:54.488Z</time>
      </trkpt>
      <trkpt lat="48.71334" lon="-3.97496">
        <ele>33.03</ele>
        <time>2022-06-25T13:12:03.604Z</time>
      </trkpt>
      <trkpt lat="48.71344" lon="-3.97492">
        <ele>33.03</ele>
        <time>2022-06-25T13:12:13.121Z</time>
      </trkpt>
      <trkpt lat="48.71352" lon="-3.9749">
        <ele>33.03</ele>
        <time>2022-06-25T13:12:22.546Z</time>
      </trkpt>
      <trkpt lat="48.71361" lon="-3.97494">
        <ele>33.03</ele>
        <time>2022-06-25T13:12:31.622Z</time>
      </trkpt>
      <trkpt lat="48.71372" lon="-3.975">
        <ele>33.03</ele>
        <time>2022-06-25T13:12:42.000Z</time>
      </trkpt>
      <trkpt lat="48.71381" lon="-3.97507">
        <ele>33.03</ele>
        <time>2022-06-25T13:12:51.164Z</time>
      </trkpt>
      <trkpt lat="48.71389" lon="-3.97512">
        <ele>24.27</ele>
        <time>2022-06-25T13:13:00.166Z</time>
      </trkpt>
      <trkpt lat="48.71396" lon="-3.97514">
        <ele>23.13</ele>
        <time>2022-06-25T13:13:09.305Z</time>
      </trkpt>
      <trkpt lat="48.71402" lon="-3.97513">
        <ele>25.53</ele>
        <time>2022-06-25T13:13:19.387Z</time>
      </trkpt>
      <trkpt lat="48.71408" lon="-3.97501">
        <ele>25.53</ele>
        <time>2022-06-25T13:13:28.486Z</time>
      </trkpt>
      <trkpt lat="48.71411" lon="-3.97485">
        <ele>25.53</ele>
        <time>2022-06-25T13:13:37.624Z</time>
      </trkpt>
      <trkpt lat="48.71413" lon="-3.97473">
        <ele>25.53</ele>
        <time>2022-06-25T13:13:46.625Z</time>
      </trkpt>
      <trkpt lat="48.71416" lon="-3.9746">
        <ele>24.74</ele>
        <time>2022-06-25T13:13:56.106Z</time>
      </trkpt>
      <trkpt lat="48.71419" lon="-3.97444">
        <ele>24.73</ele>
        <time>2022-06-25T13:14:05.444Z</time>
      </trkpt>
      <trkpt lat="48.71422" lon="-3.9743">
        <ele>24.73</ele>
        <time>2022-06-25T13:14:14.887Z</time>
      </trkpt>
      <trkpt lat="48.71424" lon="-3.97417">
        <ele>24.73</ele>
        <time>2022-06-25T13:14:24.984Z</time>
      </trkpt>
      <trkpt lat="48.71427" lon="-3.97405">
        <ele>24.73</ele>
        <time>2022-06-25T13:14:34.465Z</time>
      </trkpt>
      <trkpt lat="48.71425" lon="-3.97391">
        <ele>24.73</ele>
        <time>2022-06-25T13:14:45.046Z</time>
      </trkpt>
      <trkpt lat="48.71425" lon="-3.97377">
        <ele>24.73</ele>
        <time>2022-06-25T13:14:54.319Z</time>
      </trkpt>
      <trkpt lat="48.71426" lon="-3.97365">
        <ele>24.73</ele>
        <time>2022-06-25T13:15:03.343Z</time>
      </trkpt>
      <trkpt lat="48.71425" lon="-3.97348">
        <ele>24.73</ele>
        <time>2022-06-25T13:15:13.444Z</time>
      </trkpt>
      <trkpt lat="48.71426" lon="-3.97333">
        <ele>24.73</ele>
        <time>2022-06-25T13:15:23.422Z</time>
      </trkpt>
      <trkpt lat="48.71433" lon="-3.97322">
        <ele>11.13</ele>
        <time>2022-06-25T13:15:33.481Z</time>
      </trkpt>
      <trkpt lat="48.71442" lon="-3.97316">
        <ele>11.13</ele>
        <time>2022-06-25T13:15:43.000Z</time>
      </trkpt>
      <trkpt lat="48.71452" lon="-3.97312">
        <ele>9.13</ele>
        <time>2022-06-25T13:15:52.583Z</time>
      </trkpt>
      <trkpt lat="48.7146" lon="-3.97304">
        <ele>9.13</ele>
        <time>2022-06-25T13:16:03.000Z</time>
      </trkpt>
      <trkpt lat="48.71467" lon="-3.97295">
        <ele>10.07</ele>
        <time>2022-06-25T13:16:12.347Z</time>
      </trkpt>
      <trkpt lat="48.71474" lon="-3.97287">
        <ele>10.08</ele>
        <time>2022-06-25T13:16:22.000Z</time>
      </trkpt>
      <trkpt lat="48.71482" lon="-3.97279">
        <ele>10.13</ele>
        <time>2022-06-25T13:16:31.443Z</time>
      </trkpt>
      <trkpt lat="48.71489" lon="-3.97273">
        <ele>11.13</ele>
        <time>2022-06-25T13:16:41.000Z</time>
      </trkpt>
      <trkpt lat="48.71496" lon="-3.97265">
        <ele>12.13</ele>
        <time>2022-06-25T13:16:51.000Z</time>
      </trkpt>
      <trkpt lat="48.71504" lon="-3.97259">
        <ele>12.14</ele>
        <time>2022-06-25T13:17:00.103Z</time>
      </trkpt>
      <trkpt lat="48.71513" lon="-3.97252">
        <ele>12.08</ele>
        <time>2022-06-25T13:17:09.520Z</time>
      </trkpt>
      <trkpt lat="48.71521" lon="-3.97246">
        <ele>12.14</ele>
        <time>2022-06-25T13:17:18.787Z</time>
      </trkpt>
      <trkpt lat="48.71532" lon="-3.97239">
        <ele>13.13</ele>
        <time>2022-06-25T13:17:28.502Z</time>
      </trkpt>
      <trkpt lat="48.71541" lon="-3.97233">
        <ele>12.37</ele>
        <time>2022-06-25T13:17:37.744Z</time>
      </trkpt>
      <trkpt lat="48.71552" lon="-3.97223">
        <ele>7.09</ele>
        <time>2022-06-25T13:17:47.467Z</time>
      </trkpt>
      <trkpt lat="48.71555" lon="-3.97211">
        <ele>8.07</ele>
        <time>2022-06-25T13:17:57.000Z</time>
      </trkpt>
      <trkpt lat="48.71551" lon="-3.97195">
        <ele>7.89</ele>
        <time>2022-06-25T13:18:07.000Z</time>
      </trkpt>
      <trkpt lat="48.71554" lon="-3.97185">
        <ele>6.14</ele>
        <time>2022-06-25T13:18:16.262Z</time>
      </trkpt>
      <trkpt lat="48.71565" lon="-3.9718">
        <ele>6.14</ele>
        <time>2022-06-25T13:18:26.000Z</time>
      </trkpt>
      <trkpt lat="48.71575" lon="-3.97175">
        <ele>7.14</ele>
        <time>2022-06-25T13:18:35.222Z</time>
      </trkpt>
      <trkpt lat="48.71582" lon="-3.97171">
        <ele>8.14</ele>
        <time>2022-06-25T13:18:44.307Z</time>
      </trkpt>
      <trkpt lat="48.7159" lon="-3.97168">
        <ele>16.92</ele>
        <time>2022-06-25T13:18:54.000Z</time>
      </trkpt>
      <trkpt lat="48.71599" lon="-3.97168">
        <ele>17.44</ele>
        <time>2022-06-25T13:19:03.266Z</time>
      </trkpt>
      <trkpt lat="48.71603" lon="-3.97166">
        <ele>17.44</ele>
        <time>2022-06-25T13:19:12.629Z</time>
      </trkpt>
      <trkpt lat="48.7161" lon="-3.97165">
        <ele>17.44</ele>
        <time>2022-06-25T13:19:22.000Z</time>
      </trkpt>
      <trkpt lat="48.7162" lon="-3.97164">
        <ele>17.44</ele>
        <time>2022-06-25T13:19:31.603Z</time>
      </trkpt>
      <trkpt lat="48.71625" lon="-3.97162">
        <ele>17.44</ele>
        <time>2022-06-25T13:19:41.000Z</time>
      </trkpt>
      <trkpt lat="48.71624" lon="-3.97162">
        <ele>4.74</ele>
        <time>2022-06-25T13:19:56.000Z</time>
      </trkpt>
      <trkpt lat="48.71624" lon="-3.97163">
        <ele>10.39</ele>
        <time>2022-06-25T13:20:26.000Z</time>
      </trkpt>
      <trkpt lat="48.71631" lon="-3.9716">
        <ele>11.14</ele>
        <time>2022-06-25T13:20:36.000Z</time>
      </trkpt>
      <trkpt lat="48.71643" lon="-3.97157">
        <ele>12.14</ele>
        <time>2022-06-25T13:20:45.441Z</time>
      </trkpt>
      <trkpt lat="48.71655" lon="-3.97159">
        <ele>13.13</ele>
        <time>2022-06-25T13:20:55.004Z</time>
      </trkpt>
      <trkpt lat="48.71665" lon="-3.97158">
        <ele>13.14</ele>
        <time>2022-06-25T13:21:04.503Z</time>
      </trkpt>
      <trkpt lat="48.71674" lon="-3.97156">
        <ele>13.14</ele>
        <time>2022-06-25T13:21:14.003Z</time>
      </trkpt>
      <trkpt lat="48.71678" lon="-3.97156">
        <ele>12.14</ele>
        <time>2022-06-25T13:21:24.000Z</time>
      </trkpt>
      <trkpt lat="48.71687" lon="-3.97157">
        <ele>12.14</ele>
        <time>2022-06-25T13:21:33.631Z</time>
      </trkpt>
      <trkpt lat="48.71698" lon="-3.97158">
        <ele>12.14</ele>
        <time>2022-06-25T13:21:43.000Z</time>
      </trkpt>
      <trkpt lat="48.71708" lon="-3.97154">
        <ele>12.14</ele>
        <time>2022-06-25T13:21:52.302Z</time>
      </trkpt>
      <trkpt lat="48.71717" lon="-3.97151">
        <ele>13.07</ele>
        <time>2022-06-25T13:22:02.000Z</time>
      </trkpt>
      <trkpt lat="48.71726" lon="-3.97153">
        <ele>13.14</ele>
        <time>2022-06-25T13:22:11.285Z</time>
      </trkpt>
      <trkpt lat="48.71734" lon="-3.97155">
        <ele>12.14</ele>
        <time>2022-06-25T13:22:20.361Z</time>
      </trkpt>
      <trkpt lat="48.71742" lon="-3.97158">
        <ele>12.07</ele>
        <time>2022-06-25T13:22:29.645Z</time>
      </trkpt>
      <trkpt lat="48.71751" lon="-3.9716">
        <ele>13.89</ele>
        <time>2022-06-25T13:22:39.000Z</time>
      </trkpt>
      <trkpt lat="48.71758" lon="-3.97165">
        <ele>15.13</ele>
        <time>2022-06-25T13:22:48.033Z</time>
      </trkpt>
      <trkpt lat="48.71767" lon="-3.97172">
        <ele>15.14</ele>
        <time>2022-06-25T13:22:57.400Z</time>
      </trkpt>
      <trkpt lat="48.71776" lon="-3.97175">
        <ele>15.13</ele>
        <time>2022-06-25T13:23:06.565Z</time>
      </trkpt>
      <trkpt lat="48.71779" lon="-3.97179">
        <ele>15.12</ele>
        <time>2022-06-25T13:23:16.000Z</time>
      </trkpt>
      <trkpt lat="48.71785" lon="-3.97185">
        <ele>14.14</ele>
        <time>2022-06-25T13:23:25.084Z</time>
      </trkpt>
      <trkpt lat="48.71795" lon="-3.97189">
        <ele>14.14</ele>
        <time>2022-06-25T13:23:34.384Z</time>
      </trkpt>
      <trkpt lat="48.71804" lon="-3.97192">
        <ele>13.89</ele>
        <time>2022-06-25T13:23:44.000Z</time>
      </trkpt>
      <trkpt lat="48.71813" lon="-3.97196">
        <ele>15.02</ele>
        <time>2022-06-25T13:23:54.000Z</time>
      </trkpt>
      <trkpt lat="48.71819" lon="-3.97198">
        <ele>15.04</ele>
        <time>2022-06-25T13:24:03.245Z</time>
      </trkpt>
      <trkpt lat="48.71828" lon="-3.97203">
        <ele>15.04</ele>
        <time>2022-06-25T13:24:12.545Z</time>
      </trkpt>
      <trkpt lat="48.71836" lon="-3.97208">
        <ele>16.14</ele>
        <time>2022-06-25T13:24:22.000Z</time>
      </trkpt>
      <trkpt lat="48.71844" lon="-3.97214">
        <ele>16.14</ele>
        <time>2022-06-25T13:24:32.000Z</time>
      </trkpt>
      <trkpt lat="48.71851" lon="-3.97218">
        <ele>16.14</ele>
        <time>2022-06-25T13:24:42.206Z</time>
      </trkpt>
      <trkpt lat="48.71859" lon="-3.97224">
        <ele>16.14</ele>
        <time>2022-06-25T13:24:52.064Z</time>
      </trkpt>
      <trkpt lat="48.71867" lon="-3.97232">
        <ele>15.39</ele>
        <time>2022-06-25T13:25:02.241Z</time>
      </trkpt>
      <trkpt lat="48.71875" lon="-3.97239">
        <ele>14.14</ele>
        <time>2022-06-25T13:25:12.206Z</time>
      </trkpt>
      <trkpt lat="48.71883" lon="-3.97247">
        <ele>13.95</ele>
        <time>2022-06-25T13:25:22.185Z</time>
      </trkpt>
      <trkpt lat="48.71889" lon="-3.97251">
        <ele>13.14</ele>
        <time>2022-06-25T13:25:31.324Z</time>
      </trkpt>
      <trkpt lat="48.71891" lon="-3.97248">
        <ele>13.12</ele>
        <time>2022-06-25T13:25:41.000Z</time>
      </trkpt>
      <trkpt lat="48.71892" lon="-3.9725">
        <ele>12.2</ele>
        <time>2022-06-25T13:26:57.000Z</time>
      </trkpt>
      <trkpt lat="48.71903" lon="-3.97252">
        <ele>14.12</ele>
        <time>2022-06-25T13:27:07.000Z</time>
      </trkpt>
      <trkpt lat="48.71912" lon="-3.97259">
        <ele>13.89</ele>
        <time>2022-06-25T13:27:17.363Z</time>
      </trkpt>
      <trkpt lat="48.71918" lon="-3.97266">
        <ele>14.14</ele>
        <time>2022-06-25T13:27:26.525Z</time>
      </trkpt>
      <trkpt lat="48.71924" lon="-3.97272">
        <ele>14.14</ele>
        <time>2022-06-25T13:27:36.000Z</time>
      </trkpt>
      <trkpt lat="48.71934" lon="-3.97273">
        <ele>15.14</ele>
        <time>2022-06-25T13:27:45.261Z</time>
      </trkpt>
      <trkpt lat="48.71942" lon="-3.97275">
        <ele>22.54</ele>
        <time>2022-06-25T13:27:55.000Z</time>
      </trkpt>
      <trkpt lat="48.7195" lon="-3.97265">
        <ele>16.12</ele>
        <time>2022-06-25T13:28:04.002Z</time>
      </trkpt>
      <trkpt lat="48.7196" lon="-3.9726">
        <ele>23.64</ele>
        <time>2022-06-25T13:28:14.000Z</time>
      </trkpt>
      <trkpt lat="48.71969" lon="-3.97256">
        <ele>24.14</ele>
        <time>2022-06-25T13:28:23.085Z</time>
      </trkpt>
      <trkpt lat="48.71977" lon="-3.97254">
        <ele>23.94</ele>
        <time>2022-06-25T13:28:32.162Z</time>
      </trkpt>
      <trkpt lat="48.71983" lon="-3.97258">
        <ele>24.14</ele>
        <time>2022-06-25T13:28:41.323Z</time>
      </trkpt>
      <trkpt lat="48.71992" lon="-3.97267">
        <ele>24.05</ele>
        <time>2022-06-25T13:28:50.444Z</time>
      </trkpt>
      <trkpt lat="48.71996" lon="-3.97279">
        <ele>24.14</ele>
        <time>2022-06-25T13:28:59.544Z</time>
      </trkpt>
      <trkpt lat="48.72002" lon="-3.97288">
        <ele>23.94</ele>
        <time>2022-06-25T13:29:08.825Z</time>
      </trkpt>
      <trkpt lat="48.72006" lon="-3.973">
        <ele>24.14</ele>
        <time>2022-06-25T13:29:18.381Z</time>
      </trkpt>
      <trkpt lat="48.7201" lon="-3.97313">
        <ele>24.74</ele>
        <time>2022-06-25T13:29:28.045Z</time>
      </trkpt>
      <trkpt lat="48.72012" lon="-3.97326">
        <ele>24.74</ele>
        <time>2022-06-25T13:29:38.000Z</time>
      </trkpt>
      <trkpt lat="48.72015" lon="-3.97326">
        <ele>24.74</ele>
        <time>2022-06-25T13:29:47.382Z</time>
      </trkpt>
      <trkpt lat="48.72024" lon="-3.97337">
        <ele>24.74</ele>
        <time>2022-06-25T13:29:57.000Z</time>
      </trkpt>
      <trkpt lat="48.72033" lon="-3.97351">
        <ele>24.74</ele>
        <time>2022-06-25T13:30:06.622Z</time>
      </trkpt>
      <trkpt lat="48.72037" lon="-3.97362">
        <ele>24.74</ele>
        <time>2022-06-25T13:30:15.967Z</time>
      </trkpt>
      <trkpt lat="48.72041" lon="-3.97374">
        <ele>18.12</ele>
        <time>2022-06-25T13:30:25.267Z</time>
      </trkpt>
      <trkpt lat="48.72045" lon="-3.97387">
        <ele>18.84</ele>
        <time>2022-06-25T13:30:34.584Z</time>
      </trkpt>
      <trkpt lat="48.7205" lon="-3.97402">
        <ele>18.73</ele>
        <time>2022-06-25T13:30:43.845Z</time>
      </trkpt>
      <trkpt lat="48.72054" lon="-3.97414">
        <ele>17.71</ele>
        <time>2022-06-25T13:30:53.000Z</time>
      </trkpt>
      <trkpt lat="48.72059" lon="-3.97428">
        <ele>17.84</ele>
        <time>2022-06-25T13:31:02.187Z</time>
      </trkpt>
      <trkpt lat="48.72065" lon="-3.97444">
        <ele>17.64</ele>
        <time>2022-06-25T13:31:12.239Z</time>
      </trkpt>
      <trkpt lat="48.7207" lon="-3.97459">
        <ele>15.94</ele>
        <time>2022-06-25T13:31:21.367Z</time>
      </trkpt>
      <trkpt lat="48.72075" lon="-3.97469">
        <ele>15.94</ele>
        <time>2022-06-25T13:31:30.524Z</time>
      </trkpt>
      <trkpt lat="48.72077" lon="-3.97482">
        <ele>14.14</ele>
        <time>2022-06-25T13:31:39.625Z</time>
      </trkpt>
      <trkpt lat="48.7208" lon="-3.97494">
        <ele>15.36</ele>
        <time>2022-06-25T13:31:49.000Z</time>
      </trkpt>
      <trkpt lat="48.72083" lon="-3.9751">
        <ele>11.2</ele>
        <time>2022-06-25T13:31:58.421Z</time>
      </trkpt>
      <trkpt lat="48.72089" lon="-3.97522">
        <ele>11.14</ele>
        <time>2022-06-25T13:32:08.000Z</time>
      </trkpt>
      <trkpt lat="48.72093" lon="-3.97536">
        <ele>15.44</ele>
        <time>2022-06-25T13:32:17.106Z</time>
      </trkpt>
      <trkpt lat="48.72096" lon="-3.97547">
        <ele>14.14</ele>
        <time>2022-06-25T13:32:26.463Z</time>
      </trkpt>
      <trkpt lat="48.72099" lon="-3.9756">
        <ele>11.65</ele>
        <time>2022-06-25T13:32:36.000Z</time>
      </trkpt>
      <trkpt lat="48.72101" lon="-3.97564">
        <ele>14.14</ele>
        <time>2022-06-25T13:32:46.000Z</time>
      </trkpt>
      <trkpt lat="48.72105" lon="-3.97579">
        <ele>14.04</ele>
        <time>2022-06-25T13:32:56.000Z</time>
      </trkpt>
      <trkpt lat="48.72105" lon="-3.97598">
        <ele>14.14</ele>
        <time>2022-06-25T13:33:05.662Z</time>
      </trkpt>
      <trkpt lat="48.72105" lon="-3.97611">
        <ele>14.14</ele>
        <time>2022-06-25T13:33:15.663Z</time>
      </trkpt>
      <trkpt lat="48.72106" lon="-3.97619">
        <ele>14.14</ele>
        <time>2022-06-25T13:33:25.000Z</time>
      </trkpt>
      <trkpt lat="48.72106" lon="-3.97623">
        <ele>13.46</ele>
        <time>2022-06-25T13:33:34.444Z</time>
      </trkpt>
      <trkpt lat="48.72108" lon="-3.97642">
        <ele>13.76</ele>
        <time>2022-06-25T13:33:44.582Z</time>
      </trkpt>
      <trkpt lat="48.72109" lon="-3.97658">
        <ele>13.24</ele>
        <time>2022-06-25T13:33:54.000Z</time>
      </trkpt>
      <trkpt lat="48.7211" lon="-3.97675">
        <ele>13.24</ele>
        <time>2022-06-25T13:34:04.000Z</time>
      </trkpt>
      <trkpt lat="48.7211" lon="-3.97689">
        <ele>10.64</ele>
        <time>2022-06-25T13:34:13.544Z</time>
      </trkpt>
      <trkpt lat="48.72113" lon="-3.97702">
        <ele>13.94</ele>
        <time>2022-06-25T13:34:23.000Z</time>
      </trkpt>
      <trkpt lat="48.72118" lon="-3.97715">
        <ele>12.04</ele>
        <time>2022-06-25T13:34:32.324Z</time>
      </trkpt>
      <trkpt lat="48.72119" lon="-3.97731">
        <ele>12.04</ele>
        <time>2022-06-25T13:34:41.586Z</time>
      </trkpt>
      <trkpt lat="48.72121" lon="-3.97742">
        <ele>13.82</ele>
        <time>2022-06-25T13:34:50.826Z</time>
      </trkpt>
      <trkpt lat="48.72122" lon="-3.97757">
        <ele>13.16</ele>
        <time>2022-06-25T13:35:00.167Z</time>
      </trkpt>
      <trkpt lat="48.72124" lon="-3.97772">
        <ele>15.44</ele>
        <time>2022-06-25T13:35:10.000Z</time>
      </trkpt>
      <trkpt lat="48.72123" lon="-3.97782">
        <ele>10.84</ele>
        <time>2022-06-25T13:35:20.000Z</time>
      </trkpt>
      <trkpt lat="48.72123" lon="-3.97789">
        <ele>10.04</ele>
        <time>2022-06-25T13:35:29.883Z</time>
      </trkpt>
      <trkpt lat="48.72129" lon="-3.97805">
        <ele>10.04</ele>
        <time>2022-06-25T13:35:39.035Z</time>
      </trkpt>
      <trkpt lat="48.72134" lon="-3.97819">
        <ele>9.14</ele>
        <time>2022-06-25T13:35:48.081Z</time>
      </trkpt>
      <trkpt lat="48.72135" lon="-3.97834">
        <ele>9.04</ele>
        <time>2022-06-25T13:35:57.762Z</time>
      </trkpt>
      <trkpt lat="48.72139" lon="-3.97846">
        <ele>8.74</ele>
        <time>2022-06-25T13:36:07.061Z</time>
      </trkpt>
      <trkpt lat="48.72143" lon="-3.97856">
        <ele>7.05</ele>
        <time>2022-06-25T13:36:17.000Z</time>
      </trkpt>
      <trkpt lat="48.72138" lon="-3.97875">
        <ele>9.03</ele>
        <time>2022-06-25T13:36:26.365Z</time>
      </trkpt>
      <trkpt lat="48.72134" lon="-3.97886">
        <ele>8.74</ele>
        <time>2022-06-25T13:36:35.399Z</time>
      </trkpt>
      <trkpt lat="48.72131" lon="-3.97901">
        <ele>8.74</ele>
        <time>2022-06-25T13:36:45.306Z</time>
      </trkpt>
      <trkpt lat="48.72126" lon="-3.97912">
        <ele>8.74</ele>
        <time>2022-06-25T13:36:54.367Z</time>
      </trkpt>
      <trkpt lat="48.72122" lon="-3.97925">
        <ele>8.74</ele>
        <time>2022-06-25T13:37:03.550Z</time>
      </trkpt>
      <trkpt lat="48.72118" lon="-3.97936">
        <ele>10.9</ele>
        <time>2022-06-25T13:37:13.000Z</time>
      </trkpt>
      <trkpt lat="48.72115" lon="-3.97949">
        <ele>11.04</ele>
        <time>2022-06-25T13:37:22.365Z</time>
      </trkpt>
      <trkpt lat="48.72113" lon="-3.97959">
        <ele>13.36</ele>
        <time>2022-06-25T13:37:31.442Z</time>
      </trkpt>
      <trkpt lat="48.72113" lon="-3.97972">
        <ele>11.04</ele>
        <time>2022-06-25T13:37:41.000Z</time>
      </trkpt>
      <trkpt lat="48.72117" lon="-3.97988">
        <ele>3.14</ele>
        <time>2022-06-25T13:37:50.465Z</time>
      </trkpt>
      <trkpt lat="48.7212" lon="-3.98002">
        <ele>11.34</ele>
        <time>2022-06-25T13:37:59.484Z</time>
      </trkpt>
      <trkpt lat="48.72118" lon="-3.98014">
        <ele>3.2</ele>
        <time>2022-06-25T13:38:08.582Z</time>
      </trkpt>
      <trkpt lat="48.72117" lon="-3.98026">
        <ele>3.14</ele>
        <time>2022-06-25T13:38:18.506Z</time>
      </trkpt>
      <trkpt lat="48.72117" lon="-3.9804">
        <ele>5.08</ele>
        <time>2022-06-25T13:38:28.000Z</time>
      </trkpt>
      <trkpt lat="48.72116" lon="-3.98056">
        <ele>11.14</ele>
        <time>2022-06-25T13:38:37.586Z</time>
      </trkpt>
      <trkpt lat="48.72116" lon="-3.9807">
        <ele>11.54</ele>
        <time>2022-06-25T13:38:46.668Z</time>
      </trkpt>
      <trkpt lat="48.72117" lon="-3.98084">
        <ele>11.54</ele>
        <time>2022-06-25T13:38:56.000Z</time>
      </trkpt>
      <trkpt lat="48.72117" lon="-3.98102">
        <ele>11.54</ele>
        <time>2022-06-25T13:39:06.000Z</time>
      </trkpt>
      <trkpt lat="48.72117" lon="-3.98118">
        <ele>11.54</ele>
        <time>2022-06-25T13:39:15.341Z</time>
      </trkpt>
      <trkpt lat="48.72116" lon="-3.98134">
        <ele>11.54</ele>
        <time>2022-06-25T13:39:24.906Z</time>
      </trkpt>
      <trkpt lat="48.72116" lon="-3.98147">
        <ele>11.54</ele>
        <time>2022-06-25T13:39:33.982Z</time>
      </trkpt>
      <trkpt lat="48.72116" lon="-3.9816">
        <ele>11.54</ele>
        <time>2022-06-25T13:39:43.000Z</time>
      </trkpt>
      <trkpt lat="48.72114" lon="-3.98173">
        <ele>11.54</ele>
        <time>2022-06-25T13:39:52.268Z</time>
      </trkpt>
      <trkpt lat="48.72114" lon="-3.98185">
        <ele>11.54</ele>
        <time>2022-06-25T13:40:01.363Z</time>
      </trkpt>
      <trkpt lat="48.72113" lon="-3.98199">
        <ele>3.08</ele>
        <time>2022-06-25T13:40:10.463Z</time>
      </trkpt>
      <trkpt lat="48.72113" lon="-3.98211">
        <ele>2.14</ele>
        <time>2022-06-25T13:40:19.506Z</time>
      </trkpt>
      <trkpt lat="48.72111" lon="-3.98226">
        <ele>2.14</ele>
        <time>2022-06-25T13:40:28.603Z</time>
      </trkpt>
      <trkpt lat="48.72109" lon="-3.9824">
        <ele>1.95</ele>
        <time>2022-06-25T13:40:38.000Z</time>
      </trkpt>
      <trkpt lat="48.72107" lon="-3.98253">
        <ele>2.14</ele>
        <time>2022-06-25T13:40:47.105Z</time>
      </trkpt>
      <trkpt lat="48.72106" lon="-3.98261">
        <ele>4.14</ele>
        <time>2022-06-25T13:40:56.665Z</time>
      </trkpt>
      <trkpt lat="48.72104" lon="-3.98271">
        <ele>4.14</ele>
        <time>2022-06-25T13:41:06.000Z</time>
      </trkpt>
      <trkpt lat="48.72103" lon="-3.98285">
        <ele>3.33</ele>
        <time>2022-06-25T13:41:16.000Z</time>
      </trkpt>
      <trkpt lat="48.72102" lon="-3.983">
        <ele>16.39</ele>
        <time>2022-06-25T13:41:25.104Z</time>
      </trkpt>
      <trkpt lat="48.721" lon="-3.98315">
        <ele>15.54</ele>
        <time>2022-06-25T13:41:34.123Z</time>
      </trkpt>
      <trkpt lat="48.721" lon="-3.98328">
        <ele>16.44</ele>
        <time>2022-06-25T13:41:43.205Z</time>
      </trkpt>
      <trkpt lat="48.72098" lon="-3.98337">
        <ele>19.24</ele>
        <time>2022-06-25T13:41:52.223Z</time>
      </trkpt>
      <trkpt lat="48.72092" lon="-3.98345">
        <ele>12.66</ele>
        <time>2022-06-25T13:42:02.000Z</time>
      </trkpt>
      <trkpt lat="48.72088" lon="-3.9835">
        <ele>12.43</ele>
        <time>2022-06-25T13:42:12.000Z</time>
      </trkpt>
      <trkpt lat="48.72085" lon="-3.98353">
        <ele>12.44</ele>
        <time>2022-06-25T13:42:22.000Z</time>
      </trkpt>
      <trkpt lat="48.72083" lon="-3.98358">
        <ele>12.44</ele>
        <time>2022-06-25T13:42:31.081Z</time>
      </trkpt>
      <trkpt lat="48.7208" lon="-3.98373">
        <ele>12.44</ele>
        <time>2022-06-25T13:42:40.381Z</time>
      </trkpt>
      <trkpt lat="48.72082" lon="-3.98378">
        <ele>12.64</ele>
        <time>2022-06-25T13:42:50.522Z</time>
      </trkpt>
      <trkpt lat="48.72081" lon="-3.98379">
        <ele>12.64</ele>
        <time>2022-06-25T13:43:00.484Z</time>
      </trkpt>
      <trkpt lat="48.72079" lon="-3.98379">
        <ele>12.64</ele>
        <time>2022-06-25T13:43:09.000Z</time>
      </trkpt>
    </trkseg>
  </trk>
</gpx>